<?xml version="1.0" encoding="UTF-8" standalone="no" ?>
<gpx xmlns="http://www.topografix.com/GPX/1/1" xmlns:xsi="http://www.w3.org/2001/XMLSchema-instance" xsi:schemaLocation="http://www.topografix.com/GPX/1/1 http://www.topografix.com/GPX/1/1/gpx.xsd" version="1.1" creator="VisuGPX - https://www.visugpx.com">
  <metadata>
    <name>Sortie du 8 Juin 2025</name>
  </metadata>
  <trk>
    <name><![CDATA[Sortie du 8 Juin 2025 80 Km-21593280]]></name>
    <trkseg>
      <trkpt lat="48.60413" lon="-3.01912">
        <ele>92</ele>
        <time>2025-06-07T06:56:24Z</time>
      </trkpt>
      <trkpt lat="48.60407" lon="-3.01891">
        <ele>92</ele>
        <time>2025-06-07T06:56:27Z</time>
      </trkpt>
      <trkpt lat="48.60402" lon="-3.01871">
        <ele>92</ele>
        <time>2025-06-07T06:56:29Z</time>
      </trkpt>
      <trkpt lat="48.60401" lon="-3.01854">
        <ele>92</ele>
        <time>2025-06-07T06:56:31Z</time>
      </trkpt>
      <trkpt lat="48.60398" lon="-3.01854">
        <ele>92</ele>
        <time>2025-06-07T06:56:32Z</time>
      </trkpt>
      <trkpt lat="48.60353" lon="-3.01868">
        <ele>93</ele>
        <time>2025-06-07T06:56:40Z</time>
      </trkpt>
      <trkpt lat="48.60346" lon="-3.01868">
        <ele>93</ele>
        <time>2025-06-07T06:56:41Z</time>
      </trkpt>
      <trkpt lat="48.60336" lon="-3.01865">
        <ele>93</ele>
        <time>2025-06-07T06:56:43Z</time>
      </trkpt>
      <trkpt lat="48.60332" lon="-3.01857">
        <ele>93</ele>
        <time>2025-06-07T06:56:44Z</time>
      </trkpt>
      <trkpt lat="48.6027" lon="-3.01753">
        <ele>94</ele>
        <time>2025-06-07T06:57:01Z</time>
      </trkpt>
      <trkpt lat="48.60211" lon="-3.01641">
        <ele>95</ele>
        <time>2025-06-07T06:57:17Z</time>
      </trkpt>
      <trkpt lat="48.60193" lon="-3.01613">
        <ele>95</ele>
        <time>2025-06-07T06:57:22Z</time>
      </trkpt>
      <trkpt lat="48.60079" lon="-3.01454">
        <ele>99</ele>
        <time>2025-06-07T06:57:50Z</time>
      </trkpt>
      <trkpt lat="48.59999" lon="-3.01316">
        <ele>99</ele>
        <time>2025-06-07T06:58:11Z</time>
      </trkpt>
      <trkpt lat="48.59946" lon="-3.01244">
        <ele>99</ele>
        <time>2025-06-07T06:58:24Z</time>
      </trkpt>
      <trkpt lat="48.59906" lon="-3.01192">
        <ele>100</ele>
        <time>2025-06-07T06:58:33Z</time>
      </trkpt>
      <trkpt lat="48.59891" lon="-3.01173">
        <ele>100</ele>
        <time>2025-06-07T06:58:37Z</time>
      </trkpt>
      <trkpt lat="48.59862" lon="-3.01129">
        <ele>101</ele>
        <time>2025-06-07T06:58:44Z</time>
      </trkpt>
      <trkpt lat="48.59831" lon="-3.01082">
        <ele>100</ele>
        <time>2025-06-07T06:58:52Z</time>
      </trkpt>
      <trkpt lat="48.59784" lon="-3.01009">
        <ele>100</ele>
        <time>2025-06-07T06:59:04Z</time>
      </trkpt>
      <trkpt lat="48.59734" lon="-3.00944">
        <ele>101</ele>
        <time>2025-06-07T06:59:16Z</time>
      </trkpt>
      <trkpt lat="48.597" lon="-3.00926">
        <ele>102</ele>
        <time>2025-06-07T06:59:22Z</time>
      </trkpt>
      <trkpt lat="48.59638" lon="-3.00916">
        <ele>102</ele>
        <time>2025-06-07T06:59:33Z</time>
      </trkpt>
      <trkpt lat="48.59579" lon="-3.00925">
        <ele>101</ele>
        <time>2025-06-07T06:59:44Z</time>
      </trkpt>
      <trkpt lat="48.59521" lon="-3.00914">
        <ele>100</ele>
        <time>2025-06-07T06:59:54Z</time>
      </trkpt>
      <trkpt lat="48.59514" lon="-3.00912">
        <ele>100</ele>
        <time>2025-06-07T06:59:55Z</time>
      </trkpt>
      <trkpt lat="48.59462" lon="-3.00888">
        <ele>100</ele>
        <time>2025-06-07T07:00:05Z</time>
      </trkpt>
      <trkpt lat="48.59312" lon="-3.00727">
        <ele>101</ele>
        <time>2025-06-07T07:00:38Z</time>
      </trkpt>
      <trkpt lat="48.59221" lon="-3.00637">
        <ele>101</ele>
        <time>2025-06-07T07:00:57Z</time>
      </trkpt>
      <trkpt lat="48.59136" lon="-3.00596">
        <ele>101</ele>
        <time>2025-06-07T07:01:13Z</time>
      </trkpt>
      <trkpt lat="48.59012" lon="-3.00507">
        <ele>102</ele>
        <time>2025-06-07T07:01:37Z</time>
      </trkpt>
      <trkpt lat="48.5896" lon="-3.00467">
        <ele>102</ele>
        <time>2025-06-07T07:01:48Z</time>
      </trkpt>
      <trkpt lat="48.5889" lon="-3.00461">
        <ele>101</ele>
        <time>2025-06-07T07:02:00Z</time>
      </trkpt>
      <trkpt lat="48.58811" lon="-3.00437">
        <ele>100</ele>
        <time>2025-06-07T07:02:15Z</time>
      </trkpt>
      <trkpt lat="48.5873" lon="-3.00429">
        <ele>100</ele>
        <time>2025-06-07T07:02:29Z</time>
      </trkpt>
      <trkpt lat="48.58684" lon="-3.00431">
        <ele>101</ele>
        <time>2025-06-07T07:02:37Z</time>
      </trkpt>
      <trkpt lat="48.58416" lon="-3.00543">
        <ele>103</ele>
        <time>2025-06-07T07:03:27Z</time>
      </trkpt>
      <trkpt lat="48.58391" lon="-3.00554">
        <ele>103</ele>
        <time>2025-06-07T07:03:31Z</time>
      </trkpt>
      <trkpt lat="48.58292" lon="-3.00614">
        <ele>104</ele>
        <time>2025-06-07T07:03:50Z</time>
      </trkpt>
      <trkpt lat="48.58273" lon="-3.00612">
        <ele>104</ele>
        <time>2025-06-07T07:03:54Z</time>
      </trkpt>
      <trkpt lat="48.58149" lon="-3.00554">
        <ele>104</ele>
        <time>2025-06-07T07:04:17Z</time>
      </trkpt>
      <trkpt lat="48.58098" lon="-3.00532">
        <ele>105</ele>
        <time>2025-06-07T07:04:26Z</time>
      </trkpt>
      <trkpt lat="48.58035" lon="-3.0051">
        <ele>106</ele>
        <time>2025-06-07T07:04:38Z</time>
      </trkpt>
      <trkpt lat="48.5795" lon="-3.00487">
        <ele>107</ele>
        <time>2025-06-07T07:04:53Z</time>
      </trkpt>
      <trkpt lat="48.57871" lon="-3.00467">
        <ele>109</ele>
        <time>2025-06-07T07:05:07Z</time>
      </trkpt>
      <trkpt lat="48.57844" lon="-3.00467">
        <ele>110</ele>
        <time>2025-06-07T07:05:12Z</time>
      </trkpt>
      <trkpt lat="48.57801" lon="-3.00473">
        <ele>110</ele>
        <time>2025-06-07T07:05:20Z</time>
      </trkpt>
      <trkpt lat="48.57783" lon="-3.00463">
        <ele>111</ele>
        <time>2025-06-07T07:05:23Z</time>
      </trkpt>
      <trkpt lat="48.57746" lon="-3.00428">
        <ele>113</ele>
        <time>2025-06-07T07:05:31Z</time>
      </trkpt>
      <trkpt lat="48.57695" lon="-3.00361">
        <ele>118</ele>
        <time>2025-06-07T07:05:43Z</time>
      </trkpt>
      <trkpt lat="48.57677" lon="-3.00347">
        <ele>119</ele>
        <time>2025-06-07T07:05:47Z</time>
      </trkpt>
      <trkpt lat="48.57669" lon="-3.00341">
        <ele>120</ele>
        <time>2025-06-07T07:05:48Z</time>
      </trkpt>
      <trkpt lat="48.57647" lon="-3.00336">
        <ele>120</ele>
        <time>2025-06-07T07:05:52Z</time>
      </trkpt>
      <trkpt lat="48.57602" lon="-3.00322">
        <ele>120</ele>
        <time>2025-06-07T07:06:00Z</time>
      </trkpt>
      <trkpt lat="48.57586" lon="-3.00314">
        <ele>120</ele>
        <time>2025-06-07T07:06:03Z</time>
      </trkpt>
      <trkpt lat="48.57484" lon="-3.00414">
        <ele>119</ele>
        <time>2025-06-07T07:06:25Z</time>
      </trkpt>
      <trkpt lat="48.57445" lon="-3.00458">
        <ele>119</ele>
        <time>2025-06-07T07:06:34Z</time>
      </trkpt>
      <trkpt lat="48.57432" lon="-3.00474">
        <ele>119</ele>
        <time>2025-06-07T07:06:37Z</time>
      </trkpt>
      <trkpt lat="48.57368" lon="-3.00578">
        <ele>116</ele>
        <time>2025-06-07T07:06:53Z</time>
      </trkpt>
      <trkpt lat="48.57275" lon="-3.0079">
        <ele>113</ele>
        <time>2025-06-07T07:07:23Z</time>
      </trkpt>
      <trkpt lat="48.57198" lon="-3.00834">
        <ele>114</ele>
        <time>2025-06-07T07:07:38Z</time>
      </trkpt>
      <trkpt lat="48.57157" lon="-3.00906">
        <ele>114</ele>
        <time>2025-06-07T07:07:49Z</time>
      </trkpt>
      <trkpt lat="48.5712" lon="-3.00962">
        <ele>114</ele>
        <time>2025-06-07T07:07:58Z</time>
      </trkpt>
      <trkpt lat="48.57096" lon="-3.01034">
        <ele>115</ele>
        <time>2025-06-07T07:08:08Z</time>
      </trkpt>
      <trkpt lat="48.57065" lon="-3.01091">
        <ele>116</ele>
        <time>2025-06-07T07:08:17Z</time>
      </trkpt>
      <trkpt lat="48.57014" lon="-3.01143">
        <ele>117</ele>
        <time>2025-06-07T07:08:28Z</time>
      </trkpt>
      <trkpt lat="48.56926" lon="-3.01183">
        <ele>115</ele>
        <time>2025-06-07T07:08:44Z</time>
      </trkpt>
      <trkpt lat="48.5689" lon="-3.01232">
        <ele>116</ele>
        <time>2025-06-07T07:08:53Z</time>
      </trkpt>
      <trkpt lat="48.56833" lon="-3.01321">
        <ele>120</ele>
        <time>2025-06-07T07:09:07Z</time>
      </trkpt>
      <trkpt lat="48.5674" lon="-3.01421">
        <ele>119</ele>
        <time>2025-06-07T07:09:27Z</time>
      </trkpt>
      <trkpt lat="48.5672" lon="-3.0145">
        <ele>119</ele>
        <time>2025-06-07T07:09:32Z</time>
      </trkpt>
      <trkpt lat="48.56703" lon="-3.01477">
        <ele>119</ele>
        <time>2025-06-07T07:09:37Z</time>
      </trkpt>
      <trkpt lat="48.56689" lon="-3.01502">
        <ele>119</ele>
        <time>2025-06-07T07:09:41Z</time>
      </trkpt>
      <trkpt lat="48.56633" lon="-3.01638">
        <ele>119</ele>
        <time>2025-06-07T07:10:00Z</time>
      </trkpt>
      <trkpt lat="48.56616" lon="-3.01689">
        <ele>119</ele>
        <time>2025-06-07T07:10:06Z</time>
      </trkpt>
      <trkpt lat="48.56597" lon="-3.01776">
        <ele>119</ele>
        <time>2025-06-07T07:10:17Z</time>
      </trkpt>
      <trkpt lat="48.56588" lon="-3.01824">
        <ele>120</ele>
        <time>2025-06-07T07:10:23Z</time>
      </trkpt>
      <trkpt lat="48.56564" lon="-3.0192">
        <ele>121</ele>
        <time>2025-06-07T07:10:35Z</time>
      </trkpt>
      <trkpt lat="48.56556" lon="-3.01955">
        <ele>121</ele>
        <time>2025-06-07T07:10:39Z</time>
      </trkpt>
      <trkpt lat="48.56534" lon="-3.02027">
        <ele>123</ele>
        <time>2025-06-07T07:10:49Z</time>
      </trkpt>
      <trkpt lat="48.56517" lon="-3.0206">
        <ele>124</ele>
        <time>2025-06-07T07:10:54Z</time>
      </trkpt>
      <trkpt lat="48.56508" lon="-3.02083">
        <ele>125</ele>
        <time>2025-06-07T07:10:57Z</time>
      </trkpt>
      <trkpt lat="48.56476" lon="-3.0207">
        <ele>125</ele>
        <time>2025-06-07T07:11:03Z</time>
      </trkpt>
      <trkpt lat="48.56443" lon="-3.02057">
        <ele>125</ele>
        <time>2025-06-07T07:11:09Z</time>
      </trkpt>
      <trkpt lat="48.56388" lon="-3.02019">
        <ele>126</ele>
        <time>2025-06-07T07:11:19Z</time>
      </trkpt>
      <trkpt lat="48.56325" lon="-3.02002">
        <ele>127</ele>
        <time>2025-06-07T07:11:31Z</time>
      </trkpt>
      <trkpt lat="48.56305" lon="-3.02001">
        <ele>127</ele>
        <time>2025-06-07T07:11:34Z</time>
      </trkpt>
      <trkpt lat="48.56291" lon="-3.02003">
        <ele>128</ele>
        <time>2025-06-07T07:11:37Z</time>
      </trkpt>
      <trkpt lat="48.56149" lon="-3.02043">
        <ele>130</ele>
        <time>2025-06-07T07:12:03Z</time>
      </trkpt>
      <trkpt lat="48.56081" lon="-3.02063">
        <ele>129</ele>
        <time>2025-06-07T07:12:15Z</time>
      </trkpt>
      <trkpt lat="48.56064" lon="-3.02071">
        <ele>129</ele>
        <time>2025-06-07T07:12:18Z</time>
      </trkpt>
      <trkpt lat="48.5598" lon="-3.02142">
        <ele>127</ele>
        <time>2025-06-07T07:12:35Z</time>
      </trkpt>
      <trkpt lat="48.55876" lon="-3.02232">
        <ele>128</ele>
        <time>2025-06-07T07:12:57Z</time>
      </trkpt>
      <trkpt lat="48.55864" lon="-3.02239">
        <ele>129</ele>
        <time>2025-06-07T07:12:59Z</time>
      </trkpt>
      <trkpt lat="48.55863" lon="-3.02254">
        <ele>129</ele>
        <time>2025-06-07T07:13:01Z</time>
      </trkpt>
      <trkpt lat="48.55831" lon="-3.02266">
        <ele>130</ele>
        <time>2025-06-07T07:13:06Z</time>
      </trkpt>
      <trkpt lat="48.55758" lon="-3.02257">
        <ele>129</ele>
        <time>2025-06-07T07:13:20Z</time>
      </trkpt>
      <trkpt lat="48.55681" lon="-3.02237">
        <ele>131</ele>
        <time>2025-06-07T07:13:33Z</time>
      </trkpt>
      <trkpt lat="48.55612" lon="-3.02175">
        <ele>132</ele>
        <time>2025-06-07T07:13:48Z</time>
      </trkpt>
      <trkpt lat="48.55588" lon="-3.02158">
        <ele>133</ele>
        <time>2025-06-07T07:13:52Z</time>
      </trkpt>
      <trkpt lat="48.55581" lon="-3.02153">
        <ele>133</ele>
        <time>2025-06-07T07:13:54Z</time>
      </trkpt>
      <trkpt lat="48.55537" lon="-3.02111">
        <ele>134</ele>
        <time>2025-06-07T07:14:03Z</time>
      </trkpt>
      <trkpt lat="48.55517" lon="-3.02093">
        <ele>135</ele>
        <time>2025-06-07T07:14:07Z</time>
      </trkpt>
      <trkpt lat="48.55469" lon="-3.02081">
        <ele>135</ele>
        <time>2025-06-07T07:14:16Z</time>
      </trkpt>
      <trkpt lat="48.55411" lon="-3.02063">
        <ele>134</ele>
        <time>2025-06-07T07:14:26Z</time>
      </trkpt>
      <trkpt lat="48.55386" lon="-3.02062">
        <ele>134</ele>
        <time>2025-06-07T07:14:31Z</time>
      </trkpt>
      <trkpt lat="48.55314" lon="-3.02069">
        <ele>133</ele>
        <time>2025-06-07T07:14:44Z</time>
      </trkpt>
      <trkpt lat="48.55291" lon="-3.0205">
        <ele>133</ele>
        <time>2025-06-07T07:14:48Z</time>
      </trkpt>
      <trkpt lat="48.55271" lon="-3.02005">
        <ele>133</ele>
        <time>2025-06-07T07:14:55Z</time>
      </trkpt>
      <trkpt lat="48.55264" lon="-3.01965">
        <ele>132</ele>
        <time>2025-06-07T07:15:00Z</time>
      </trkpt>
      <trkpt lat="48.55255" lon="-3.01847">
        <ele>126</ele>
        <time>2025-06-07T07:15:14Z</time>
      </trkpt>
      <trkpt lat="48.55248" lon="-3.01808">
        <ele>123</ele>
        <time>2025-06-07T07:15:18Z</time>
      </trkpt>
      <trkpt lat="48.55225" lon="-3.01727">
        <ele>121</ele>
        <time>2025-06-07T07:15:29Z</time>
      </trkpt>
      <trkpt lat="48.552" lon="-3.01657">
        <ele>122</ele>
        <time>2025-06-07T07:15:38Z</time>
      </trkpt>
      <trkpt lat="48.55191" lon="-3.01637">
        <ele>123</ele>
        <time>2025-06-07T07:15:41Z</time>
      </trkpt>
      <trkpt lat="48.55189" lon="-3.01632">
        <ele>123</ele>
        <time>2025-06-07T07:15:42Z</time>
      </trkpt>
      <trkpt lat="48.55175" lon="-3.0161">
        <ele>124</ele>
        <time>2025-06-07T07:15:45Z</time>
      </trkpt>
      <trkpt lat="48.55134" lon="-3.01575">
        <ele>126</ele>
        <time>2025-06-07T07:15:54Z</time>
      </trkpt>
      <trkpt lat="48.55127" lon="-3.01566">
        <ele>126</ele>
        <time>2025-06-07T07:15:55Z</time>
      </trkpt>
      <trkpt lat="48.55117" lon="-3.01546">
        <ele>127</ele>
        <time>2025-06-07T07:15:58Z</time>
      </trkpt>
      <trkpt lat="48.55076" lon="-3.0143">
        <ele>128</ele>
        <time>2025-06-07T07:16:14Z</time>
      </trkpt>
      <trkpt lat="48.55004" lon="-3.01306">
        <ele>132</ele>
        <time>2025-06-07T07:16:33Z</time>
      </trkpt>
      <trkpt lat="48.54987" lon="-3.0127">
        <ele>132</ele>
        <time>2025-06-07T07:16:38Z</time>
      </trkpt>
      <trkpt lat="48.54971" lon="-3.0122">
        <ele>134</ele>
        <time>2025-06-07T07:16:45Z</time>
      </trkpt>
      <trkpt lat="48.54969" lon="-3.01213">
        <ele>134</ele>
        <time>2025-06-07T07:16:46Z</time>
      </trkpt>
      <trkpt lat="48.5496" lon="-3.01173">
        <ele>134</ele>
        <time>2025-06-07T07:16:51Z</time>
      </trkpt>
      <trkpt lat="48.54946" lon="-3.01128">
        <ele>135</ele>
        <time>2025-06-07T07:16:57Z</time>
      </trkpt>
      <trkpt lat="48.54909" lon="-3.0103">
        <ele>136</ele>
        <time>2025-06-07T07:17:10Z</time>
      </trkpt>
      <trkpt lat="48.54888" lon="-3.00969">
        <ele>136</ele>
        <time>2025-06-07T07:17:18Z</time>
      </trkpt>
      <trkpt lat="48.54868" lon="-3.00888">
        <ele>136</ele>
        <time>2025-06-07T07:17:28Z</time>
      </trkpt>
      <trkpt lat="48.5486" lon="-3.00833">
        <ele>136</ele>
        <time>2025-06-07T07:17:35Z</time>
      </trkpt>
      <trkpt lat="48.54854" lon="-3.00767">
        <ele>135</ele>
        <time>2025-06-07T07:17:43Z</time>
      </trkpt>
      <trkpt lat="48.54852" lon="-3.00716">
        <ele>135</ele>
        <time>2025-06-07T07:17:49Z</time>
      </trkpt>
      <trkpt lat="48.5485" lon="-3.00624">
        <ele>135</ele>
        <time>2025-06-07T07:18:00Z</time>
      </trkpt>
      <trkpt lat="48.54852" lon="-3.0053">
        <ele>135</ele>
        <time>2025-06-07T07:18:11Z</time>
      </trkpt>
      <trkpt lat="48.54861" lon="-3.00422">
        <ele>134</ele>
        <time>2025-06-07T07:18:23Z</time>
      </trkpt>
      <trkpt lat="48.5486" lon="-3.00361">
        <ele>134</ele>
        <time>2025-06-07T07:18:31Z</time>
      </trkpt>
      <trkpt lat="48.54857" lon="-3.00341">
        <ele>134</ele>
        <time>2025-06-07T07:18:33Z</time>
      </trkpt>
      <trkpt lat="48.54853" lon="-3.00319">
        <ele>134</ele>
        <time>2025-06-07T07:18:36Z</time>
      </trkpt>
      <trkpt lat="48.54823" lon="-3.00214">
        <ele>132</ele>
        <time>2025-06-07T07:18:49Z</time>
      </trkpt>
      <trkpt lat="48.54807" lon="-3.00118">
        <ele>130</ele>
        <time>2025-06-07T07:19:01Z</time>
      </trkpt>
      <trkpt lat="48.54805" lon="-3.00106">
        <ele>129</ele>
        <time>2025-06-07T07:19:02Z</time>
      </trkpt>
      <trkpt lat="48.54762" lon="-3.00127">
        <ele>130</ele>
        <time>2025-06-07T07:19:10Z</time>
      </trkpt>
      <trkpt lat="48.54704" lon="-3.00171">
        <ele>132</ele>
        <time>2025-06-07T07:19:22Z</time>
      </trkpt>
      <trkpt lat="48.54664" lon="-3.00193">
        <ele>134</ele>
        <time>2025-06-07T07:19:29Z</time>
      </trkpt>
      <trkpt lat="48.54629" lon="-3.00215">
        <ele>135</ele>
        <time>2025-06-07T07:19:36Z</time>
      </trkpt>
      <trkpt lat="48.54614" lon="-3.0022">
        <ele>135</ele>
        <time>2025-06-07T07:19:39Z</time>
      </trkpt>
      <trkpt lat="48.54599" lon="-3.00218">
        <ele>136</ele>
        <time>2025-06-07T07:19:42Z</time>
      </trkpt>
      <trkpt lat="48.54514" lon="-3.00188">
        <ele>136</ele>
        <time>2025-06-07T07:19:57Z</time>
      </trkpt>
      <trkpt lat="48.54466" lon="-3.00165">
        <ele>136</ele>
        <time>2025-06-07T07:20:06Z</time>
      </trkpt>
      <trkpt lat="48.54395" lon="-3.00145">
        <ele>135</ele>
        <time>2025-06-07T07:20:19Z</time>
      </trkpt>
      <trkpt lat="48.54369" lon="-3.00133">
        <ele>135</ele>
        <time>2025-06-07T07:20:24Z</time>
      </trkpt>
      <trkpt lat="48.54326" lon="-3.00097">
        <ele>136</ele>
        <time>2025-06-07T07:20:33Z</time>
      </trkpt>
      <trkpt lat="48.54288" lon="-3.0007">
        <ele>137</ele>
        <time>2025-06-07T07:20:40Z</time>
      </trkpt>
      <trkpt lat="48.54269" lon="-3.00059">
        <ele>137</ele>
        <time>2025-06-07T07:20:44Z</time>
      </trkpt>
      <trkpt lat="48.54252" lon="-3.00053">
        <ele>138</ele>
        <time>2025-06-07T07:20:47Z</time>
      </trkpt>
      <trkpt lat="48.54223" lon="-3.00053">
        <ele>138</ele>
        <time>2025-06-07T07:20:52Z</time>
      </trkpt>
      <trkpt lat="48.54185" lon="-3.00054">
        <ele>138</ele>
        <time>2025-06-07T07:20:59Z</time>
      </trkpt>
      <trkpt lat="48.54156" lon="-3.00049">
        <ele>138</ele>
        <time>2025-06-07T07:21:04Z</time>
      </trkpt>
      <trkpt lat="48.54113" lon="-3.00039">
        <ele>138</ele>
        <time>2025-06-07T07:21:12Z</time>
      </trkpt>
      <trkpt lat="48.54021" lon="-3.00017">
        <ele>138</ele>
        <time>2025-06-07T07:21:28Z</time>
      </trkpt>
      <trkpt lat="48.53987" lon="-3.00013">
        <ele>138</ele>
        <time>2025-06-07T07:21:34Z</time>
      </trkpt>
      <trkpt lat="48.53957" lon="-3.00016">
        <ele>138</ele>
        <time>2025-06-07T07:21:40Z</time>
      </trkpt>
      <trkpt lat="48.53954" lon="-3.00016">
        <ele>138</ele>
        <time>2025-06-07T07:21:40Z</time>
      </trkpt>
      <trkpt lat="48.53933" lon="-3.00018">
        <ele>138</ele>
        <time>2025-06-07T07:21:44Z</time>
      </trkpt>
      <trkpt lat="48.53894" lon="-3.0002">
        <ele>139</ele>
        <time>2025-06-07T07:21:51Z</time>
      </trkpt>
      <trkpt lat="48.53883" lon="-3.00021">
        <ele>139</ele>
        <time>2025-06-07T07:21:53Z</time>
      </trkpt>
      <trkpt lat="48.53852" lon="-3.00014">
        <ele>139</ele>
        <time>2025-06-07T07:21:58Z</time>
      </trkpt>
      <trkpt lat="48.53849" lon="-3.00013">
        <ele>139</ele>
        <time>2025-06-07T07:21:59Z</time>
      </trkpt>
      <trkpt lat="48.53795" lon="-2.99988">
        <ele>140</ele>
        <time>2025-06-07T07:22:09Z</time>
      </trkpt>
      <trkpt lat="48.53747" lon="-2.99965">
        <ele>142</ele>
        <time>2025-06-07T07:22:18Z</time>
      </trkpt>
      <trkpt lat="48.5373" lon="-2.9996">
        <ele>143</ele>
        <time>2025-06-07T07:22:21Z</time>
      </trkpt>
      <trkpt lat="48.53718" lon="-2.9996">
        <ele>143</ele>
        <time>2025-06-07T07:22:23Z</time>
      </trkpt>
      <trkpt lat="48.53705" lon="-2.99964">
        <ele>144</ele>
        <time>2025-06-07T07:22:25Z</time>
      </trkpt>
      <trkpt lat="48.53667" lon="-2.99987">
        <ele>146</ele>
        <time>2025-06-07T07:22:33Z</time>
      </trkpt>
      <trkpt lat="48.53639" lon="-3.00006">
        <ele>144</ele>
        <time>2025-06-07T07:22:38Z</time>
      </trkpt>
      <trkpt lat="48.53633" lon="-3.00008">
        <ele>144</ele>
        <time>2025-06-07T07:22:39Z</time>
      </trkpt>
      <trkpt lat="48.5363" lon="-3.00008">
        <ele>144</ele>
        <time>2025-06-07T07:22:40Z</time>
      </trkpt>
      <trkpt lat="48.53631" lon="-2.99973">
        <ele>143</ele>
        <time>2025-06-07T07:22:44Z</time>
      </trkpt>
      <trkpt lat="48.53633" lon="-2.99934">
        <ele>143</ele>
        <time>2025-06-07T07:22:49Z</time>
      </trkpt>
      <trkpt lat="48.53635" lon="-2.99922">
        <ele>143</ele>
        <time>2025-06-07T07:22:50Z</time>
      </trkpt>
      <trkpt lat="48.53602" lon="-2.99907">
        <ele>141</ele>
        <time>2025-06-07T07:22:56Z</time>
      </trkpt>
      <trkpt lat="48.53569" lon="-2.99901">
        <ele>140</ele>
        <time>2025-06-07T07:23:02Z</time>
      </trkpt>
      <trkpt lat="48.53538" lon="-2.99887">
        <ele>137</ele>
        <time>2025-06-07T07:23:08Z</time>
      </trkpt>
      <trkpt lat="48.53463" lon="-2.99853">
        <ele>133</ele>
        <time>2025-06-07T07:23:22Z</time>
      </trkpt>
      <trkpt lat="48.53426" lon="-2.99822">
        <ele>131</ele>
        <time>2025-06-07T07:23:29Z</time>
      </trkpt>
      <trkpt lat="48.53379" lon="-2.99793">
        <ele>128</ele>
        <time>2025-06-07T07:23:38Z</time>
      </trkpt>
      <trkpt lat="48.5328" lon="-2.99764">
        <ele>124</ele>
        <time>2025-06-07T07:23:56Z</time>
      </trkpt>
      <trkpt lat="48.5324" lon="-2.99755">
        <ele>124</ele>
        <time>2025-06-07T07:24:03Z</time>
      </trkpt>
      <trkpt lat="48.53203" lon="-2.99731">
        <ele>123</ele>
        <time>2025-06-07T07:24:11Z</time>
      </trkpt>
      <trkpt lat="48.53182" lon="-2.99698">
        <ele>123</ele>
        <time>2025-06-07T07:24:16Z</time>
      </trkpt>
      <trkpt lat="48.53159" lon="-2.99668">
        <ele>123</ele>
        <time>2025-06-07T07:24:21Z</time>
      </trkpt>
      <trkpt lat="48.53111" lon="-2.9957">
        <ele>125</ele>
        <time>2025-06-07T07:24:36Z</time>
      </trkpt>
      <trkpt lat="48.53088" lon="-2.99544">
        <ele>126</ele>
        <time>2025-06-07T07:24:41Z</time>
      </trkpt>
      <trkpt lat="48.53064" lon="-2.99533">
        <ele>126</ele>
        <time>2025-06-07T07:24:45Z</time>
      </trkpt>
      <trkpt lat="48.53051" lon="-2.9953">
        <ele>126</ele>
        <time>2025-06-07T07:24:48Z</time>
      </trkpt>
      <trkpt lat="48.53048" lon="-2.9953">
        <ele>126</ele>
        <time>2025-06-07T07:24:48Z</time>
      </trkpt>
      <trkpt lat="48.53012" lon="-2.99524">
        <ele>126</ele>
        <time>2025-06-07T07:24:55Z</time>
      </trkpt>
      <trkpt lat="48.53002" lon="-2.99523">
        <ele>126</ele>
        <time>2025-06-07T07:24:56Z</time>
      </trkpt>
      <trkpt lat="48.52907" lon="-2.99496">
        <ele>130</ele>
        <time>2025-06-07T07:25:14Z</time>
      </trkpt>
      <trkpt lat="48.52852" lon="-2.99504">
        <ele>130</ele>
        <time>2025-06-07T07:25:24Z</time>
      </trkpt>
      <trkpt lat="48.52807" lon="-2.9949">
        <ele>130</ele>
        <time>2025-06-07T07:25:32Z</time>
      </trkpt>
      <trkpt lat="48.52693" lon="-2.99449">
        <ele>130</ele>
        <time>2025-06-07T07:25:53Z</time>
      </trkpt>
      <trkpt lat="48.52626" lon="-2.99418">
        <ele>130</ele>
        <time>2025-06-07T07:26:05Z</time>
      </trkpt>
      <trkpt lat="48.52617" lon="-2.99403">
        <ele>130</ele>
        <time>2025-06-07T07:26:07Z</time>
      </trkpt>
      <trkpt lat="48.52564" lon="-2.99321">
        <ele>131</ele>
        <time>2025-06-07T07:26:21Z</time>
      </trkpt>
      <trkpt lat="48.52507" lon="-2.99237">
        <ele>133</ele>
        <time>2025-06-07T07:26:35Z</time>
      </trkpt>
      <trkpt lat="48.52466" lon="-2.99189">
        <ele>133</ele>
        <time>2025-06-07T07:26:44Z</time>
      </trkpt>
      <trkpt lat="48.5243" lon="-2.99167">
        <ele>134</ele>
        <time>2025-06-07T07:26:51Z</time>
      </trkpt>
      <trkpt lat="48.52397" lon="-2.99157">
        <ele>134</ele>
        <time>2025-06-07T07:26:57Z</time>
      </trkpt>
      <trkpt lat="48.52369" lon="-2.99162">
        <ele>134</ele>
        <time>2025-06-07T07:27:02Z</time>
      </trkpt>
      <trkpt lat="48.5235" lon="-2.99169">
        <ele>134</ele>
        <time>2025-06-07T07:27:06Z</time>
      </trkpt>
      <trkpt lat="48.52327" lon="-2.99163">
        <ele>134</ele>
        <time>2025-06-07T07:27:10Z</time>
      </trkpt>
      <trkpt lat="48.52286" lon="-2.99138">
        <ele>133</ele>
        <time>2025-06-07T07:27:18Z</time>
      </trkpt>
      <trkpt lat="48.52205" lon="-2.99092">
        <ele>132</ele>
        <time>2025-06-07T07:27:33Z</time>
      </trkpt>
      <trkpt lat="48.52142" lon="-2.99059">
        <ele>132</ele>
        <time>2025-06-07T07:27:45Z</time>
      </trkpt>
      <trkpt lat="48.52117" lon="-2.99057">
        <ele>132</ele>
        <time>2025-06-07T07:27:49Z</time>
      </trkpt>
      <trkpt lat="48.52027" lon="-2.99063">
        <ele>133</ele>
        <time>2025-06-07T07:28:05Z</time>
      </trkpt>
      <trkpt lat="48.51948" lon="-2.99056">
        <ele>135</ele>
        <time>2025-06-07T07:28:20Z</time>
      </trkpt>
      <trkpt lat="48.5186" lon="-2.99047">
        <ele>137</ele>
        <time>2025-06-07T07:28:35Z</time>
      </trkpt>
      <trkpt lat="48.51815" lon="-2.99039">
        <ele>137</ele>
        <time>2025-06-07T07:28:43Z</time>
      </trkpt>
      <trkpt lat="48.51701" lon="-2.9899">
        <ele>141</ele>
        <time>2025-06-07T07:29:04Z</time>
      </trkpt>
      <trkpt lat="48.5162" lon="-2.98974">
        <ele>144</ele>
        <time>2025-06-07T07:29:19Z</time>
      </trkpt>
      <trkpt lat="48.51479" lon="-2.98904">
        <ele>147</ele>
        <time>2025-06-07T07:29:45Z</time>
      </trkpt>
      <trkpt lat="48.51473" lon="-2.98901">
        <ele>147</ele>
        <time>2025-06-07T07:29:46Z</time>
      </trkpt>
      <trkpt lat="48.51401" lon="-2.98891">
        <ele>149</ele>
        <time>2025-06-07T07:29:59Z</time>
      </trkpt>
      <trkpt lat="48.51238" lon="-2.98885">
        <ele>152</ele>
        <time>2025-06-07T07:30:28Z</time>
      </trkpt>
      <trkpt lat="48.51202" lon="-2.98867">
        <ele>152</ele>
        <time>2025-06-07T07:30:35Z</time>
      </trkpt>
      <trkpt lat="48.5117" lon="-2.98837">
        <ele>153</ele>
        <time>2025-06-07T07:30:42Z</time>
      </trkpt>
      <trkpt lat="48.51144" lon="-2.98794">
        <ele>154</ele>
        <time>2025-06-07T07:30:49Z</time>
      </trkpt>
      <trkpt lat="48.51128" lon="-2.98743">
        <ele>153</ele>
        <time>2025-06-07T07:30:55Z</time>
      </trkpt>
      <trkpt lat="48.51124" lon="-2.98709">
        <ele>153</ele>
        <time>2025-06-07T07:30:59Z</time>
      </trkpt>
      <trkpt lat="48.51122" lon="-2.98687">
        <ele>153</ele>
        <time>2025-06-07T07:31:02Z</time>
      </trkpt>
      <trkpt lat="48.51128" lon="-2.98627">
        <ele>152</ele>
        <time>2025-06-07T07:31:09Z</time>
      </trkpt>
      <trkpt lat="48.51131" lon="-2.98615">
        <ele>152</ele>
        <time>2025-06-07T07:31:11Z</time>
      </trkpt>
      <trkpt lat="48.51138" lon="-2.98589">
        <ele>151</ele>
        <time>2025-06-07T07:31:14Z</time>
      </trkpt>
      <trkpt lat="48.51158" lon="-2.9855">
        <ele>150</ele>
        <time>2025-06-07T07:31:20Z</time>
      </trkpt>
      <trkpt lat="48.51188" lon="-2.98517">
        <ele>149</ele>
        <time>2025-06-07T07:31:26Z</time>
      </trkpt>
      <trkpt lat="48.51198" lon="-2.9849">
        <ele>149</ele>
        <time>2025-06-07T07:31:30Z</time>
      </trkpt>
      <trkpt lat="48.51204" lon="-2.98445">
        <ele>149</ele>
        <time>2025-06-07T07:31:35Z</time>
      </trkpt>
      <trkpt lat="48.51205" lon="-2.98417">
        <ele>149</ele>
        <time>2025-06-07T07:31:39Z</time>
      </trkpt>
      <trkpt lat="48.51183" lon="-2.98375">
        <ele>149</ele>
        <time>2025-06-07T07:31:45Z</time>
      </trkpt>
      <trkpt lat="48.51166" lon="-2.98293">
        <ele>148</ele>
        <time>2025-06-07T07:31:55Z</time>
      </trkpt>
      <trkpt lat="48.51156" lon="-2.98218">
        <ele>147</ele>
        <time>2025-06-07T07:32:04Z</time>
      </trkpt>
      <trkpt lat="48.5116" lon="-2.98146">
        <ele>147</ele>
        <time>2025-06-07T07:32:13Z</time>
      </trkpt>
      <trkpt lat="48.51169" lon="-2.98131">
        <ele>147</ele>
        <time>2025-06-07T07:32:15Z</time>
      </trkpt>
      <trkpt lat="48.51181" lon="-2.98117">
        <ele>147</ele>
        <time>2025-06-07T07:32:18Z</time>
      </trkpt>
      <trkpt lat="48.51191" lon="-2.98107">
        <ele>147</ele>
        <time>2025-06-07T07:32:20Z</time>
      </trkpt>
      <trkpt lat="48.51199" lon="-2.98094">
        <ele>147</ele>
        <time>2025-06-07T07:32:22Z</time>
      </trkpt>
      <trkpt lat="48.51215" lon="-2.9805">
        <ele>148</ele>
        <time>2025-06-07T07:32:28Z</time>
      </trkpt>
      <trkpt lat="48.51236" lon="-2.98024">
        <ele>148</ele>
        <time>2025-06-07T07:32:33Z</time>
      </trkpt>
      <trkpt lat="48.51262" lon="-2.97999">
        <ele>149</ele>
        <time>2025-06-07T07:32:38Z</time>
      </trkpt>
      <trkpt lat="48.5127" lon="-2.97952">
        <ele>150</ele>
        <time>2025-06-07T07:32:44Z</time>
      </trkpt>
      <trkpt lat="48.51276" lon="-2.97858">
        <ele>152</ele>
        <time>2025-06-07T07:32:55Z</time>
      </trkpt>
      <trkpt lat="48.51272" lon="-2.97826">
        <ele>152</ele>
        <time>2025-06-07T07:32:59Z</time>
      </trkpt>
      <trkpt lat="48.51271" lon="-2.97819">
        <ele>152</ele>
        <time>2025-06-07T07:33:00Z</time>
      </trkpt>
      <trkpt lat="48.5124" lon="-2.9777">
        <ele>154</ele>
        <time>2025-06-07T07:33:08Z</time>
      </trkpt>
      <trkpt lat="48.51153" lon="-2.97699">
        <ele>154</ele>
        <time>2025-06-07T07:33:25Z</time>
      </trkpt>
      <trkpt lat="48.51148" lon="-2.9768">
        <ele>153</ele>
        <time>2025-06-07T07:33:28Z</time>
      </trkpt>
      <trkpt lat="48.51136" lon="-2.97633">
        <ele>152</ele>
        <time>2025-06-07T07:33:34Z</time>
      </trkpt>
      <trkpt lat="48.51127" lon="-2.97581">
        <ele>149</ele>
        <time>2025-06-07T07:33:40Z</time>
      </trkpt>
      <trkpt lat="48.51123" lon="-2.97514">
        <ele>147</ele>
        <time>2025-06-07T07:33:48Z</time>
      </trkpt>
      <trkpt lat="48.51126" lon="-2.97448">
        <ele>143</ele>
        <time>2025-06-07T07:33:56Z</time>
      </trkpt>
      <trkpt lat="48.51138" lon="-2.97388">
        <ele>141</ele>
        <time>2025-06-07T07:34:03Z</time>
      </trkpt>
      <trkpt lat="48.5116" lon="-2.97243">
        <ele>137</ele>
        <time>2025-06-07T07:34:21Z</time>
      </trkpt>
      <trkpt lat="48.51175" lon="-2.97155">
        <ele>135</ele>
        <time>2025-06-07T07:34:31Z</time>
      </trkpt>
      <trkpt lat="48.51186" lon="-2.97091">
        <ele>134</ele>
        <time>2025-06-07T07:34:39Z</time>
      </trkpt>
      <trkpt lat="48.51198" lon="-2.96976">
        <ele>132</ele>
        <time>2025-06-07T07:34:53Z</time>
      </trkpt>
      <trkpt lat="48.51211" lon="-2.9684">
        <ele>131</ele>
        <time>2025-06-07T07:35:09Z</time>
      </trkpt>
      <trkpt lat="48.51231" lon="-2.96721">
        <ele>132</ele>
        <time>2025-06-07T07:35:24Z</time>
      </trkpt>
      <trkpt lat="48.5125" lon="-2.96637">
        <ele>131</ele>
        <time>2025-06-07T07:35:34Z</time>
      </trkpt>
      <trkpt lat="48.51284" lon="-2.965">
        <ele>128</ele>
        <time>2025-06-07T07:35:51Z</time>
      </trkpt>
      <trkpt lat="48.51293" lon="-2.96435">
        <ele>128</ele>
        <time>2025-06-07T07:35:59Z</time>
      </trkpt>
      <trkpt lat="48.51288" lon="-2.96338">
        <ele>129</ele>
        <time>2025-06-07T07:36:11Z</time>
      </trkpt>
      <trkpt lat="48.5127" lon="-2.96231">
        <ele>127</ele>
        <time>2025-06-07T07:36:24Z</time>
      </trkpt>
      <trkpt lat="48.51259" lon="-2.96183">
        <ele>126</ele>
        <time>2025-06-07T07:36:30Z</time>
      </trkpt>
      <trkpt lat="48.51256" lon="-2.96165">
        <ele>125</ele>
        <time>2025-06-07T07:36:32Z</time>
      </trkpt>
      <trkpt lat="48.51255" lon="-2.96149">
        <ele>124</ele>
        <time>2025-06-07T07:36:34Z</time>
      </trkpt>
      <trkpt lat="48.51255" lon="-2.9612">
        <ele>123</ele>
        <time>2025-06-07T07:36:37Z</time>
      </trkpt>
      <trkpt lat="48.5126" lon="-2.96028">
        <ele>121</ele>
        <time>2025-06-07T07:36:48Z</time>
      </trkpt>
      <trkpt lat="48.51262" lon="-2.96021">
        <ele>120</ele>
        <time>2025-06-07T07:36:49Z</time>
      </trkpt>
      <trkpt lat="48.51281" lon="-2.95962">
        <ele>119</ele>
        <time>2025-06-07T07:36:57Z</time>
      </trkpt>
      <trkpt lat="48.51348" lon="-2.95779">
        <ele>119</ele>
        <time>2025-06-07T07:37:21Z</time>
      </trkpt>
      <trkpt lat="48.51359" lon="-2.95746">
        <ele>119</ele>
        <time>2025-06-07T07:37:26Z</time>
      </trkpt>
      <trkpt lat="48.51369" lon="-2.95637">
        <ele>118</ele>
        <time>2025-06-07T07:37:39Z</time>
      </trkpt>
      <trkpt lat="48.51394" lon="-2.9555">
        <ele>117</ele>
        <time>2025-06-07T07:37:50Z</time>
      </trkpt>
      <trkpt lat="48.51419" lon="-2.95476">
        <ele>116</ele>
        <time>2025-06-07T07:38:00Z</time>
      </trkpt>
      <trkpt lat="48.51436" lon="-2.95359">
        <ele>118</ele>
        <time>2025-06-07T07:38:14Z</time>
      </trkpt>
      <trkpt lat="48.51448" lon="-2.95252">
        <ele>120</ele>
        <time>2025-06-07T07:38:26Z</time>
      </trkpt>
      <trkpt lat="48.51447" lon="-2.9524">
        <ele>120</ele>
        <time>2025-06-07T07:38:28Z</time>
      </trkpt>
      <trkpt lat="48.51446" lon="-2.95224">
        <ele>120</ele>
        <time>2025-06-07T07:38:30Z</time>
      </trkpt>
      <trkpt lat="48.51442" lon="-2.95187">
        <ele>120</ele>
        <time>2025-06-07T07:38:34Z</time>
      </trkpt>
      <trkpt lat="48.51442" lon="-2.95134">
        <ele>121</ele>
        <time>2025-06-07T07:38:40Z</time>
      </trkpt>
      <trkpt lat="48.51449" lon="-2.95069">
        <ele>123</ele>
        <time>2025-06-07T07:38:48Z</time>
      </trkpt>
      <trkpt lat="48.51452" lon="-2.95048">
        <ele>124</ele>
        <time>2025-06-07T07:38:51Z</time>
      </trkpt>
      <trkpt lat="48.51456" lon="-2.95009">
        <ele>125</ele>
        <time>2025-06-07T07:38:55Z</time>
      </trkpt>
      <trkpt lat="48.51451" lon="-2.94968">
        <ele>127</ele>
        <time>2025-06-07T07:39:00Z</time>
      </trkpt>
      <trkpt lat="48.51457" lon="-2.94953">
        <ele>127</ele>
        <time>2025-06-07T07:39:02Z</time>
      </trkpt>
      <trkpt lat="48.51466" lon="-2.9493">
        <ele>128</ele>
        <time>2025-06-07T07:39:06Z</time>
      </trkpt>
      <trkpt lat="48.51507" lon="-2.94849">
        <ele>128</ele>
        <time>2025-06-07T07:39:18Z</time>
      </trkpt>
      <trkpt lat="48.5153" lon="-2.94813">
        <ele>127</ele>
        <time>2025-06-07T07:39:23Z</time>
      </trkpt>
      <trkpt lat="48.51561" lon="-2.94771">
        <ele>128</ele>
        <time>2025-06-07T07:39:31Z</time>
      </trkpt>
      <trkpt lat="48.51609" lon="-2.94733">
        <ele>127</ele>
        <time>2025-06-07T07:39:40Z</time>
      </trkpt>
      <trkpt lat="48.51645" lon="-2.94717">
        <ele>126</ele>
        <time>2025-06-07T07:39:47Z</time>
      </trkpt>
      <trkpt lat="48.51691" lon="-2.94707">
        <ele>125</ele>
        <time>2025-06-07T07:39:55Z</time>
      </trkpt>
      <trkpt lat="48.51738" lon="-2.94692">
        <ele>123</ele>
        <time>2025-06-07T07:40:04Z</time>
      </trkpt>
      <trkpt lat="48.51793" lon="-2.94664">
        <ele>123</ele>
        <time>2025-06-07T07:40:14Z</time>
      </trkpt>
      <trkpt lat="48.51836" lon="-2.94654">
        <ele>124</ele>
        <time>2025-06-07T07:40:22Z</time>
      </trkpt>
      <trkpt lat="48.51896" lon="-2.94645">
        <ele>125</ele>
        <time>2025-06-07T07:40:33Z</time>
      </trkpt>
      <trkpt lat="48.51996" lon="-2.94629">
        <ele>127</ele>
        <time>2025-06-07T07:40:51Z</time>
      </trkpt>
      <trkpt lat="48.52045" lon="-2.94613">
        <ele>128</ele>
        <time>2025-06-07T07:41:00Z</time>
      </trkpt>
      <trkpt lat="48.52095" lon="-2.94581">
        <ele>129</ele>
        <time>2025-06-07T07:41:09Z</time>
      </trkpt>
      <trkpt lat="48.5221" lon="-2.94491">
        <ele>132</ele>
        <time>2025-06-07T07:41:32Z</time>
      </trkpt>
      <trkpt lat="48.52232" lon="-2.94481">
        <ele>133</ele>
        <time>2025-06-07T07:41:36Z</time>
      </trkpt>
      <trkpt lat="48.52273" lon="-2.94476">
        <ele>133</ele>
        <time>2025-06-07T07:41:44Z</time>
      </trkpt>
      <trkpt lat="48.52292" lon="-2.94461">
        <ele>134</ele>
        <time>2025-06-07T07:41:48Z</time>
      </trkpt>
      <trkpt lat="48.52326" lon="-2.94397">
        <ele>135</ele>
        <time>2025-06-07T07:41:57Z</time>
      </trkpt>
      <trkpt lat="48.52381" lon="-2.94332">
        <ele>136</ele>
        <time>2025-06-07T07:42:10Z</time>
      </trkpt>
      <trkpt lat="48.52415" lon="-2.94311">
        <ele>136</ele>
        <time>2025-06-07T07:42:16Z</time>
      </trkpt>
      <trkpt lat="48.52475" lon="-2.9429">
        <ele>136</ele>
        <time>2025-06-07T07:42:27Z</time>
      </trkpt>
      <trkpt lat="48.52568" lon="-2.94282">
        <ele>135</ele>
        <time>2025-06-07T07:42:44Z</time>
      </trkpt>
      <trkpt lat="48.52721" lon="-2.94253">
        <ele>134</ele>
        <time>2025-06-07T07:43:11Z</time>
      </trkpt>
      <trkpt lat="48.52785" lon="-2.94249">
        <ele>134</ele>
        <time>2025-06-07T07:43:23Z</time>
      </trkpt>
      <trkpt lat="48.52853" lon="-2.93538">
        <ele>140</ele>
        <time>2025-06-07T07:44:47Z</time>
      </trkpt>
      <trkpt lat="48.52868" lon="-2.93419">
        <ele>139</ele>
        <time>2025-06-07T07:45:01Z</time>
      </trkpt>
      <trkpt lat="48.52912" lon="-2.9324">
        <ele>134</ele>
        <time>2025-06-07T07:45:24Z</time>
      </trkpt>
      <trkpt lat="48.52954" lon="-2.93079">
        <ele>129</ele>
        <time>2025-06-07T07:45:44Z</time>
      </trkpt>
      <trkpt lat="48.52957" lon="-2.93081">
        <ele>129</ele>
        <time>2025-06-07T07:45:45Z</time>
      </trkpt>
      <trkpt lat="48.52954" lon="-2.93079">
        <ele>129</ele>
        <time>2025-06-07T07:45:45Z</time>
      </trkpt>
      <trkpt lat="48.52882" lon="-2.93044">
        <ele>127</ele>
        <time>2025-06-07T07:45:59Z</time>
      </trkpt>
      <trkpt lat="48.52831" lon="-2.9302">
        <ele>125</ele>
        <time>2025-06-07T07:46:08Z</time>
      </trkpt>
      <trkpt lat="48.52811" lon="-2.93013">
        <ele>124</ele>
        <time>2025-06-07T07:46:12Z</time>
      </trkpt>
      <trkpt lat="48.52789" lon="-2.93009">
        <ele>124</ele>
        <time>2025-06-07T07:46:16Z</time>
      </trkpt>
      <trkpt lat="48.5276" lon="-2.93012">
        <ele>124</ele>
        <time>2025-06-07T07:46:21Z</time>
      </trkpt>
      <trkpt lat="48.52716" lon="-2.93027">
        <ele>124</ele>
        <time>2025-06-07T07:46:29Z</time>
      </trkpt>
      <trkpt lat="48.52693" lon="-2.93026">
        <ele>124</ele>
        <time>2025-06-07T07:46:33Z</time>
      </trkpt>
      <trkpt lat="48.52667" lon="-2.93018">
        <ele>124</ele>
        <time>2025-06-07T07:46:38Z</time>
      </trkpt>
      <trkpt lat="48.52645" lon="-2.93003">
        <ele>125</ele>
        <time>2025-06-07T07:46:42Z</time>
      </trkpt>
      <trkpt lat="48.52591" lon="-2.92958">
        <ele>126</ele>
        <time>2025-06-07T07:46:53Z</time>
      </trkpt>
      <trkpt lat="48.52577" lon="-2.9295">
        <ele>127</ele>
        <time>2025-06-07T07:46:56Z</time>
      </trkpt>
      <trkpt lat="48.5256" lon="-2.92947">
        <ele>127</ele>
        <time>2025-06-07T07:46:59Z</time>
      </trkpt>
      <trkpt lat="48.52539" lon="-2.92951">
        <ele>127</ele>
        <time>2025-06-07T07:47:03Z</time>
      </trkpt>
      <trkpt lat="48.5249" lon="-2.92962">
        <ele>128</ele>
        <time>2025-06-07T07:47:12Z</time>
      </trkpt>
      <trkpt lat="48.52472" lon="-2.92963">
        <ele>128</ele>
        <time>2025-06-07T07:47:15Z</time>
      </trkpt>
      <trkpt lat="48.52457" lon="-2.9296">
        <ele>129</ele>
        <time>2025-06-07T07:47:18Z</time>
      </trkpt>
      <trkpt lat="48.52358" lon="-2.9293">
        <ele>130</ele>
        <time>2025-06-07T07:47:35Z</time>
      </trkpt>
      <trkpt lat="48.52333" lon="-2.92916">
        <ele>130</ele>
        <time>2025-06-07T07:47:40Z</time>
      </trkpt>
      <trkpt lat="48.52274" lon="-2.92871">
        <ele>128</ele>
        <time>2025-06-07T07:47:52Z</time>
      </trkpt>
      <trkpt lat="48.52253" lon="-2.92859">
        <ele>128</ele>
        <time>2025-06-07T07:47:56Z</time>
      </trkpt>
      <trkpt lat="48.52233" lon="-2.92853">
        <ele>128</ele>
        <time>2025-06-07T07:48:00Z</time>
      </trkpt>
      <trkpt lat="48.52124" lon="-2.92833">
        <ele>129</ele>
        <time>2025-06-07T07:48:19Z</time>
      </trkpt>
      <trkpt lat="48.52105" lon="-2.92825">
        <ele>130</ele>
        <time>2025-06-07T07:48:23Z</time>
      </trkpt>
      <trkpt lat="48.52082" lon="-2.92812">
        <ele>131</ele>
        <time>2025-06-07T07:48:27Z</time>
      </trkpt>
      <trkpt lat="48.51994" lon="-2.92747">
        <ele>136</ele>
        <time>2025-06-07T07:48:44Z</time>
      </trkpt>
      <trkpt lat="48.51965" lon="-2.92721">
        <ele>137</ele>
        <time>2025-06-07T07:48:50Z</time>
      </trkpt>
      <trkpt lat="48.51899" lon="-2.9265">
        <ele>140</ele>
        <time>2025-06-07T07:49:05Z</time>
      </trkpt>
      <trkpt lat="48.51871" lon="-2.92618">
        <ele>141</ele>
        <time>2025-06-07T07:49:11Z</time>
      </trkpt>
      <trkpt lat="48.51859" lon="-2.92605">
        <ele>141</ele>
        <time>2025-06-07T07:49:14Z</time>
      </trkpt>
      <trkpt lat="48.51831" lon="-2.92579">
        <ele>142</ele>
        <time>2025-06-07T07:49:20Z</time>
      </trkpt>
      <trkpt lat="48.51769" lon="-2.9252">
        <ele>143</ele>
        <time>2025-06-07T07:49:33Z</time>
      </trkpt>
      <trkpt lat="48.5175" lon="-2.92503">
        <ele>143</ele>
        <time>2025-06-07T07:49:37Z</time>
      </trkpt>
      <trkpt lat="48.51702" lon="-2.92458">
        <ele>142</ele>
        <time>2025-06-07T07:49:47Z</time>
      </trkpt>
      <trkpt lat="48.51593" lon="-2.92357">
        <ele>143</ele>
        <time>2025-06-07T07:50:09Z</time>
      </trkpt>
      <trkpt lat="48.51558" lon="-2.9232">
        <ele>143</ele>
        <time>2025-06-07T07:50:17Z</time>
      </trkpt>
      <trkpt lat="48.5155" lon="-2.92308">
        <ele>144</ele>
        <time>2025-06-07T07:50:19Z</time>
      </trkpt>
      <trkpt lat="48.51541" lon="-2.92292">
        <ele>144</ele>
        <time>2025-06-07T07:50:21Z</time>
      </trkpt>
      <trkpt lat="48.51522" lon="-2.92258">
        <ele>144</ele>
        <time>2025-06-07T07:50:27Z</time>
      </trkpt>
      <trkpt lat="48.51502" lon="-2.92222">
        <ele>145</ele>
        <time>2025-06-07T07:50:32Z</time>
      </trkpt>
      <trkpt lat="48.51475" lon="-2.92172">
        <ele>146</ele>
        <time>2025-06-07T07:50:40Z</time>
      </trkpt>
      <trkpt lat="48.51462" lon="-2.92156">
        <ele>146</ele>
        <time>2025-06-07T07:50:43Z</time>
      </trkpt>
      <trkpt lat="48.51447" lon="-2.9214">
        <ele>147</ele>
        <time>2025-06-07T07:50:46Z</time>
      </trkpt>
      <trkpt lat="48.51421" lon="-2.92121">
        <ele>148</ele>
        <time>2025-06-07T07:50:51Z</time>
      </trkpt>
      <trkpt lat="48.51395" lon="-2.92108">
        <ele>148</ele>
        <time>2025-06-07T07:50:56Z</time>
      </trkpt>
      <trkpt lat="48.51379" lon="-2.92097">
        <ele>148</ele>
        <time>2025-06-07T07:50:59Z</time>
      </trkpt>
      <trkpt lat="48.5136" lon="-2.92079">
        <ele>148</ele>
        <time>2025-06-07T07:51:03Z</time>
      </trkpt>
      <trkpt lat="48.51298" lon="-2.9199">
        <ele>150</ele>
        <time>2025-06-07T07:51:18Z</time>
      </trkpt>
      <trkpt lat="48.51284" lon="-2.91965">
        <ele>150</ele>
        <time>2025-06-07T07:51:22Z</time>
      </trkpt>
      <trkpt lat="48.51274" lon="-2.91945">
        <ele>149</ele>
        <time>2025-06-07T07:51:25Z</time>
      </trkpt>
      <trkpt lat="48.51242" lon="-2.91857">
        <ele>152</ele>
        <time>2025-06-07T07:51:37Z</time>
      </trkpt>
      <trkpt lat="48.51226" lon="-2.9182">
        <ele>153</ele>
        <time>2025-06-07T07:51:42Z</time>
      </trkpt>
      <trkpt lat="48.51214" lon="-2.91799">
        <ele>153</ele>
        <time>2025-06-07T07:51:46Z</time>
      </trkpt>
      <trkpt lat="48.51196" lon="-2.9178">
        <ele>153</ele>
        <time>2025-06-07T07:51:49Z</time>
      </trkpt>
      <trkpt lat="48.5118" lon="-2.91768">
        <ele>153</ele>
        <time>2025-06-07T07:51:53Z</time>
      </trkpt>
      <trkpt lat="48.5116" lon="-2.91758">
        <ele>154</ele>
        <time>2025-06-07T07:51:56Z</time>
      </trkpt>
      <trkpt lat="48.51114" lon="-2.91741">
        <ele>156</ele>
        <time>2025-06-07T07:52:05Z</time>
      </trkpt>
      <trkpt lat="48.511" lon="-2.91735">
        <ele>157</ele>
        <time>2025-06-07T07:52:07Z</time>
      </trkpt>
      <trkpt lat="48.5108" lon="-2.91718">
        <ele>159</ele>
        <time>2025-06-07T07:52:12Z</time>
      </trkpt>
      <trkpt lat="48.51059" lon="-2.91698">
        <ele>160</ele>
        <time>2025-06-07T07:52:16Z</time>
      </trkpt>
      <trkpt lat="48.51023" lon="-2.91671">
        <ele>162</ele>
        <time>2025-06-07T07:52:23Z</time>
      </trkpt>
      <trkpt lat="48.50994" lon="-2.91664">
        <ele>162</ele>
        <time>2025-06-07T07:52:28Z</time>
      </trkpt>
      <trkpt lat="48.50964" lon="-2.91664">
        <ele>163</ele>
        <time>2025-06-07T07:52:34Z</time>
      </trkpt>
      <trkpt lat="48.50945" lon="-2.91661">
        <ele>163</ele>
        <time>2025-06-07T07:52:37Z</time>
      </trkpt>
      <trkpt lat="48.50929" lon="-2.91655">
        <ele>163</ele>
        <time>2025-06-07T07:52:40Z</time>
      </trkpt>
      <trkpt lat="48.50913" lon="-2.91642">
        <ele>164</ele>
        <time>2025-06-07T07:52:43Z</time>
      </trkpt>
      <trkpt lat="48.50889" lon="-2.91604">
        <ele>167</ele>
        <time>2025-06-07T07:52:49Z</time>
      </trkpt>
      <trkpt lat="48.50869" lon="-2.91559">
        <ele>168</ele>
        <time>2025-06-07T07:52:56Z</time>
      </trkpt>
      <trkpt lat="48.50863" lon="-2.91541">
        <ele>168</ele>
        <time>2025-06-07T07:52:58Z</time>
      </trkpt>
      <trkpt lat="48.50809" lon="-2.91541">
        <ele>170</ele>
        <time>2025-06-07T07:53:08Z</time>
      </trkpt>
      <trkpt lat="48.50801" lon="-2.91546">
        <ele>170</ele>
        <time>2025-06-07T07:53:09Z</time>
      </trkpt>
      <trkpt lat="48.50784" lon="-2.91545">
        <ele>170</ele>
        <time>2025-06-07T07:53:12Z</time>
      </trkpt>
      <trkpt lat="48.50772" lon="-2.91542">
        <ele>170</ele>
        <time>2025-06-07T07:53:15Z</time>
      </trkpt>
      <trkpt lat="48.50759" lon="-2.91536">
        <ele>171</ele>
        <time>2025-06-07T07:53:17Z</time>
      </trkpt>
      <trkpt lat="48.5075" lon="-2.91529">
        <ele>171</ele>
        <time>2025-06-07T07:53:19Z</time>
      </trkpt>
      <trkpt lat="48.50747" lon="-2.91511">
        <ele>172</ele>
        <time>2025-06-07T07:53:21Z</time>
      </trkpt>
      <trkpt lat="48.50741" lon="-2.91507">
        <ele>172</ele>
        <time>2025-06-07T07:53:22Z</time>
      </trkpt>
      <trkpt lat="48.50716" lon="-2.91495">
        <ele>174</ele>
        <time>2025-06-07T07:53:27Z</time>
      </trkpt>
      <trkpt lat="48.50687" lon="-2.91484">
        <ele>176</ele>
        <time>2025-06-07T07:53:32Z</time>
      </trkpt>
      <trkpt lat="48.50663" lon="-2.91477">
        <ele>178</ele>
        <time>2025-06-07T07:53:36Z</time>
      </trkpt>
      <trkpt lat="48.50615" lon="-2.91472">
        <ele>181</ele>
        <time>2025-06-07T07:53:45Z</time>
      </trkpt>
      <trkpt lat="48.50594" lon="-2.91472">
        <ele>182</ele>
        <time>2025-06-07T07:53:49Z</time>
      </trkpt>
      <trkpt lat="48.50568" lon="-2.91477">
        <ele>184</ele>
        <time>2025-06-07T07:53:53Z</time>
      </trkpt>
      <trkpt lat="48.50552" lon="-2.91475">
        <ele>184</ele>
        <time>2025-06-07T07:53:56Z</time>
      </trkpt>
      <trkpt lat="48.50538" lon="-2.91468">
        <ele>185</ele>
        <time>2025-06-07T07:53:59Z</time>
      </trkpt>
      <trkpt lat="48.50511" lon="-2.91441">
        <ele>186</ele>
        <time>2025-06-07T07:54:05Z</time>
      </trkpt>
      <trkpt lat="48.50473" lon="-2.91373">
        <ele>186</ele>
        <time>2025-06-07T07:54:15Z</time>
      </trkpt>
      <trkpt lat="48.50409" lon="-2.91295">
        <ele>186</ele>
        <time>2025-06-07T07:54:30Z</time>
      </trkpt>
      <trkpt lat="48.50394" lon="-2.91269">
        <ele>185</ele>
        <time>2025-06-07T07:54:34Z</time>
      </trkpt>
      <trkpt lat="48.5038" lon="-2.91233">
        <ele>185</ele>
        <time>2025-06-07T07:54:39Z</time>
      </trkpt>
      <trkpt lat="48.50353" lon="-2.9117">
        <ele>183</ele>
        <time>2025-06-07T07:54:48Z</time>
      </trkpt>
      <trkpt lat="48.50304" lon="-2.91062">
        <ele>183</ele>
        <time>2025-06-07T07:55:03Z</time>
      </trkpt>
      <trkpt lat="48.50291" lon="-2.91018">
        <ele>184</ele>
        <time>2025-06-07T07:55:09Z</time>
      </trkpt>
      <trkpt lat="48.50273" lon="-2.90924">
        <ele>187</ele>
        <time>2025-06-07T07:55:20Z</time>
      </trkpt>
      <trkpt lat="48.50264" lon="-2.90895">
        <ele>188</ele>
        <time>2025-06-07T07:55:24Z</time>
      </trkpt>
      <trkpt lat="48.50248" lon="-2.9087">
        <ele>188</ele>
        <time>2025-06-07T07:55:28Z</time>
      </trkpt>
      <trkpt lat="48.50224" lon="-2.90847">
        <ele>189</ele>
        <time>2025-06-07T07:55:33Z</time>
      </trkpt>
      <trkpt lat="48.50155" lon="-2.90794">
        <ele>191</ele>
        <time>2025-06-07T07:55:47Z</time>
      </trkpt>
      <trkpt lat="48.50039" lon="-2.90698">
        <ele>191</ele>
        <time>2025-06-07T07:56:10Z</time>
      </trkpt>
      <trkpt lat="48.50003" lon="-2.90677">
        <ele>190</ele>
        <time>2025-06-07T07:56:17Z</time>
      </trkpt>
      <trkpt lat="48.49899" lon="-2.90633">
        <ele>188</ele>
        <time>2025-06-07T07:56:37Z</time>
      </trkpt>
      <trkpt lat="48.49846" lon="-2.90585">
        <ele>189</ele>
        <time>2025-06-07T07:56:48Z</time>
      </trkpt>
      <trkpt lat="48.49803" lon="-2.90543">
        <ele>190</ele>
        <time>2025-06-07T07:56:57Z</time>
      </trkpt>
      <trkpt lat="48.4973" lon="-2.90471">
        <ele>190</ele>
        <time>2025-06-07T07:57:12Z</time>
      </trkpt>
      <trkpt lat="48.49628" lon="-2.90366">
        <ele>185</ele>
        <time>2025-06-07T07:57:34Z</time>
      </trkpt>
      <trkpt lat="48.49614" lon="-2.90348">
        <ele>184</ele>
        <time>2025-06-07T07:57:37Z</time>
      </trkpt>
      <trkpt lat="48.49601" lon="-2.90329">
        <ele>183</ele>
        <time>2025-06-07T07:57:41Z</time>
      </trkpt>
      <trkpt lat="48.4959" lon="-2.90302">
        <ele>184</ele>
        <time>2025-06-07T07:57:44Z</time>
      </trkpt>
      <trkpt lat="48.49548" lon="-2.90126">
        <ele>186</ele>
        <time>2025-06-07T07:58:06Z</time>
      </trkpt>
      <trkpt lat="48.4954" lon="-2.90076">
        <ele>188</ele>
        <time>2025-06-07T07:58:12Z</time>
      </trkpt>
      <trkpt lat="48.49524" lon="-2.89926">
        <ele>192</ele>
        <time>2025-06-07T07:58:30Z</time>
      </trkpt>
      <trkpt lat="48.49513" lon="-2.89881">
        <ele>194</ele>
        <time>2025-06-07T07:58:36Z</time>
      </trkpt>
      <trkpt lat="48.49499" lon="-2.89844">
        <ele>196</ele>
        <time>2025-06-07T07:58:41Z</time>
      </trkpt>
      <trkpt lat="48.49479" lon="-2.89812">
        <ele>198</ele>
        <time>2025-06-07T07:58:46Z</time>
      </trkpt>
      <trkpt lat="48.49449" lon="-2.89769">
        <ele>199</ele>
        <time>2025-06-07T07:58:54Z</time>
      </trkpt>
      <trkpt lat="48.49432" lon="-2.89742">
        <ele>200</ele>
        <time>2025-06-07T07:58:58Z</time>
      </trkpt>
      <trkpt lat="48.49361" lon="-2.89631">
        <ele>205</ele>
        <time>2025-06-07T07:59:16Z</time>
      </trkpt>
      <trkpt lat="48.49339" lon="-2.89606">
        <ele>206</ele>
        <time>2025-06-07T07:59:21Z</time>
      </trkpt>
      <trkpt lat="48.4932" lon="-2.89591">
        <ele>206</ele>
        <time>2025-06-07T07:59:25Z</time>
      </trkpt>
      <trkpt lat="48.49298" lon="-2.8958">
        <ele>206</ele>
        <time>2025-06-07T07:59:29Z</time>
      </trkpt>
      <trkpt lat="48.49269" lon="-2.89572">
        <ele>205</ele>
        <time>2025-06-07T07:59:34Z</time>
      </trkpt>
      <trkpt lat="48.49195" lon="-2.89563">
        <ele>204</ele>
        <time>2025-06-07T07:59:48Z</time>
      </trkpt>
      <trkpt lat="48.49171" lon="-2.8955">
        <ele>204</ele>
        <time>2025-06-07T07:59:52Z</time>
      </trkpt>
      <trkpt lat="48.49153" lon="-2.89535">
        <ele>204</ele>
        <time>2025-06-07T07:59:56Z</time>
      </trkpt>
      <trkpt lat="48.49116" lon="-2.89487">
        <ele>204</ele>
        <time>2025-06-07T08:00:04Z</time>
      </trkpt>
      <trkpt lat="48.49096" lon="-2.89467">
        <ele>204</ele>
        <time>2025-06-07T08:00:09Z</time>
      </trkpt>
      <trkpt lat="48.49054" lon="-2.89438">
        <ele>204</ele>
        <time>2025-06-07T08:00:17Z</time>
      </trkpt>
      <trkpt lat="48.48984" lon="-2.89389">
        <ele>204</ele>
        <time>2025-06-07T08:00:31Z</time>
      </trkpt>
      <trkpt lat="48.4894" lon="-2.89363">
        <ele>204</ele>
        <time>2025-06-07T08:00:39Z</time>
      </trkpt>
      <trkpt lat="48.48916" lon="-2.89353">
        <ele>205</ele>
        <time>2025-06-07T08:00:43Z</time>
      </trkpt>
      <trkpt lat="48.48895" lon="-2.89349">
        <ele>205</ele>
        <time>2025-06-07T08:00:47Z</time>
      </trkpt>
      <trkpt lat="48.4886" lon="-2.8935">
        <ele>205</ele>
        <time>2025-06-07T08:00:53Z</time>
      </trkpt>
      <trkpt lat="48.48825" lon="-2.89361">
        <ele>204</ele>
        <time>2025-06-07T08:01:00Z</time>
      </trkpt>
      <trkpt lat="48.48576" lon="-2.89435">
        <ele>202</ele>
        <time>2025-06-07T08:01:45Z</time>
      </trkpt>
      <trkpt lat="48.48533" lon="-2.89453">
        <ele>201</ele>
        <time>2025-06-07T08:01:53Z</time>
      </trkpt>
      <trkpt lat="48.48431" lon="-2.8951">
        <ele>199</ele>
        <time>2025-06-07T08:02:12Z</time>
      </trkpt>
      <trkpt lat="48.48413" lon="-2.89516">
        <ele>198</ele>
        <time>2025-06-07T08:02:16Z</time>
      </trkpt>
      <trkpt lat="48.48386" lon="-2.89516">
        <ele>198</ele>
        <time>2025-06-07T08:02:20Z</time>
      </trkpt>
      <trkpt lat="48.48354" lon="-2.89509">
        <ele>197</ele>
        <time>2025-06-07T08:02:26Z</time>
      </trkpt>
      <trkpt lat="48.48325" lon="-2.89498">
        <ele>197</ele>
        <time>2025-06-07T08:02:31Z</time>
      </trkpt>
      <trkpt lat="48.48253" lon="-2.89456">
        <ele>199</ele>
        <time>2025-06-07T08:02:45Z</time>
      </trkpt>
      <trkpt lat="48.48231" lon="-2.89448">
        <ele>200</ele>
        <time>2025-06-07T08:02:49Z</time>
      </trkpt>
      <trkpt lat="48.48205" lon="-2.89446">
        <ele>200</ele>
        <time>2025-06-07T08:02:54Z</time>
      </trkpt>
      <trkpt lat="48.48172" lon="-2.89454">
        <ele>200</ele>
        <time>2025-06-07T08:03:00Z</time>
      </trkpt>
      <trkpt lat="48.48098" lon="-2.89482">
        <ele>200</ele>
        <time>2025-06-07T08:03:13Z</time>
      </trkpt>
      <trkpt lat="48.48004" lon="-2.89512">
        <ele>201</ele>
        <time>2025-06-07T08:03:30Z</time>
      </trkpt>
      <trkpt lat="48.47929" lon="-2.8952">
        <ele>201</ele>
        <time>2025-06-07T08:03:44Z</time>
      </trkpt>
      <trkpt lat="48.47795" lon="-2.89532">
        <ele>201</ele>
        <time>2025-06-07T08:04:08Z</time>
      </trkpt>
      <trkpt lat="48.47711" lon="-2.89535">
        <ele>201</ele>
        <time>2025-06-07T08:04:23Z</time>
      </trkpt>
      <trkpt lat="48.47672" lon="-2.89529">
        <ele>200</ele>
        <time>2025-06-07T08:04:30Z</time>
      </trkpt>
      <trkpt lat="48.47642" lon="-2.89518">
        <ele>200</ele>
        <time>2025-06-07T08:04:35Z</time>
      </trkpt>
      <trkpt lat="48.47586" lon="-2.89487">
        <ele>198</ele>
        <time>2025-06-07T08:04:46Z</time>
      </trkpt>
      <trkpt lat="48.47405" lon="-2.89336">
        <ele>183</ele>
        <time>2025-06-07T08:05:23Z</time>
      </trkpt>
      <trkpt lat="48.47321" lon="-2.89229">
        <ele>176</ele>
        <time>2025-06-07T08:05:42Z</time>
      </trkpt>
      <trkpt lat="48.47288" lon="-2.8918">
        <ele>175</ele>
        <time>2025-06-07T08:05:50Z</time>
      </trkpt>
      <trkpt lat="48.47278" lon="-2.89157">
        <ele>175</ele>
        <time>2025-06-07T08:05:54Z</time>
      </trkpt>
      <trkpt lat="48.47234" lon="-2.89062">
        <ele>179</ele>
        <time>2025-06-07T08:06:07Z</time>
      </trkpt>
      <trkpt lat="48.47217" lon="-2.89022">
        <ele>180</ele>
        <time>2025-06-07T08:06:13Z</time>
      </trkpt>
      <trkpt lat="48.47206" lon="-2.88994">
        <ele>181</ele>
        <time>2025-06-07T08:06:17Z</time>
      </trkpt>
      <trkpt lat="48.47169" lon="-2.88909">
        <ele>182</ele>
        <time>2025-06-07T08:06:29Z</time>
      </trkpt>
      <trkpt lat="48.47158" lon="-2.88877">
        <ele>183</ele>
        <time>2025-06-07T08:06:33Z</time>
      </trkpt>
      <trkpt lat="48.47156" lon="-2.88869">
        <ele>183</ele>
        <time>2025-06-07T08:06:34Z</time>
      </trkpt>
      <trkpt lat="48.47138" lon="-2.88796">
        <ele>185</ele>
        <time>2025-06-07T08:06:43Z</time>
      </trkpt>
      <trkpt lat="48.47133" lon="-2.88778">
        <ele>185</ele>
        <time>2025-06-07T08:06:45Z</time>
      </trkpt>
      <trkpt lat="48.4712" lon="-2.88729">
        <ele>185</ele>
        <time>2025-06-07T08:06:52Z</time>
      </trkpt>
      <trkpt lat="48.47096" lon="-2.88636">
        <ele>183</ele>
        <time>2025-06-07T08:07:03Z</time>
      </trkpt>
      <trkpt lat="48.47083" lon="-2.88607">
        <ele>181</ele>
        <time>2025-06-07T08:07:08Z</time>
      </trkpt>
      <trkpt lat="48.47072" lon="-2.88589">
        <ele>181</ele>
        <time>2025-06-07T08:07:10Z</time>
      </trkpt>
      <trkpt lat="48.4706" lon="-2.88576">
        <ele>181</ele>
        <time>2025-06-07T08:07:13Z</time>
      </trkpt>
      <trkpt lat="48.4703" lon="-2.88548">
        <ele>181</ele>
        <time>2025-06-07T08:07:19Z</time>
      </trkpt>
      <trkpt lat="48.47023" lon="-2.88531">
        <ele>181</ele>
        <time>2025-06-07T08:07:22Z</time>
      </trkpt>
      <trkpt lat="48.47014" lon="-2.885">
        <ele>180</ele>
        <time>2025-06-07T08:07:26Z</time>
      </trkpt>
      <trkpt lat="48.47012" lon="-2.8849">
        <ele>180</ele>
        <time>2025-06-07T08:07:27Z</time>
      </trkpt>
      <trkpt lat="48.47006" lon="-2.88464">
        <ele>179</ele>
        <time>2025-06-07T08:07:30Z</time>
      </trkpt>
      <trkpt lat="48.47001" lon="-2.88443">
        <ele>178</ele>
        <time>2025-06-07T08:07:33Z</time>
      </trkpt>
      <trkpt lat="48.46987" lon="-2.88406">
        <ele>176</ele>
        <time>2025-06-07T08:07:38Z</time>
      </trkpt>
      <trkpt lat="48.4698" lon="-2.88398">
        <ele>175</ele>
        <time>2025-06-07T08:07:39Z</time>
      </trkpt>
      <trkpt lat="48.46967" lon="-2.88386">
        <ele>174</ele>
        <time>2025-06-07T08:07:42Z</time>
      </trkpt>
      <trkpt lat="48.46965" lon="-2.88384">
        <ele>174</ele>
        <time>2025-06-07T08:07:43Z</time>
      </trkpt>
      <trkpt lat="48.46939" lon="-2.88351">
        <ele>172</ele>
        <time>2025-06-07T08:07:49Z</time>
      </trkpt>
      <trkpt lat="48.46934" lon="-2.88345">
        <ele>172</ele>
        <time>2025-06-07T08:07:50Z</time>
      </trkpt>
      <trkpt lat="48.46932" lon="-2.88339">
        <ele>171</ele>
        <time>2025-06-07T08:07:51Z</time>
      </trkpt>
      <trkpt lat="48.46932" lon="-2.88331">
        <ele>171</ele>
        <time>2025-06-07T08:07:51Z</time>
      </trkpt>
      <trkpt lat="48.46935" lon="-2.88319">
        <ele>171</ele>
        <time>2025-06-07T08:07:53Z</time>
      </trkpt>
      <trkpt lat="48.46946" lon="-2.88298">
        <ele>170</ele>
        <time>2025-06-07T08:07:56Z</time>
      </trkpt>
      <trkpt lat="48.46963" lon="-2.88275">
        <ele>170</ele>
        <time>2025-06-07T08:08:00Z</time>
      </trkpt>
      <trkpt lat="48.46969" lon="-2.88269">
        <ele>170</ele>
        <time>2025-06-07T08:08:01Z</time>
      </trkpt>
      <trkpt lat="48.46975" lon="-2.88268">
        <ele>170</ele>
        <time>2025-06-07T08:08:03Z</time>
      </trkpt>
      <trkpt lat="48.4699" lon="-2.88271">
        <ele>170</ele>
        <time>2025-06-07T08:08:05Z</time>
      </trkpt>
      <trkpt lat="48.47007" lon="-2.88271">
        <ele>171</ele>
        <time>2025-06-07T08:08:08Z</time>
      </trkpt>
      <trkpt lat="48.47011" lon="-2.8827">
        <ele>171</ele>
        <time>2025-06-07T08:08:09Z</time>
      </trkpt>
      <trkpt lat="48.47015" lon="-2.88268">
        <ele>171</ele>
        <time>2025-06-07T08:08:10Z</time>
      </trkpt>
      <trkpt lat="48.47019" lon="-2.88264">
        <ele>171</ele>
        <time>2025-06-07T08:08:11Z</time>
      </trkpt>
      <trkpt lat="48.47022" lon="-2.88259">
        <ele>171</ele>
        <time>2025-06-07T08:08:11Z</time>
      </trkpt>
      <trkpt lat="48.47051" lon="-2.88168">
        <ele>173</ele>
        <time>2025-06-07T08:08:23Z</time>
      </trkpt>
      <trkpt lat="48.47062" lon="-2.8813">
        <ele>173</ele>
        <time>2025-06-07T08:08:28Z</time>
      </trkpt>
      <trkpt lat="48.47078" lon="-2.88055">
        <ele>174</ele>
        <time>2025-06-07T08:08:37Z</time>
      </trkpt>
      <trkpt lat="48.47098" lon="-2.87994">
        <ele>174</ele>
        <time>2025-06-07T08:08:46Z</time>
      </trkpt>
      <trkpt lat="48.47126" lon="-2.8793">
        <ele>175</ele>
        <time>2025-06-07T08:08:55Z</time>
      </trkpt>
      <trkpt lat="48.47289" lon="-2.87558">
        <ele>187</ele>
        <time>2025-06-07T08:09:47Z</time>
      </trkpt>
      <trkpt lat="48.47339" lon="-2.87457">
        <ele>191</ele>
        <time>2025-06-07T08:10:02Z</time>
      </trkpt>
      <trkpt lat="48.47364" lon="-2.87412">
        <ele>193</ele>
        <time>2025-06-07T08:10:09Z</time>
      </trkpt>
      <trkpt lat="48.4738" lon="-2.87371">
        <ele>194</ele>
        <time>2025-06-07T08:10:15Z</time>
      </trkpt>
      <trkpt lat="48.47396" lon="-2.87322">
        <ele>195</ele>
        <time>2025-06-07T08:10:21Z</time>
      </trkpt>
      <trkpt lat="48.47386" lon="-2.87314">
        <ele>195</ele>
        <time>2025-06-07T08:10:23Z</time>
      </trkpt>
      <trkpt lat="48.4737" lon="-2.87299">
        <ele>195</ele>
        <time>2025-06-07T08:10:26Z</time>
      </trkpt>
      <trkpt lat="48.47386" lon="-2.87314">
        <ele>195</ele>
        <time>2025-06-07T08:10:30Z</time>
      </trkpt>
      <trkpt lat="48.47396" lon="-2.87322">
        <ele>195</ele>
        <time>2025-06-07T08:10:32Z</time>
      </trkpt>
      <trkpt lat="48.47494" lon="-2.87336">
        <ele>193</ele>
        <time>2025-06-07T08:10:49Z</time>
      </trkpt>
      <trkpt lat="48.47565" lon="-2.87361">
        <ele>195</ele>
        <time>2025-06-07T08:11:02Z</time>
      </trkpt>
      <trkpt lat="48.4761" lon="-2.87398">
        <ele>196</ele>
        <time>2025-06-07T08:11:11Z</time>
      </trkpt>
      <trkpt lat="48.4763" lon="-2.87407">
        <ele>196</ele>
        <time>2025-06-07T08:11:15Z</time>
      </trkpt>
      <trkpt lat="48.47698" lon="-2.87438">
        <ele>198</ele>
        <time>2025-06-07T08:11:28Z</time>
      </trkpt>
      <trkpt lat="48.4773" lon="-2.87443">
        <ele>198</ele>
        <time>2025-06-07T08:11:33Z</time>
      </trkpt>
      <trkpt lat="48.47788" lon="-2.87452">
        <ele>199</ele>
        <time>2025-06-07T08:11:44Z</time>
      </trkpt>
      <trkpt lat="48.47828" lon="-2.87452">
        <ele>200</ele>
        <time>2025-06-07T08:11:51Z</time>
      </trkpt>
      <trkpt lat="48.47914" lon="-2.8749">
        <ele>201</ele>
        <time>2025-06-07T08:12:07Z</time>
      </trkpt>
      <trkpt lat="48.47988" lon="-2.87531">
        <ele>199</ele>
        <time>2025-06-07T08:12:21Z</time>
      </trkpt>
      <trkpt lat="48.48068" lon="-2.87568">
        <ele>199</ele>
        <time>2025-06-07T08:12:36Z</time>
      </trkpt>
      <trkpt lat="48.4807" lon="-2.87562">
        <ele>199</ele>
        <time>2025-06-07T08:12:37Z</time>
      </trkpt>
      <trkpt lat="48.48072" lon="-2.8756">
        <ele>198</ele>
        <time>2025-06-07T08:12:37Z</time>
      </trkpt>
      <trkpt lat="48.48077" lon="-2.87559">
        <ele>198</ele>
        <time>2025-06-07T08:12:38Z</time>
      </trkpt>
      <trkpt lat="48.48079" lon="-2.8756">
        <ele>198</ele>
        <time>2025-06-07T08:12:38Z</time>
      </trkpt>
      <trkpt lat="48.48082" lon="-2.87566">
        <ele>198</ele>
        <time>2025-06-07T08:12:39Z</time>
      </trkpt>
      <trkpt lat="48.48103" lon="-2.87548">
        <ele>198</ele>
        <time>2025-06-07T08:12:43Z</time>
      </trkpt>
      <trkpt lat="48.48118" lon="-2.87539">
        <ele>197</ele>
        <time>2025-06-07T08:12:46Z</time>
      </trkpt>
      <trkpt lat="48.48134" lon="-2.87532">
        <ele>197</ele>
        <time>2025-06-07T08:12:49Z</time>
      </trkpt>
      <trkpt lat="48.48164" lon="-2.87528">
        <ele>197</ele>
        <time>2025-06-07T08:12:55Z</time>
      </trkpt>
      <trkpt lat="48.48179" lon="-2.87528">
        <ele>197</ele>
        <time>2025-06-07T08:12:57Z</time>
      </trkpt>
      <trkpt lat="48.4819" lon="-2.8753">
        <ele>198</ele>
        <time>2025-06-07T08:12:59Z</time>
      </trkpt>
      <trkpt lat="48.48203" lon="-2.87534">
        <ele>198</ele>
        <time>2025-06-07T08:13:02Z</time>
      </trkpt>
      <trkpt lat="48.48219" lon="-2.87541">
        <ele>198</ele>
        <time>2025-06-07T08:13:05Z</time>
      </trkpt>
      <trkpt lat="48.48232" lon="-2.8755">
        <ele>199</ele>
        <time>2025-06-07T08:13:07Z</time>
      </trkpt>
      <trkpt lat="48.48245" lon="-2.87561">
        <ele>199</ele>
        <time>2025-06-07T08:13:10Z</time>
      </trkpt>
      <trkpt lat="48.48276" lon="-2.87593">
        <ele>199</ele>
        <time>2025-06-07T08:13:16Z</time>
      </trkpt>
      <trkpt lat="48.483" lon="-2.87613">
        <ele>199</ele>
        <time>2025-06-07T08:13:21Z</time>
      </trkpt>
      <trkpt lat="48.48318" lon="-2.87626">
        <ele>199</ele>
        <time>2025-06-07T08:13:25Z</time>
      </trkpt>
      <trkpt lat="48.48335" lon="-2.87636">
        <ele>198</ele>
        <time>2025-06-07T08:13:28Z</time>
      </trkpt>
      <trkpt lat="48.48352" lon="-2.87643">
        <ele>198</ele>
        <time>2025-06-07T08:13:31Z</time>
      </trkpt>
      <trkpt lat="48.4837" lon="-2.87649">
        <ele>198</ele>
        <time>2025-06-07T08:13:35Z</time>
      </trkpt>
      <trkpt lat="48.48387" lon="-2.87653">
        <ele>197</ele>
        <time>2025-06-07T08:13:38Z</time>
      </trkpt>
      <trkpt lat="48.48405" lon="-2.87653">
        <ele>196</ele>
        <time>2025-06-07T08:13:41Z</time>
      </trkpt>
      <trkpt lat="48.48427" lon="-2.87652">
        <ele>195</ele>
        <time>2025-06-07T08:13:45Z</time>
      </trkpt>
      <trkpt lat="48.48459" lon="-2.87646">
        <ele>194</ele>
        <time>2025-06-07T08:13:51Z</time>
      </trkpt>
      <trkpt lat="48.48475" lon="-2.8764">
        <ele>194</ele>
        <time>2025-06-07T08:13:53Z</time>
      </trkpt>
      <trkpt lat="48.48494" lon="-2.87629">
        <ele>193</ele>
        <time>2025-06-07T08:13:57Z</time>
      </trkpt>
      <trkpt lat="48.48508" lon="-2.87619">
        <ele>193</ele>
        <time>2025-06-07T08:14:00Z</time>
      </trkpt>
      <trkpt lat="48.48526" lon="-2.87604">
        <ele>192</ele>
        <time>2025-06-07T08:14:03Z</time>
      </trkpt>
      <trkpt lat="48.48545" lon="-2.87584">
        <ele>191</ele>
        <time>2025-06-07T08:14:08Z</time>
      </trkpt>
      <trkpt lat="48.48557" lon="-2.8757">
        <ele>190</ele>
        <time>2025-06-07T08:14:10Z</time>
      </trkpt>
      <trkpt lat="48.48616" lon="-2.8749">
        <ele>184</ele>
        <time>2025-06-07T08:14:24Z</time>
      </trkpt>
      <trkpt lat="48.48644" lon="-2.87458">
        <ele>182</ele>
        <time>2025-06-07T08:14:31Z</time>
      </trkpt>
      <trkpt lat="48.48661" lon="-2.8744">
        <ele>180</ele>
        <time>2025-06-07T08:14:34Z</time>
      </trkpt>
      <trkpt lat="48.48674" lon="-2.8743">
        <ele>179</ele>
        <time>2025-06-07T08:14:37Z</time>
      </trkpt>
      <trkpt lat="48.48894" lon="-2.87304">
        <ele>163</ele>
        <time>2025-06-07T08:15:19Z</time>
      </trkpt>
      <trkpt lat="48.48907" lon="-2.87298">
        <ele>162</ele>
        <time>2025-06-07T08:15:21Z</time>
      </trkpt>
      <trkpt lat="48.48921" lon="-2.87297">
        <ele>162</ele>
        <time>2025-06-07T08:15:24Z</time>
      </trkpt>
      <trkpt lat="48.48935" lon="-2.87298">
        <ele>162</ele>
        <time>2025-06-07T08:15:26Z</time>
      </trkpt>
      <trkpt lat="48.48947" lon="-2.87302">
        <ele>162</ele>
        <time>2025-06-07T08:15:28Z</time>
      </trkpt>
      <trkpt lat="48.48959" lon="-2.87308">
        <ele>162</ele>
        <time>2025-06-07T08:15:31Z</time>
      </trkpt>
      <trkpt lat="48.48967" lon="-2.87315">
        <ele>162</ele>
        <time>2025-06-07T08:15:32Z</time>
      </trkpt>
      <trkpt lat="48.48976" lon="-2.87323">
        <ele>162</ele>
        <time>2025-06-07T08:15:34Z</time>
      </trkpt>
      <trkpt lat="48.48984" lon="-2.87335">
        <ele>162</ele>
        <time>2025-06-07T08:15:36Z</time>
      </trkpt>
      <trkpt lat="48.48991" lon="-2.87347">
        <ele>163</ele>
        <time>2025-06-07T08:15:38Z</time>
      </trkpt>
      <trkpt lat="48.48998" lon="-2.87361">
        <ele>163</ele>
        <time>2025-06-07T08:15:40Z</time>
      </trkpt>
      <trkpt lat="48.4901" lon="-2.87399">
        <ele>165</ele>
        <time>2025-06-07T08:15:45Z</time>
      </trkpt>
      <trkpt lat="48.49028" lon="-2.87469">
        <ele>170</ele>
        <time>2025-06-07T08:15:54Z</time>
      </trkpt>
      <trkpt lat="48.49039" lon="-2.87504">
        <ele>172</ele>
        <time>2025-06-07T08:15:59Z</time>
      </trkpt>
      <trkpt lat="48.49056" lon="-2.8754">
        <ele>173</ele>
        <time>2025-06-07T08:16:04Z</time>
      </trkpt>
      <trkpt lat="48.49072" lon="-2.87567">
        <ele>174</ele>
        <time>2025-06-07T08:16:08Z</time>
      </trkpt>
      <trkpt lat="48.49092" lon="-2.87599">
        <ele>174</ele>
        <time>2025-06-07T08:16:13Z</time>
      </trkpt>
      <trkpt lat="48.49107" lon="-2.87617">
        <ele>174</ele>
        <time>2025-06-07T08:16:17Z</time>
      </trkpt>
      <trkpt lat="48.49125" lon="-2.87636">
        <ele>175</ele>
        <time>2025-06-07T08:16:20Z</time>
      </trkpt>
      <trkpt lat="48.49229" lon="-2.8772">
        <ele>173</ele>
        <time>2025-06-07T08:16:41Z</time>
      </trkpt>
      <trkpt lat="48.49277" lon="-2.87761">
        <ele>172</ele>
        <time>2025-06-07T08:16:51Z</time>
      </trkpt>
      <trkpt lat="48.49289" lon="-2.8777">
        <ele>171</ele>
        <time>2025-06-07T08:16:54Z</time>
      </trkpt>
      <trkpt lat="48.49299" lon="-2.87776">
        <ele>171</ele>
        <time>2025-06-07T08:16:56Z</time>
      </trkpt>
      <trkpt lat="48.49315" lon="-2.8778">
        <ele>171</ele>
        <time>2025-06-07T08:16:58Z</time>
      </trkpt>
      <trkpt lat="48.49342" lon="-2.87784">
        <ele>171</ele>
        <time>2025-06-07T08:17:03Z</time>
      </trkpt>
      <trkpt lat="48.49356" lon="-2.87787">
        <ele>171</ele>
        <time>2025-06-07T08:17:06Z</time>
      </trkpt>
      <trkpt lat="48.49367" lon="-2.87792">
        <ele>172</ele>
        <time>2025-06-07T08:17:08Z</time>
      </trkpt>
      <trkpt lat="48.49403" lon="-2.87811">
        <ele>173</ele>
        <time>2025-06-07T08:17:15Z</time>
      </trkpt>
      <trkpt lat="48.49418" lon="-2.87821">
        <ele>174</ele>
        <time>2025-06-07T08:17:18Z</time>
      </trkpt>
      <trkpt lat="48.49475" lon="-2.87871">
        <ele>173</ele>
        <time>2025-06-07T08:17:29Z</time>
      </trkpt>
      <trkpt lat="48.49529" lon="-2.8791">
        <ele>172</ele>
        <time>2025-06-07T08:17:40Z</time>
      </trkpt>
      <trkpt lat="48.49563" lon="-2.87936">
        <ele>173</ele>
        <time>2025-06-07T08:17:47Z</time>
      </trkpt>
      <trkpt lat="48.49571" lon="-2.8794">
        <ele>172</ele>
        <time>2025-06-07T08:17:48Z</time>
      </trkpt>
      <trkpt lat="48.4958" lon="-2.87942">
        <ele>172</ele>
        <time>2025-06-07T08:17:50Z</time>
      </trkpt>
      <trkpt lat="48.4959" lon="-2.87942">
        <ele>172</ele>
        <time>2025-06-07T08:17:52Z</time>
      </trkpt>
      <trkpt lat="48.49614" lon="-2.87938">
        <ele>171</ele>
        <time>2025-06-07T08:17:56Z</time>
      </trkpt>
      <trkpt lat="48.49624" lon="-2.87934">
        <ele>170</ele>
        <time>2025-06-07T08:17:58Z</time>
      </trkpt>
      <trkpt lat="48.49643" lon="-2.87924">
        <ele>169</ele>
        <time>2025-06-07T08:18:01Z</time>
      </trkpt>
      <trkpt lat="48.49652" lon="-2.87916">
        <ele>168</ele>
        <time>2025-06-07T08:18:03Z</time>
      </trkpt>
      <trkpt lat="48.49666" lon="-2.879">
        <ele>167</ele>
        <time>2025-06-07T08:18:06Z</time>
      </trkpt>
      <trkpt lat="48.49713" lon="-2.87832">
        <ele>165</ele>
        <time>2025-06-07T08:18:18Z</time>
      </trkpt>
      <trkpt lat="48.49723" lon="-2.87821">
        <ele>165</ele>
        <time>2025-06-07T08:18:20Z</time>
      </trkpt>
      <trkpt lat="48.49728" lon="-2.87817">
        <ele>165</ele>
        <time>2025-06-07T08:18:21Z</time>
      </trkpt>
      <trkpt lat="48.49751" lon="-2.87926">
        <ele>164</ele>
        <time>2025-06-07T08:18:35Z</time>
      </trkpt>
      <trkpt lat="48.49758" lon="-2.87957">
        <ele>164</ele>
        <time>2025-06-07T08:18:38Z</time>
      </trkpt>
      <trkpt lat="48.49764" lon="-2.87977">
        <ele>165</ele>
        <time>2025-06-07T08:18:41Z</time>
      </trkpt>
      <trkpt lat="48.49769" lon="-2.87994">
        <ele>165</ele>
        <time>2025-06-07T08:18:43Z</time>
      </trkpt>
      <trkpt lat="48.49775" lon="-2.88008">
        <ele>165</ele>
        <time>2025-06-07T08:18:45Z</time>
      </trkpt>
      <trkpt lat="48.49781" lon="-2.8802">
        <ele>165</ele>
        <time>2025-06-07T08:18:47Z</time>
      </trkpt>
      <trkpt lat="48.49789" lon="-2.88031">
        <ele>165</ele>
        <time>2025-06-07T08:18:49Z</time>
      </trkpt>
      <trkpt lat="48.498" lon="-2.88043">
        <ele>165</ele>
        <time>2025-06-07T08:18:51Z</time>
      </trkpt>
      <trkpt lat="48.4982" lon="-2.88057">
        <ele>165</ele>
        <time>2025-06-07T08:18:55Z</time>
      </trkpt>
      <trkpt lat="48.49835" lon="-2.88062">
        <ele>165</ele>
        <time>2025-06-07T08:18:58Z</time>
      </trkpt>
      <trkpt lat="48.49848" lon="-2.88065">
        <ele>165</ele>
        <time>2025-06-07T08:19:00Z</time>
      </trkpt>
      <trkpt lat="48.49907" lon="-2.88073">
        <ele>165</ele>
        <time>2025-06-07T08:19:11Z</time>
      </trkpt>
      <trkpt lat="48.49922" lon="-2.88076">
        <ele>165</ele>
        <time>2025-06-07T08:19:14Z</time>
      </trkpt>
      <trkpt lat="48.49964" lon="-2.88087">
        <ele>165</ele>
        <time>2025-06-07T08:19:21Z</time>
      </trkpt>
      <trkpt lat="48.49985" lon="-2.88095">
        <ele>165</ele>
        <time>2025-06-07T08:19:25Z</time>
      </trkpt>
      <trkpt lat="48.50008" lon="-2.88106">
        <ele>165</ele>
        <time>2025-06-07T08:19:29Z</time>
      </trkpt>
      <trkpt lat="48.50029" lon="-2.88118">
        <ele>164</ele>
        <time>2025-06-07T08:19:33Z</time>
      </trkpt>
      <trkpt lat="48.50052" lon="-2.88129">
        <ele>164</ele>
        <time>2025-06-07T08:19:38Z</time>
      </trkpt>
      <trkpt lat="48.50098" lon="-2.88148">
        <ele>164</ele>
        <time>2025-06-07T08:19:46Z</time>
      </trkpt>
      <trkpt lat="48.50114" lon="-2.88153">
        <ele>164</ele>
        <time>2025-06-07T08:19:49Z</time>
      </trkpt>
      <trkpt lat="48.5013" lon="-2.88156">
        <ele>164</ele>
        <time>2025-06-07T08:19:52Z</time>
      </trkpt>
      <trkpt lat="48.50147" lon="-2.88158">
        <ele>164</ele>
        <time>2025-06-07T08:19:55Z</time>
      </trkpt>
      <trkpt lat="48.5016" lon="-2.8816">
        <ele>164</ele>
        <time>2025-06-07T08:19:57Z</time>
      </trkpt>
      <trkpt lat="48.50169" lon="-2.88164">
        <ele>164</ele>
        <time>2025-06-07T08:19:59Z</time>
      </trkpt>
      <trkpt lat="48.50182" lon="-2.88171">
        <ele>163</ele>
        <time>2025-06-07T08:20:01Z</time>
      </trkpt>
      <trkpt lat="48.50195" lon="-2.8818">
        <ele>162</ele>
        <time>2025-06-07T08:20:04Z</time>
      </trkpt>
      <trkpt lat="48.50207" lon="-2.88191">
        <ele>162</ele>
        <time>2025-06-07T08:20:06Z</time>
      </trkpt>
      <trkpt lat="48.50236" lon="-2.8822">
        <ele>161</ele>
        <time>2025-06-07T08:20:13Z</time>
      </trkpt>
      <trkpt lat="48.50256" lon="-2.88235">
        <ele>161</ele>
        <time>2025-06-07T08:20:17Z</time>
      </trkpt>
      <trkpt lat="48.50268" lon="-2.88241">
        <ele>161</ele>
        <time>2025-06-07T08:20:19Z</time>
      </trkpt>
      <trkpt lat="48.50278" lon="-2.88245">
        <ele>161</ele>
        <time>2025-06-07T08:20:21Z</time>
      </trkpt>
      <trkpt lat="48.50326" lon="-2.88251">
        <ele>160</ele>
        <time>2025-06-07T08:20:29Z</time>
      </trkpt>
      <trkpt lat="48.50335" lon="-2.88253">
        <ele>160</ele>
        <time>2025-06-07T08:20:31Z</time>
      </trkpt>
      <trkpt lat="48.50418" lon="-2.88298">
        <ele>159</ele>
        <time>2025-06-07T08:20:47Z</time>
      </trkpt>
      <trkpt lat="48.50466" lon="-2.88324">
        <ele>159</ele>
        <time>2025-06-07T08:20:56Z</time>
      </trkpt>
      <trkpt lat="48.50577" lon="-2.88382">
        <ele>156</ele>
        <time>2025-06-07T08:21:16Z</time>
      </trkpt>
      <trkpt lat="48.50638" lon="-2.8841">
        <ele>157</ele>
        <time>2025-06-07T08:21:28Z</time>
      </trkpt>
      <trkpt lat="48.50667" lon="-2.88421">
        <ele>158</ele>
        <time>2025-06-07T08:21:33Z</time>
      </trkpt>
      <trkpt lat="48.50683" lon="-2.88426">
        <ele>159</ele>
        <time>2025-06-07T08:21:36Z</time>
      </trkpt>
      <trkpt lat="48.50721" lon="-2.88433">
        <ele>160</ele>
        <time>2025-06-07T08:21:43Z</time>
      </trkpt>
      <trkpt lat="48.50743" lon="-2.88434">
        <ele>161</ele>
        <time>2025-06-07T08:21:47Z</time>
      </trkpt>
      <trkpt lat="48.50801" lon="-2.88432">
        <ele>162</ele>
        <time>2025-06-07T08:21:57Z</time>
      </trkpt>
      <trkpt lat="48.50812" lon="-2.88433">
        <ele>163</ele>
        <time>2025-06-07T08:21:59Z</time>
      </trkpt>
      <trkpt lat="48.50824" lon="-2.88435">
        <ele>163</ele>
        <time>2025-06-07T08:22:01Z</time>
      </trkpt>
      <trkpt lat="48.50845" lon="-2.88444">
        <ele>164</ele>
        <time>2025-06-07T08:22:05Z</time>
      </trkpt>
      <trkpt lat="48.50858" lon="-2.88453">
        <ele>164</ele>
        <time>2025-06-07T08:22:08Z</time>
      </trkpt>
      <trkpt lat="48.50886" lon="-2.88475">
        <ele>165</ele>
        <time>2025-06-07T08:22:13Z</time>
      </trkpt>
      <trkpt lat="48.50909" lon="-2.8849">
        <ele>166</ele>
        <time>2025-06-07T08:22:18Z</time>
      </trkpt>
      <trkpt lat="48.50921" lon="-2.88495">
        <ele>166</ele>
        <time>2025-06-07T08:22:20Z</time>
      </trkpt>
      <trkpt lat="48.50944" lon="-2.88501">
        <ele>166</ele>
        <time>2025-06-07T08:22:24Z</time>
      </trkpt>
      <trkpt lat="48.50963" lon="-2.88506">
        <ele>166</ele>
        <time>2025-06-07T08:22:28Z</time>
      </trkpt>
      <trkpt lat="48.50981" lon="-2.88508">
        <ele>167</ele>
        <time>2025-06-07T08:22:31Z</time>
      </trkpt>
      <trkpt lat="48.51007" lon="-2.88508">
        <ele>167</ele>
        <time>2025-06-07T08:22:35Z</time>
      </trkpt>
      <trkpt lat="48.51024" lon="-2.88506">
        <ele>167</ele>
        <time>2025-06-07T08:22:38Z</time>
      </trkpt>
      <trkpt lat="48.51074" lon="-2.88495">
        <ele>167</ele>
        <time>2025-06-07T08:22:47Z</time>
      </trkpt>
      <trkpt lat="48.51087" lon="-2.88493">
        <ele>167</ele>
        <time>2025-06-07T08:22:50Z</time>
      </trkpt>
      <trkpt lat="48.51101" lon="-2.88495">
        <ele>168</ele>
        <time>2025-06-07T08:22:52Z</time>
      </trkpt>
      <trkpt lat="48.51122" lon="-2.885">
        <ele>169</ele>
        <time>2025-06-07T08:22:56Z</time>
      </trkpt>
      <trkpt lat="48.51254" lon="-2.88532">
        <ele>169</ele>
        <time>2025-06-07T08:23:20Z</time>
      </trkpt>
      <trkpt lat="48.51282" lon="-2.88536">
        <ele>169</ele>
        <time>2025-06-07T08:23:25Z</time>
      </trkpt>
      <trkpt lat="48.51293" lon="-2.88535">
        <ele>169</ele>
        <time>2025-06-07T08:23:27Z</time>
      </trkpt>
      <trkpt lat="48.51312" lon="-2.88529">
        <ele>169</ele>
        <time>2025-06-07T08:23:30Z</time>
      </trkpt>
      <trkpt lat="48.51396" lon="-2.88486">
        <ele>170</ele>
        <time>2025-06-07T08:23:46Z</time>
      </trkpt>
      <trkpt lat="48.51451" lon="-2.88455">
        <ele>173</ele>
        <time>2025-06-07T08:23:56Z</time>
      </trkpt>
      <trkpt lat="48.51463" lon="-2.88446">
        <ele>174</ele>
        <time>2025-06-07T08:23:59Z</time>
      </trkpt>
      <trkpt lat="48.51469" lon="-2.88441">
        <ele>174</ele>
        <time>2025-06-07T08:24:00Z</time>
      </trkpt>
      <trkpt lat="48.51467" lon="-2.88431">
        <ele>174</ele>
        <time>2025-06-07T08:24:01Z</time>
      </trkpt>
      <trkpt lat="48.51468" lon="-2.8842">
        <ele>174</ele>
        <time>2025-06-07T08:24:03Z</time>
      </trkpt>
      <trkpt lat="48.51473" lon="-2.88404">
        <ele>174</ele>
        <time>2025-06-07T08:24:05Z</time>
      </trkpt>
      <trkpt lat="48.51481" lon="-2.88387">
        <ele>174</ele>
        <time>2025-06-07T08:24:07Z</time>
      </trkpt>
      <trkpt lat="48.51514" lon="-2.88343">
        <ele>174</ele>
        <time>2025-06-07T08:24:15Z</time>
      </trkpt>
      <trkpt lat="48.51523" lon="-2.88338">
        <ele>174</ele>
        <time>2025-06-07T08:24:17Z</time>
      </trkpt>
      <trkpt lat="48.51531" lon="-2.88339">
        <ele>174</ele>
        <time>2025-06-07T08:24:18Z</time>
      </trkpt>
      <trkpt lat="48.51532" lon="-2.88329">
        <ele>174</ele>
        <time>2025-06-07T08:24:19Z</time>
      </trkpt>
      <trkpt lat="48.51534" lon="-2.88319">
        <ele>174</ele>
        <time>2025-06-07T08:24:21Z</time>
      </trkpt>
      <trkpt lat="48.51539" lon="-2.88291">
        <ele>173</ele>
        <time>2025-06-07T08:24:24Z</time>
      </trkpt>
      <trkpt lat="48.5155" lon="-2.88246">
        <ele>171</ele>
        <time>2025-06-07T08:24:30Z</time>
      </trkpt>
      <trkpt lat="48.51556" lon="-2.88227">
        <ele>170</ele>
        <time>2025-06-07T08:24:32Z</time>
      </trkpt>
      <trkpt lat="48.51561" lon="-2.88214">
        <ele>170</ele>
        <time>2025-06-07T08:24:34Z</time>
      </trkpt>
      <trkpt lat="48.5157" lon="-2.88201">
        <ele>169</ele>
        <time>2025-06-07T08:24:36Z</time>
      </trkpt>
      <trkpt lat="48.51578" lon="-2.88187">
        <ele>169</ele>
        <time>2025-06-07T08:24:38Z</time>
      </trkpt>
      <trkpt lat="48.51596" lon="-2.88164">
        <ele>168</ele>
        <time>2025-06-07T08:24:42Z</time>
      </trkpt>
      <trkpt lat="48.51614" lon="-2.8813">
        <ele>168</ele>
        <time>2025-06-07T08:24:48Z</time>
      </trkpt>
      <trkpt lat="48.5163" lon="-2.88094">
        <ele>167</ele>
        <time>2025-06-07T08:24:53Z</time>
      </trkpt>
      <trkpt lat="48.51647" lon="-2.88061">
        <ele>167</ele>
        <time>2025-06-07T08:24:58Z</time>
      </trkpt>
      <trkpt lat="48.51661" lon="-2.88041">
        <ele>166</ele>
        <time>2025-06-07T08:25:01Z</time>
      </trkpt>
      <trkpt lat="48.51687" lon="-2.88013">
        <ele>167</ele>
        <time>2025-06-07T08:25:07Z</time>
      </trkpt>
      <trkpt lat="48.51709" lon="-2.87986">
        <ele>167</ele>
        <time>2025-06-07T08:25:12Z</time>
      </trkpt>
      <trkpt lat="48.51731" lon="-2.87955">
        <ele>167</ele>
        <time>2025-06-07T08:25:17Z</time>
      </trkpt>
      <trkpt lat="48.51739" lon="-2.87943">
        <ele>167</ele>
        <time>2025-06-07T08:25:19Z</time>
      </trkpt>
      <trkpt lat="48.51763" lon="-2.87889">
        <ele>165</ele>
        <time>2025-06-07T08:25:27Z</time>
      </trkpt>
      <trkpt lat="48.51776" lon="-2.87865">
        <ele>164</ele>
        <time>2025-06-07T08:25:30Z</time>
      </trkpt>
      <trkpt lat="48.51787" lon="-2.87849">
        <ele>163</ele>
        <time>2025-06-07T08:25:33Z</time>
      </trkpt>
      <trkpt lat="48.51801" lon="-2.87834">
        <ele>162</ele>
        <time>2025-06-07T08:25:36Z</time>
      </trkpt>
      <trkpt lat="48.51827" lon="-2.87818">
        <ele>162</ele>
        <time>2025-06-07T08:25:41Z</time>
      </trkpt>
      <trkpt lat="48.51846" lon="-2.87813">
        <ele>163</ele>
        <time>2025-06-07T08:25:45Z</time>
      </trkpt>
      <trkpt lat="48.51867" lon="-2.87807">
        <ele>164</ele>
        <time>2025-06-07T08:25:48Z</time>
      </trkpt>
      <trkpt lat="48.51923" lon="-2.87778">
        <ele>165</ele>
        <time>2025-06-07T08:25:59Z</time>
      </trkpt>
      <trkpt lat="48.52047" lon="-2.87707">
        <ele>165</ele>
        <time>2025-06-07T08:26:23Z</time>
      </trkpt>
      <trkpt lat="48.52142" lon="-2.87653">
        <ele>160</ele>
        <time>2025-06-07T08:26:41Z</time>
      </trkpt>
      <trkpt lat="48.5216" lon="-2.87648">
        <ele>159</ele>
        <time>2025-06-07T08:26:44Z</time>
      </trkpt>
      <trkpt lat="48.52175" lon="-2.87648">
        <ele>158</ele>
        <time>2025-06-07T08:26:47Z</time>
      </trkpt>
      <trkpt lat="48.52214" lon="-2.87661">
        <ele>158</ele>
        <time>2025-06-07T08:26:54Z</time>
      </trkpt>
      <trkpt lat="48.52224" lon="-2.87661">
        <ele>158</ele>
        <time>2025-06-07T08:26:55Z</time>
      </trkpt>
      <trkpt lat="48.52229" lon="-2.87659">
        <ele>157</ele>
        <time>2025-06-07T08:26:56Z</time>
      </trkpt>
      <trkpt lat="48.52234" lon="-2.87656">
        <ele>157</ele>
        <time>2025-06-07T08:26:57Z</time>
      </trkpt>
      <trkpt lat="48.52239" lon="-2.87649">
        <ele>157</ele>
        <time>2025-06-07T08:26:59Z</time>
      </trkpt>
      <trkpt lat="48.52244" lon="-2.87637">
        <ele>157</ele>
        <time>2025-06-07T08:27:00Z</time>
      </trkpt>
      <trkpt lat="48.52246" lon="-2.87619">
        <ele>157</ele>
        <time>2025-06-07T08:27:02Z</time>
      </trkpt>
      <trkpt lat="48.52237" lon="-2.87425">
        <ele>155</ele>
        <time>2025-06-07T08:27:25Z</time>
      </trkpt>
      <trkpt lat="48.52233" lon="-2.87405">
        <ele>155</ele>
        <time>2025-06-07T08:27:28Z</time>
      </trkpt>
      <trkpt lat="48.52228" lon="-2.87387">
        <ele>155</ele>
        <time>2025-06-07T08:27:30Z</time>
      </trkpt>
      <trkpt lat="48.52223" lon="-2.87373">
        <ele>155</ele>
        <time>2025-06-07T08:27:32Z</time>
      </trkpt>
      <trkpt lat="48.52215" lon="-2.87363">
        <ele>156</ele>
        <time>2025-06-07T08:27:34Z</time>
      </trkpt>
      <trkpt lat="48.52209" lon="-2.87357">
        <ele>156</ele>
        <time>2025-06-07T08:27:35Z</time>
      </trkpt>
      <trkpt lat="48.52187" lon="-2.87342">
        <ele>156</ele>
        <time>2025-06-07T08:27:39Z</time>
      </trkpt>
      <trkpt lat="48.52179" lon="-2.87334">
        <ele>157</ele>
        <time>2025-06-07T08:27:41Z</time>
      </trkpt>
      <trkpt lat="48.52173" lon="-2.87322">
        <ele>157</ele>
        <time>2025-06-07T08:27:43Z</time>
      </trkpt>
      <trkpt lat="48.5217" lon="-2.87309">
        <ele>156</ele>
        <time>2025-06-07T08:27:44Z</time>
      </trkpt>
      <trkpt lat="48.5217" lon="-2.87294">
        <ele>156</ele>
        <time>2025-06-07T08:27:46Z</time>
      </trkpt>
      <trkpt lat="48.52172" lon="-2.87282">
        <ele>156</ele>
        <time>2025-06-07T08:27:48Z</time>
      </trkpt>
      <trkpt lat="48.52177" lon="-2.87271">
        <ele>155</ele>
        <time>2025-06-07T08:27:49Z</time>
      </trkpt>
      <trkpt lat="48.52183" lon="-2.87258">
        <ele>155</ele>
        <time>2025-06-07T08:27:51Z</time>
      </trkpt>
      <trkpt lat="48.52191" lon="-2.87245">
        <ele>155</ele>
        <time>2025-06-07T08:27:53Z</time>
      </trkpt>
      <trkpt lat="48.522" lon="-2.87231">
        <ele>154</ele>
        <time>2025-06-07T08:27:55Z</time>
      </trkpt>
      <trkpt lat="48.52201" lon="-2.87225">
        <ele>154</ele>
        <time>2025-06-07T08:27:56Z</time>
      </trkpt>
      <trkpt lat="48.52203" lon="-2.87217">
        <ele>154</ele>
        <time>2025-06-07T08:27:57Z</time>
      </trkpt>
      <trkpt lat="48.52206" lon="-2.87211">
        <ele>154</ele>
        <time>2025-06-07T08:27:58Z</time>
      </trkpt>
      <trkpt lat="48.5221" lon="-2.87205">
        <ele>154</ele>
        <time>2025-06-07T08:27:59Z</time>
      </trkpt>
      <trkpt lat="48.52215" lon="-2.87201">
        <ele>153</ele>
        <time>2025-06-07T08:28:00Z</time>
      </trkpt>
      <trkpt lat="48.52219" lon="-2.87199">
        <ele>153</ele>
        <time>2025-06-07T08:28:01Z</time>
      </trkpt>
      <trkpt lat="48.52233" lon="-2.87183">
        <ele>153</ele>
        <time>2025-06-07T08:28:04Z</time>
      </trkpt>
      <trkpt lat="48.52241" lon="-2.87158">
        <ele>152</ele>
        <time>2025-06-07T08:28:07Z</time>
      </trkpt>
      <trkpt lat="48.52238" lon="-2.87095">
        <ele>151</ele>
        <time>2025-06-07T08:28:15Z</time>
      </trkpt>
      <trkpt lat="48.52238" lon="-2.87037">
        <ele>151</ele>
        <time>2025-06-07T08:28:22Z</time>
      </trkpt>
      <trkpt lat="48.52242" lon="-2.86915">
        <ele>149</ele>
        <time>2025-06-07T08:28:36Z</time>
      </trkpt>
      <trkpt lat="48.52247" lon="-2.86758">
        <ele>148</ele>
        <time>2025-06-07T08:28:54Z</time>
      </trkpt>
      <trkpt lat="48.5226" lon="-2.86759">
        <ele>148</ele>
        <time>2025-06-07T08:28:57Z</time>
      </trkpt>
      <trkpt lat="48.52271" lon="-2.86756">
        <ele>148</ele>
        <time>2025-06-07T08:28:59Z</time>
      </trkpt>
      <trkpt lat="48.52282" lon="-2.8675">
        <ele>148</ele>
        <time>2025-06-07T08:29:01Z</time>
      </trkpt>
      <trkpt lat="48.52336" lon="-2.86704">
        <ele>147</ele>
        <time>2025-06-07T08:29:12Z</time>
      </trkpt>
      <trkpt lat="48.52405" lon="-2.86638">
        <ele>146</ele>
        <time>2025-06-07T08:29:26Z</time>
      </trkpt>
      <trkpt lat="48.52426" lon="-2.86619">
        <ele>146</ele>
        <time>2025-06-07T08:29:31Z</time>
      </trkpt>
      <trkpt lat="48.52442" lon="-2.86608">
        <ele>146</ele>
        <time>2025-06-07T08:29:34Z</time>
      </trkpt>
      <trkpt lat="48.52523" lon="-2.86566">
        <ele>145</ele>
        <time>2025-06-07T08:29:49Z</time>
      </trkpt>
      <trkpt lat="48.52541" lon="-2.86555">
        <ele>145</ele>
        <time>2025-06-07T08:29:53Z</time>
      </trkpt>
      <trkpt lat="48.52551" lon="-2.86548">
        <ele>145</ele>
        <time>2025-06-07T08:29:55Z</time>
      </trkpt>
      <trkpt lat="48.5256" lon="-2.86539">
        <ele>145</ele>
        <time>2025-06-07T08:29:56Z</time>
      </trkpt>
      <trkpt lat="48.52569" lon="-2.86527">
        <ele>146</ele>
        <time>2025-06-07T08:29:59Z</time>
      </trkpt>
      <trkpt lat="48.52661" lon="-2.86373">
        <ele>145</ele>
        <time>2025-06-07T08:30:23Z</time>
      </trkpt>
      <trkpt lat="48.52692" lon="-2.8632">
        <ele>145</ele>
        <time>2025-06-07T08:30:31Z</time>
      </trkpt>
      <trkpt lat="48.52732" lon="-2.86244">
        <ele>145</ele>
        <time>2025-06-07T08:30:43Z</time>
      </trkpt>
      <trkpt lat="48.52767" lon="-2.86171">
        <ele>144</ele>
        <time>2025-06-07T08:30:53Z</time>
      </trkpt>
      <trkpt lat="48.52787" lon="-2.86109">
        <ele>144</ele>
        <time>2025-06-07T08:31:02Z</time>
      </trkpt>
      <trkpt lat="48.52817" lon="-2.85993">
        <ele>145</ele>
        <time>2025-06-07T08:31:16Z</time>
      </trkpt>
      <trkpt lat="48.52826" lon="-2.85936">
        <ele>146</ele>
        <time>2025-06-07T08:31:23Z</time>
      </trkpt>
      <trkpt lat="48.52835" lon="-2.85874">
        <ele>145</ele>
        <time>2025-06-07T08:31:31Z</time>
      </trkpt>
      <trkpt lat="48.52866" lon="-2.85711">
        <ele>144</ele>
        <time>2025-06-07T08:31:51Z</time>
      </trkpt>
      <trkpt lat="48.52873" lon="-2.85663">
        <ele>144</ele>
        <time>2025-06-07T08:31:56Z</time>
      </trkpt>
      <trkpt lat="48.52872" lon="-2.85644">
        <ele>144</ele>
        <time>2025-06-07T08:31:59Z</time>
      </trkpt>
      <trkpt lat="48.52869" lon="-2.8563">
        <ele>145</ele>
        <time>2025-06-07T08:32:00Z</time>
      </trkpt>
      <trkpt lat="48.52865" lon="-2.85624">
        <ele>145</ele>
        <time>2025-06-07T08:32:01Z</time>
      </trkpt>
      <trkpt lat="48.52863" lon="-2.85616">
        <ele>145</ele>
        <time>2025-06-07T08:32:02Z</time>
      </trkpt>
      <trkpt lat="48.52862" lon="-2.85608">
        <ele>145</ele>
        <time>2025-06-07T08:32:03Z</time>
      </trkpt>
      <trkpt lat="48.52862" lon="-2.856">
        <ele>146</ele>
        <time>2025-06-07T08:32:04Z</time>
      </trkpt>
      <trkpt lat="48.52864" lon="-2.85593">
        <ele>146</ele>
        <time>2025-06-07T08:32:05Z</time>
      </trkpt>
      <trkpt lat="48.52867" lon="-2.85586">
        <ele>146</ele>
        <time>2025-06-07T08:32:06Z</time>
      </trkpt>
      <trkpt lat="48.52871" lon="-2.85581">
        <ele>146</ele>
        <time>2025-06-07T08:32:07Z</time>
      </trkpt>
      <trkpt lat="48.52877" lon="-2.85578">
        <ele>146</ele>
        <time>2025-06-07T08:32:08Z</time>
      </trkpt>
      <trkpt lat="48.52883" lon="-2.85577">
        <ele>146</ele>
        <time>2025-06-07T08:32:09Z</time>
      </trkpt>
      <trkpt lat="48.52887" lon="-2.85578">
        <ele>146</ele>
        <time>2025-06-07T08:32:10Z</time>
      </trkpt>
      <trkpt lat="48.5289" lon="-2.8558">
        <ele>146</ele>
        <time>2025-06-07T08:32:11Z</time>
      </trkpt>
      <trkpt lat="48.529" lon="-2.85577">
        <ele>146</ele>
        <time>2025-06-07T08:32:12Z</time>
      </trkpt>
      <trkpt lat="48.52909" lon="-2.8557">
        <ele>146</ele>
        <time>2025-06-07T08:32:14Z</time>
      </trkpt>
      <trkpt lat="48.52962" lon="-2.8546">
        <ele>144</ele>
        <time>2025-06-07T08:32:30Z</time>
      </trkpt>
      <trkpt lat="48.53004" lon="-2.85389">
        <ele>142</ele>
        <time>2025-06-07T08:32:41Z</time>
      </trkpt>
      <trkpt lat="48.53053" lon="-2.85301">
        <ele>142</ele>
        <time>2025-06-07T08:32:55Z</time>
      </trkpt>
      <trkpt lat="48.53063" lon="-2.85279">
        <ele>142</ele>
        <time>2025-06-07T08:32:58Z</time>
      </trkpt>
      <trkpt lat="48.53071" lon="-2.85257">
        <ele>141</ele>
        <time>2025-06-07T08:33:01Z</time>
      </trkpt>
      <trkpt lat="48.53115" lon="-2.85117">
        <ele>139</ele>
        <time>2025-06-07T08:33:19Z</time>
      </trkpt>
      <trkpt lat="48.53114" lon="-2.85102">
        <ele>139</ele>
        <time>2025-06-07T08:33:21Z</time>
      </trkpt>
      <trkpt lat="48.53112" lon="-2.85091">
        <ele>138</ele>
        <time>2025-06-07T08:33:22Z</time>
      </trkpt>
      <trkpt lat="48.53107" lon="-2.85075">
        <ele>138</ele>
        <time>2025-06-07T08:33:25Z</time>
      </trkpt>
      <trkpt lat="48.53121" lon="-2.85068">
        <ele>138</ele>
        <time>2025-06-07T08:33:27Z</time>
      </trkpt>
      <trkpt lat="48.53144" lon="-2.85053">
        <ele>138</ele>
        <time>2025-06-07T08:33:32Z</time>
      </trkpt>
      <trkpt lat="48.53213" lon="-2.84991">
        <ele>136</ele>
        <time>2025-06-07T08:33:46Z</time>
      </trkpt>
      <trkpt lat="48.53242" lon="-2.84962">
        <ele>137</ele>
        <time>2025-06-07T08:33:52Z</time>
      </trkpt>
      <trkpt lat="48.53253" lon="-2.84948">
        <ele>137</ele>
        <time>2025-06-07T08:33:55Z</time>
      </trkpt>
      <trkpt lat="48.53261" lon="-2.84931">
        <ele>137</ele>
        <time>2025-06-07T08:33:57Z</time>
      </trkpt>
      <trkpt lat="48.53308" lon="-2.84839">
        <ele>137</ele>
        <time>2025-06-07T08:34:11Z</time>
      </trkpt>
      <trkpt lat="48.53357" lon="-2.84755">
        <ele>135</ele>
        <time>2025-06-07T08:34:24Z</time>
      </trkpt>
      <trkpt lat="48.53426" lon="-2.84633">
        <ele>136</ele>
        <time>2025-06-07T08:34:43Z</time>
      </trkpt>
      <trkpt lat="48.53447" lon="-2.84589">
        <ele>136</ele>
        <time>2025-06-07T08:34:49Z</time>
      </trkpt>
      <trkpt lat="48.53482" lon="-2.84509">
        <ele>136</ele>
        <time>2025-06-07T08:35:01Z</time>
      </trkpt>
      <trkpt lat="48.53522" lon="-2.84381">
        <ele>134</ele>
        <time>2025-06-07T08:35:17Z</time>
      </trkpt>
      <trkpt lat="48.53567" lon="-2.84272">
        <ele>134</ele>
        <time>2025-06-07T08:35:32Z</time>
      </trkpt>
      <trkpt lat="48.53585" lon="-2.84221">
        <ele>134</ele>
        <time>2025-06-07T08:35:39Z</time>
      </trkpt>
      <trkpt lat="48.53621" lon="-2.84104">
        <ele>134</ele>
        <time>2025-06-07T08:35:54Z</time>
      </trkpt>
      <trkpt lat="48.5365" lon="-2.84025">
        <ele>134</ele>
        <time>2025-06-07T08:36:05Z</time>
      </trkpt>
      <trkpt lat="48.53719" lon="-2.839">
        <ele>135</ele>
        <time>2025-06-07T08:36:24Z</time>
      </trkpt>
      <trkpt lat="48.53757" lon="-2.83825">
        <ele>135</ele>
        <time>2025-06-07T08:36:35Z</time>
      </trkpt>
      <trkpt lat="48.538" lon="-2.83735">
        <ele>134</ele>
        <time>2025-06-07T08:36:48Z</time>
      </trkpt>
      <trkpt lat="48.53813" lon="-2.837">
        <ele>133</ele>
        <time>2025-06-07T08:36:53Z</time>
      </trkpt>
      <trkpt lat="48.53832" lon="-2.83605">
        <ele>133</ele>
        <time>2025-06-07T08:37:05Z</time>
      </trkpt>
      <trkpt lat="48.53845" lon="-2.83562">
        <ele>133</ele>
        <time>2025-06-07T08:37:10Z</time>
      </trkpt>
      <trkpt lat="48.53941" lon="-2.83325">
        <ele>134</ele>
        <time>2025-06-07T08:37:43Z</time>
      </trkpt>
      <trkpt lat="48.53968" lon="-2.83248">
        <ele>134</ele>
        <time>2025-06-07T08:37:53Z</time>
      </trkpt>
      <trkpt lat="48.53985" lon="-2.83186">
        <ele>133</ele>
        <time>2025-06-07T08:38:01Z</time>
      </trkpt>
      <trkpt lat="48.5399" lon="-2.83168">
        <ele>133</ele>
        <time>2025-06-07T08:38:04Z</time>
      </trkpt>
      <trkpt lat="48.54001" lon="-2.83135">
        <ele>132</ele>
        <time>2025-06-07T08:38:08Z</time>
      </trkpt>
      <trkpt lat="48.54028" lon="-2.83061">
        <ele>132</ele>
        <time>2025-06-07T08:38:18Z</time>
      </trkpt>
      <trkpt lat="48.54082" lon="-2.82947">
        <ele>131</ele>
        <time>2025-06-07T08:38:34Z</time>
      </trkpt>
      <trkpt lat="48.54089" lon="-2.82933">
        <ele>131</ele>
        <time>2025-06-07T08:38:37Z</time>
      </trkpt>
      <trkpt lat="48.54096" lon="-2.82917">
        <ele>131</ele>
        <time>2025-06-07T08:38:39Z</time>
      </trkpt>
      <trkpt lat="48.54106" lon="-2.82889">
        <ele>131</ele>
        <time>2025-06-07T08:38:43Z</time>
      </trkpt>
      <trkpt lat="48.54112" lon="-2.82879">
        <ele>131</ele>
        <time>2025-06-07T08:38:44Z</time>
      </trkpt>
      <trkpt lat="48.54115" lon="-2.82878">
        <ele>131</ele>
        <time>2025-06-07T08:38:45Z</time>
      </trkpt>
      <trkpt lat="48.54118" lon="-2.82784">
        <ele>130</ele>
        <time>2025-06-07T08:38:56Z</time>
      </trkpt>
      <trkpt lat="48.54117" lon="-2.82755">
        <ele>130</ele>
        <time>2025-06-07T08:38:59Z</time>
      </trkpt>
      <trkpt lat="48.5412" lon="-2.8273">
        <ele>130</ele>
        <time>2025-06-07T08:39:02Z</time>
      </trkpt>
      <trkpt lat="48.54121" lon="-2.82671">
        <ele>129</ele>
        <time>2025-06-07T08:39:09Z</time>
      </trkpt>
      <trkpt lat="48.54128" lon="-2.8261">
        <ele>129</ele>
        <time>2025-06-07T08:39:16Z</time>
      </trkpt>
      <trkpt lat="48.54144" lon="-2.82516">
        <ele>128</ele>
        <time>2025-06-07T08:39:28Z</time>
      </trkpt>
      <trkpt lat="48.54148" lon="-2.82494">
        <ele>128</ele>
        <time>2025-06-07T08:39:31Z</time>
      </trkpt>
      <trkpt lat="48.54154" lon="-2.8245">
        <ele>127</ele>
        <time>2025-06-07T08:39:36Z</time>
      </trkpt>
      <trkpt lat="48.54155" lon="-2.82408">
        <ele>126</ele>
        <time>2025-06-07T08:39:41Z</time>
      </trkpt>
      <trkpt lat="48.54153" lon="-2.82318">
        <ele>125</ele>
        <time>2025-06-07T08:39:51Z</time>
      </trkpt>
      <trkpt lat="48.54148" lon="-2.82275">
        <ele>126</ele>
        <time>2025-06-07T08:39:57Z</time>
      </trkpt>
      <trkpt lat="48.54145" lon="-2.82254">
        <ele>126</ele>
        <time>2025-06-07T08:39:59Z</time>
      </trkpt>
      <trkpt lat="48.54135" lon="-2.82195">
        <ele>126</ele>
        <time>2025-06-07T08:40:06Z</time>
      </trkpt>
      <trkpt lat="48.54127" lon="-2.82144">
        <ele>127</ele>
        <time>2025-06-07T08:40:12Z</time>
      </trkpt>
      <trkpt lat="48.54125" lon="-2.82091">
        <ele>127</ele>
        <time>2025-06-07T08:40:19Z</time>
      </trkpt>
      <trkpt lat="48.54132" lon="-2.81839">
        <ele>130</ele>
        <time>2025-06-07T08:40:48Z</time>
      </trkpt>
      <trkpt lat="48.54136" lon="-2.8184">
        <ele>130</ele>
        <time>2025-06-07T08:40:49Z</time>
      </trkpt>
      <trkpt lat="48.54144" lon="-2.81847">
        <ele>129</ele>
        <time>2025-06-07T08:40:51Z</time>
      </trkpt>
      <trkpt lat="48.54191" lon="-2.81899">
        <ele>128</ele>
        <time>2025-06-07T08:41:01Z</time>
      </trkpt>
      <trkpt lat="48.54219" lon="-2.81935">
        <ele>127</ele>
        <time>2025-06-07T08:41:08Z</time>
      </trkpt>
      <trkpt lat="48.54237" lon="-2.81965">
        <ele>127</ele>
        <time>2025-06-07T08:41:12Z</time>
      </trkpt>
      <trkpt lat="48.54291" lon="-2.82071">
        <ele>127</ele>
        <time>2025-06-07T08:41:28Z</time>
      </trkpt>
      <trkpt lat="48.54294" lon="-2.82078">
        <ele>127</ele>
        <time>2025-06-07T08:41:29Z</time>
      </trkpt>
      <trkpt lat="48.54318" lon="-2.82123">
        <ele>127</ele>
        <time>2025-06-07T08:41:36Z</time>
      </trkpt>
      <trkpt lat="48.5436" lon="-2.82201">
        <ele>127</ele>
        <time>2025-06-07T08:41:48Z</time>
      </trkpt>
      <trkpt lat="48.54386" lon="-2.82246">
        <ele>127</ele>
        <time>2025-06-07T08:41:55Z</time>
      </trkpt>
      <trkpt lat="48.54419" lon="-2.8231">
        <ele>129</ele>
        <time>2025-06-07T08:42:04Z</time>
      </trkpt>
      <trkpt lat="48.54432" lon="-2.82332">
        <ele>130</ele>
        <time>2025-06-07T08:42:08Z</time>
      </trkpt>
      <trkpt lat="48.54448" lon="-2.82347">
        <ele>130</ele>
        <time>2025-06-07T08:42:11Z</time>
      </trkpt>
      <trkpt lat="48.54463" lon="-2.8236">
        <ele>130</ele>
        <time>2025-06-07T08:42:14Z</time>
      </trkpt>
      <trkpt lat="48.545" lon="-2.82388">
        <ele>131</ele>
        <time>2025-06-07T08:42:22Z</time>
      </trkpt>
      <trkpt lat="48.5451" lon="-2.82398">
        <ele>131</ele>
        <time>2025-06-07T08:42:24Z</time>
      </trkpt>
      <trkpt lat="48.54587" lon="-2.82467">
        <ele>132</ele>
        <time>2025-06-07T08:42:40Z</time>
      </trkpt>
      <trkpt lat="48.54606" lon="-2.82482">
        <ele>132</ele>
        <time>2025-06-07T08:42:44Z</time>
      </trkpt>
      <trkpt lat="48.54647" lon="-2.825">
        <ele>131</ele>
        <time>2025-06-07T08:42:51Z</time>
      </trkpt>
      <trkpt lat="48.54663" lon="-2.82506">
        <ele>131</ele>
        <time>2025-06-07T08:42:54Z</time>
      </trkpt>
      <trkpt lat="48.54857" lon="-2.82574">
        <ele>130</ele>
        <time>2025-06-07T08:43:30Z</time>
      </trkpt>
      <trkpt lat="48.54953" lon="-2.82612">
        <ele>129</ele>
        <time>2025-06-07T08:43:47Z</time>
      </trkpt>
      <trkpt lat="48.5501" lon="-2.82643">
        <ele>127</ele>
        <time>2025-06-07T08:43:58Z</time>
      </trkpt>
      <trkpt lat="48.55034" lon="-2.82648">
        <ele>126</ele>
        <time>2025-06-07T08:44:02Z</time>
      </trkpt>
      <trkpt lat="48.55059" lon="-2.82651">
        <ele>126</ele>
        <time>2025-06-07T08:44:07Z</time>
      </trkpt>
      <trkpt lat="48.55134" lon="-2.82647">
        <ele>123</ele>
        <time>2025-06-07T08:44:20Z</time>
      </trkpt>
      <trkpt lat="48.5523" lon="-2.82644">
        <ele>121</ele>
        <time>2025-06-07T08:44:37Z</time>
      </trkpt>
      <trkpt lat="48.55259" lon="-2.82647">
        <ele>120</ele>
        <time>2025-06-07T08:44:42Z</time>
      </trkpt>
      <trkpt lat="48.55301" lon="-2.82652">
        <ele>121</ele>
        <time>2025-06-07T08:44:50Z</time>
      </trkpt>
      <trkpt lat="48.55329" lon="-2.82661">
        <ele>121</ele>
        <time>2025-06-07T08:44:55Z</time>
      </trkpt>
      <trkpt lat="48.55459" lon="-2.82719">
        <ele>119</ele>
        <time>2025-06-07T08:45:19Z</time>
      </trkpt>
      <trkpt lat="48.55512" lon="-2.82749">
        <ele>119</ele>
        <time>2025-06-07T08:45:29Z</time>
      </trkpt>
      <trkpt lat="48.55542" lon="-2.82768">
        <ele>118</ele>
        <time>2025-06-07T08:45:35Z</time>
      </trkpt>
      <trkpt lat="48.5555" lon="-2.82769">
        <ele>118</ele>
        <time>2025-06-07T08:45:36Z</time>
      </trkpt>
      <trkpt lat="48.5556" lon="-2.82767">
        <ele>118</ele>
        <time>2025-06-07T08:45:38Z</time>
      </trkpt>
      <trkpt lat="48.55575" lon="-2.82757">
        <ele>118</ele>
        <time>2025-06-07T08:45:41Z</time>
      </trkpt>
      <trkpt lat="48.556" lon="-2.82734">
        <ele>118</ele>
        <time>2025-06-07T08:45:46Z</time>
      </trkpt>
      <trkpt lat="48.55635" lon="-2.82708">
        <ele>119</ele>
        <time>2025-06-07T08:45:53Z</time>
      </trkpt>
      <trkpt lat="48.55658" lon="-2.82693">
        <ele>119</ele>
        <time>2025-06-07T08:45:58Z</time>
      </trkpt>
      <trkpt lat="48.5569" lon="-2.82678">
        <ele>119</ele>
        <time>2025-06-07T08:46:04Z</time>
      </trkpt>
      <trkpt lat="48.55715" lon="-2.82662">
        <ele>119</ele>
        <time>2025-06-07T08:46:08Z</time>
      </trkpt>
      <trkpt lat="48.55753" lon="-2.82631">
        <ele>119</ele>
        <time>2025-06-07T08:46:16Z</time>
      </trkpt>
      <trkpt lat="48.5578" lon="-2.82605">
        <ele>119</ele>
        <time>2025-06-07T08:46:22Z</time>
      </trkpt>
      <trkpt lat="48.55801" lon="-2.8259">
        <ele>119</ele>
        <time>2025-06-07T08:46:26Z</time>
      </trkpt>
      <trkpt lat="48.55846" lon="-2.82566">
        <ele>118</ele>
        <time>2025-06-07T08:46:34Z</time>
      </trkpt>
      <trkpt lat="48.55867" lon="-2.82552">
        <ele>117</ele>
        <time>2025-06-07T08:46:39Z</time>
      </trkpt>
      <trkpt lat="48.55879" lon="-2.82541">
        <ele>117</ele>
        <time>2025-06-07T08:46:41Z</time>
      </trkpt>
      <trkpt lat="48.55925" lon="-2.82477">
        <ele>116</ele>
        <time>2025-06-07T08:46:52Z</time>
      </trkpt>
      <trkpt lat="48.55972" lon="-2.82427">
        <ele>117</ele>
        <time>2025-06-07T08:47:02Z</time>
      </trkpt>
      <trkpt lat="48.55999" lon="-2.82396">
        <ele>116</ele>
        <time>2025-06-07T08:47:08Z</time>
      </trkpt>
      <trkpt lat="48.56041" lon="-2.82357">
        <ele>116</ele>
        <time>2025-06-07T08:47:17Z</time>
      </trkpt>
      <trkpt lat="48.561" lon="-2.82303">
        <ele>114</ele>
        <time>2025-06-07T08:47:29Z</time>
      </trkpt>
      <trkpt lat="48.56125" lon="-2.8228">
        <ele>114</ele>
        <time>2025-06-07T08:47:35Z</time>
      </trkpt>
      <trkpt lat="48.56135" lon="-2.82267">
        <ele>113</ele>
        <time>2025-06-07T08:47:37Z</time>
      </trkpt>
      <trkpt lat="48.56147" lon="-2.8225">
        <ele>113</ele>
        <time>2025-06-07T08:47:40Z</time>
      </trkpt>
      <trkpt lat="48.56157" lon="-2.82231">
        <ele>113</ele>
        <time>2025-06-07T08:47:43Z</time>
      </trkpt>
      <trkpt lat="48.56172" lon="-2.82199">
        <ele>113</ele>
        <time>2025-06-07T08:47:47Z</time>
      </trkpt>
      <trkpt lat="48.56178" lon="-2.82182">
        <ele>113</ele>
        <time>2025-06-07T08:47:50Z</time>
      </trkpt>
      <trkpt lat="48.56188" lon="-2.82167">
        <ele>113</ele>
        <time>2025-06-07T08:47:52Z</time>
      </trkpt>
      <trkpt lat="48.56198" lon="-2.82169">
        <ele>113</ele>
        <time>2025-06-07T08:47:54Z</time>
      </trkpt>
      <trkpt lat="48.56219" lon="-2.82168">
        <ele>113</ele>
        <time>2025-06-07T08:47:58Z</time>
      </trkpt>
      <trkpt lat="48.56231" lon="-2.82171">
        <ele>113</ele>
        <time>2025-06-07T08:48:00Z</time>
      </trkpt>
      <trkpt lat="48.56237" lon="-2.82174">
        <ele>113</ele>
        <time>2025-06-07T08:48:01Z</time>
      </trkpt>
      <trkpt lat="48.56243" lon="-2.82178">
        <ele>113</ele>
        <time>2025-06-07T08:48:02Z</time>
      </trkpt>
      <trkpt lat="48.56265" lon="-2.82203">
        <ele>113</ele>
        <time>2025-06-07T08:48:07Z</time>
      </trkpt>
      <trkpt lat="48.5627" lon="-2.82207">
        <ele>113</ele>
        <time>2025-06-07T08:48:08Z</time>
      </trkpt>
      <trkpt lat="48.56276" lon="-2.82207">
        <ele>113</ele>
        <time>2025-06-07T08:48:09Z</time>
      </trkpt>
      <trkpt lat="48.56281" lon="-2.82205">
        <ele>113</ele>
        <time>2025-06-07T08:48:10Z</time>
      </trkpt>
      <trkpt lat="48.56292" lon="-2.82198">
        <ele>113</ele>
        <time>2025-06-07T08:48:12Z</time>
      </trkpt>
      <trkpt lat="48.56369" lon="-2.82133">
        <ele>113</ele>
        <time>2025-06-07T08:48:28Z</time>
      </trkpt>
      <trkpt lat="48.56432" lon="-2.82093">
        <ele>113</ele>
        <time>2025-06-07T08:48:40Z</time>
      </trkpt>
      <trkpt lat="48.56443" lon="-2.82087">
        <ele>113</ele>
        <time>2025-06-07T08:48:42Z</time>
      </trkpt>
      <trkpt lat="48.56454" lon="-2.82083">
        <ele>113</ele>
        <time>2025-06-07T08:48:44Z</time>
      </trkpt>
      <trkpt lat="48.56476" lon="-2.82082">
        <ele>112</ele>
        <time>2025-06-07T08:48:48Z</time>
      </trkpt>
      <trkpt lat="48.56488" lon="-2.82083">
        <ele>112</ele>
        <time>2025-06-07T08:48:50Z</time>
      </trkpt>
      <trkpt lat="48.56492" lon="-2.82084">
        <ele>112</ele>
        <time>2025-06-07T08:48:51Z</time>
      </trkpt>
      <trkpt lat="48.56495" lon="-2.82087">
        <ele>112</ele>
        <time>2025-06-07T08:48:52Z</time>
      </trkpt>
      <trkpt lat="48.56499" lon="-2.82095">
        <ele>112</ele>
        <time>2025-06-07T08:48:53Z</time>
      </trkpt>
      <trkpt lat="48.56508" lon="-2.82117">
        <ele>111</ele>
        <time>2025-06-07T08:48:56Z</time>
      </trkpt>
      <trkpt lat="48.56516" lon="-2.8213">
        <ele>111</ele>
        <time>2025-06-07T08:48:58Z</time>
      </trkpt>
      <trkpt lat="48.56524" lon="-2.82138">
        <ele>111</ele>
        <time>2025-06-07T08:49:00Z</time>
      </trkpt>
      <trkpt lat="48.56539" lon="-2.82151">
        <ele>111</ele>
        <time>2025-06-07T08:49:03Z</time>
      </trkpt>
      <trkpt lat="48.56568" lon="-2.82175">
        <ele>110</ele>
        <time>2025-06-07T08:49:09Z</time>
      </trkpt>
      <trkpt lat="48.56644" lon="-2.8224">
        <ele>108</ele>
        <time>2025-06-07T08:49:24Z</time>
      </trkpt>
      <trkpt lat="48.56687" lon="-2.82144">
        <ele>109</ele>
        <time>2025-06-07T08:49:38Z</time>
      </trkpt>
      <trkpt lat="48.56711" lon="-2.82089">
        <ele>109</ele>
        <time>2025-06-07T08:49:45Z</time>
      </trkpt>
      <trkpt lat="48.56754" lon="-2.81991">
        <ele>109</ele>
        <time>2025-06-07T08:49:59Z</time>
      </trkpt>
      <trkpt lat="48.56767" lon="-2.81959">
        <ele>109</ele>
        <time>2025-06-07T08:50:04Z</time>
      </trkpt>
      <trkpt lat="48.56798" lon="-2.81887">
        <ele>108</ele>
        <time>2025-06-07T08:50:14Z</time>
      </trkpt>
      <trkpt lat="48.56803" lon="-2.81875">
        <ele>108</ele>
        <time>2025-06-07T08:50:16Z</time>
      </trkpt>
      <trkpt lat="48.5681" lon="-2.81857">
        <ele>108</ele>
        <time>2025-06-07T08:50:18Z</time>
      </trkpt>
      <trkpt lat="48.5682" lon="-2.81839">
        <ele>108</ele>
        <time>2025-06-07T08:50:21Z</time>
      </trkpt>
      <trkpt lat="48.5683" lon="-2.81828">
        <ele>108</ele>
        <time>2025-06-07T08:50:23Z</time>
      </trkpt>
      <trkpt lat="48.56834" lon="-2.81826">
        <ele>108</ele>
        <time>2025-06-07T08:50:24Z</time>
      </trkpt>
      <trkpt lat="48.56849" lon="-2.81822">
        <ele>108</ele>
        <time>2025-06-07T08:50:26Z</time>
      </trkpt>
      <trkpt lat="48.56865" lon="-2.81819">
        <ele>108</ele>
        <time>2025-06-07T08:50:29Z</time>
      </trkpt>
      <trkpt lat="48.56887" lon="-2.81817">
        <ele>107</ele>
        <time>2025-06-07T08:50:33Z</time>
      </trkpt>
      <trkpt lat="48.56919" lon="-2.8181">
        <ele>107</ele>
        <time>2025-06-07T08:50:39Z</time>
      </trkpt>
      <trkpt lat="48.56932" lon="-2.81806">
        <ele>107</ele>
        <time>2025-06-07T08:50:41Z</time>
      </trkpt>
      <trkpt lat="48.56939" lon="-2.81802">
        <ele>106</ele>
        <time>2025-06-07T08:50:43Z</time>
      </trkpt>
      <trkpt lat="48.56948" lon="-2.81785">
        <ele>106</ele>
        <time>2025-06-07T08:50:45Z</time>
      </trkpt>
      <trkpt lat="48.56964" lon="-2.81757">
        <ele>106</ele>
        <time>2025-06-07T08:50:50Z</time>
      </trkpt>
      <trkpt lat="48.56975" lon="-2.8177">
        <ele>106</ele>
        <time>2025-06-07T08:50:52Z</time>
      </trkpt>
      <trkpt lat="48.56998" lon="-2.81799">
        <ele>105</ele>
        <time>2025-06-07T08:50:57Z</time>
      </trkpt>
      <trkpt lat="48.57027" lon="-2.81824">
        <ele>104</ele>
        <time>2025-06-07T08:51:03Z</time>
      </trkpt>
      <trkpt lat="48.57033" lon="-2.81827">
        <ele>104</ele>
        <time>2025-06-07T08:51:04Z</time>
      </trkpt>
      <trkpt lat="48.57038" lon="-2.81827">
        <ele>104</ele>
        <time>2025-06-07T08:51:05Z</time>
      </trkpt>
      <trkpt lat="48.57053" lon="-2.81821">
        <ele>103</ele>
        <time>2025-06-07T08:51:08Z</time>
      </trkpt>
      <trkpt lat="48.57075" lon="-2.81831">
        <ele>102</ele>
        <time>2025-06-07T08:51:12Z</time>
      </trkpt>
      <trkpt lat="48.57087" lon="-2.81834">
        <ele>102</ele>
        <time>2025-06-07T08:51:14Z</time>
      </trkpt>
      <trkpt lat="48.57091" lon="-2.81838">
        <ele>102</ele>
        <time>2025-06-07T08:51:15Z</time>
      </trkpt>
      <trkpt lat="48.57101" lon="-2.81853">
        <ele>101</ele>
        <time>2025-06-07T08:51:18Z</time>
      </trkpt>
      <trkpt lat="48.57116" lon="-2.81886">
        <ele>100</ele>
        <time>2025-06-07T08:51:22Z</time>
      </trkpt>
      <trkpt lat="48.57127" lon="-2.81903">
        <ele>100</ele>
        <time>2025-06-07T08:51:25Z</time>
      </trkpt>
      <trkpt lat="48.57137" lon="-2.81913">
        <ele>99</ele>
        <time>2025-06-07T08:51:27Z</time>
      </trkpt>
      <trkpt lat="48.57154" lon="-2.81927">
        <ele>98</ele>
        <time>2025-06-07T08:51:31Z</time>
      </trkpt>
      <trkpt lat="48.57197" lon="-2.81968">
        <ele>94</ele>
        <time>2025-06-07T08:51:40Z</time>
      </trkpt>
      <trkpt lat="48.5723" lon="-2.82008">
        <ele>92</ele>
        <time>2025-06-07T08:51:47Z</time>
      </trkpt>
      <trkpt lat="48.57266" lon="-2.81921">
        <ele>92</ele>
        <time>2025-06-07T08:51:59Z</time>
      </trkpt>
      <trkpt lat="48.57269" lon="-2.81913">
        <ele>92</ele>
        <time>2025-06-07T08:52:01Z</time>
      </trkpt>
      <trkpt lat="48.57273" lon="-2.81903">
        <ele>92</ele>
        <time>2025-06-07T08:52:02Z</time>
      </trkpt>
      <trkpt lat="48.57296" lon="-2.81851">
        <ele>92</ele>
        <time>2025-06-07T08:52:09Z</time>
      </trkpt>
      <trkpt lat="48.57309" lon="-2.81814">
        <ele>92</ele>
        <time>2025-06-07T08:52:14Z</time>
      </trkpt>
      <trkpt lat="48.57333" lon="-2.81761">
        <ele>92</ele>
        <time>2025-06-07T08:52:22Z</time>
      </trkpt>
      <trkpt lat="48.57345" lon="-2.81724">
        <ele>92</ele>
        <time>2025-06-07T08:52:27Z</time>
      </trkpt>
      <trkpt lat="48.57348" lon="-2.81699">
        <ele>92</ele>
        <time>2025-06-07T08:52:30Z</time>
      </trkpt>
      <trkpt lat="48.57348" lon="-2.81686">
        <ele>92</ele>
        <time>2025-06-07T08:52:31Z</time>
      </trkpt>
      <trkpt lat="48.57346" lon="-2.81668">
        <ele>93</ele>
        <time>2025-06-07T08:52:33Z</time>
      </trkpt>
      <trkpt lat="48.57346" lon="-2.8166">
        <ele>93</ele>
        <time>2025-06-07T08:52:34Z</time>
      </trkpt>
      <trkpt lat="48.57345" lon="-2.81628">
        <ele>93</ele>
        <time>2025-06-07T08:52:38Z</time>
      </trkpt>
      <trkpt lat="48.57348" lon="-2.81604">
        <ele>93</ele>
        <time>2025-06-07T08:52:41Z</time>
      </trkpt>
      <trkpt lat="48.57356" lon="-2.81578">
        <ele>93</ele>
        <time>2025-06-07T08:52:44Z</time>
      </trkpt>
      <trkpt lat="48.57365" lon="-2.81563">
        <ele>93</ele>
        <time>2025-06-07T08:52:47Z</time>
      </trkpt>
      <trkpt lat="48.57378" lon="-2.8156">
        <ele>93</ele>
        <time>2025-06-07T08:52:49Z</time>
      </trkpt>
      <trkpt lat="48.57391" lon="-2.81559">
        <ele>92</ele>
        <time>2025-06-07T08:52:51Z</time>
      </trkpt>
      <trkpt lat="48.57401" lon="-2.81558">
        <ele>92</ele>
        <time>2025-06-07T08:52:53Z</time>
      </trkpt>
      <trkpt lat="48.57474" lon="-2.8156">
        <ele>90</ele>
        <time>2025-06-07T08:53:06Z</time>
      </trkpt>
      <trkpt lat="48.57553" lon="-2.81563">
        <ele>88</ele>
        <time>2025-06-07T08:53:20Z</time>
      </trkpt>
      <trkpt lat="48.57592" lon="-2.81568">
        <ele>87</ele>
        <time>2025-06-07T08:53:27Z</time>
      </trkpt>
      <trkpt lat="48.57617" lon="-2.81576">
        <ele>87</ele>
        <time>2025-06-07T08:53:32Z</time>
      </trkpt>
      <trkpt lat="48.57707" lon="-2.81631">
        <ele>86</ele>
        <time>2025-06-07T08:53:49Z</time>
      </trkpt>
      <trkpt lat="48.57757" lon="-2.81663">
        <ele>86</ele>
        <time>2025-06-07T08:53:59Z</time>
      </trkpt>
      <trkpt lat="48.57783" lon="-2.81669">
        <ele>86</ele>
        <time>2025-06-07T08:54:03Z</time>
      </trkpt>
      <trkpt lat="48.57816" lon="-2.81674">
        <ele>86</ele>
        <time>2025-06-07T08:54:09Z</time>
      </trkpt>
      <trkpt lat="48.57839" lon="-2.81676">
        <ele>86</ele>
        <time>2025-06-07T08:54:13Z</time>
      </trkpt>
      <trkpt lat="48.57864" lon="-2.81685">
        <ele>86</ele>
        <time>2025-06-07T08:54:18Z</time>
      </trkpt>
      <trkpt lat="48.57879" lon="-2.81691">
        <ele>86</ele>
        <time>2025-06-07T08:54:21Z</time>
      </trkpt>
      <trkpt lat="48.57921" lon="-2.81712">
        <ele>86</ele>
        <time>2025-06-07T08:54:28Z</time>
      </trkpt>
      <trkpt lat="48.57975" lon="-2.8174">
        <ele>84</ele>
        <time>2025-06-07T08:54:39Z</time>
      </trkpt>
      <trkpt lat="48.58049" lon="-2.81778">
        <ele>82</ele>
        <time>2025-06-07T08:54:53Z</time>
      </trkpt>
      <trkpt lat="48.58098" lon="-2.81799">
        <ele>81</ele>
        <time>2025-06-07T08:55:02Z</time>
      </trkpt>
      <trkpt lat="48.58238" lon="-2.81868">
        <ele>81</ele>
        <time>2025-06-07T08:55:28Z</time>
      </trkpt>
      <trkpt lat="48.58325" lon="-2.81909">
        <ele>83</ele>
        <time>2025-06-07T08:55:44Z</time>
      </trkpt>
      <trkpt lat="48.58348" lon="-2.81922">
        <ele>82</ele>
        <time>2025-06-07T08:55:48Z</time>
      </trkpt>
      <trkpt lat="48.58373" lon="-2.81933">
        <ele>81</ele>
        <time>2025-06-07T08:55:53Z</time>
      </trkpt>
      <trkpt lat="48.58406" lon="-2.81945">
        <ele>80</ele>
        <time>2025-06-07T08:55:59Z</time>
      </trkpt>
      <trkpt lat="48.5844" lon="-2.81949">
        <ele>78</ele>
        <time>2025-06-07T08:56:05Z</time>
      </trkpt>
      <trkpt lat="48.5847" lon="-2.81948">
        <ele>77</ele>
        <time>2025-06-07T08:56:10Z</time>
      </trkpt>
      <trkpt lat="48.58512" lon="-2.81947">
        <ele>76</ele>
        <time>2025-06-07T08:56:18Z</time>
      </trkpt>
      <trkpt lat="48.58536" lon="-2.81947">
        <ele>76</ele>
        <time>2025-06-07T08:56:22Z</time>
      </trkpt>
      <trkpt lat="48.58581" lon="-2.8195">
        <ele>76</ele>
        <time>2025-06-07T08:56:30Z</time>
      </trkpt>
      <trkpt lat="48.586" lon="-2.8195">
        <ele>76</ele>
        <time>2025-06-07T08:56:34Z</time>
      </trkpt>
      <trkpt lat="48.58626" lon="-2.8195">
        <ele>75</ele>
        <time>2025-06-07T08:56:38Z</time>
      </trkpt>
      <trkpt lat="48.58636" lon="-2.81951">
        <ele>75</ele>
        <time>2025-06-07T08:56:40Z</time>
      </trkpt>
      <trkpt lat="48.58665" lon="-2.81958">
        <ele>75</ele>
        <time>2025-06-07T08:56:45Z</time>
      </trkpt>
      <trkpt lat="48.58701" lon="-2.81974">
        <ele>76</ele>
        <time>2025-06-07T08:56:52Z</time>
      </trkpt>
      <trkpt lat="48.58732" lon="-2.8199">
        <ele>77</ele>
        <time>2025-06-07T08:56:58Z</time>
      </trkpt>
      <trkpt lat="48.58759" lon="-2.81999">
        <ele>77</ele>
        <time>2025-06-07T08:57:03Z</time>
      </trkpt>
      <trkpt lat="48.5877" lon="-2.82001">
        <ele>77</ele>
        <time>2025-06-07T08:57:05Z</time>
      </trkpt>
      <trkpt lat="48.58791" lon="-2.82001">
        <ele>77</ele>
        <time>2025-06-07T08:57:08Z</time>
      </trkpt>
      <trkpt lat="48.58798" lon="-2.82001">
        <ele>77</ele>
        <time>2025-06-07T08:57:10Z</time>
      </trkpt>
      <trkpt lat="48.58823" lon="-2.82002">
        <ele>77</ele>
        <time>2025-06-07T08:57:14Z</time>
      </trkpt>
      <trkpt lat="48.58834" lon="-2.82006">
        <ele>77</ele>
        <time>2025-06-07T08:57:16Z</time>
      </trkpt>
      <trkpt lat="48.58828" lon="-2.82029">
        <ele>76</ele>
        <time>2025-06-07T08:57:19Z</time>
      </trkpt>
      <trkpt lat="48.58807" lon="-2.82097">
        <ele>73</ele>
        <time>2025-06-07T08:57:28Z</time>
      </trkpt>
      <trkpt lat="48.58804" lon="-2.82109">
        <ele>72</ele>
        <time>2025-06-07T08:57:29Z</time>
      </trkpt>
      <trkpt lat="48.58804" lon="-2.82122">
        <ele>72</ele>
        <time>2025-06-07T08:57:31Z</time>
      </trkpt>
      <trkpt lat="48.58806" lon="-2.8213">
        <ele>72</ele>
        <time>2025-06-07T08:57:32Z</time>
      </trkpt>
      <trkpt lat="48.58815" lon="-2.82152">
        <ele>71</ele>
        <time>2025-06-07T08:57:35Z</time>
      </trkpt>
      <trkpt lat="48.58829" lon="-2.82174">
        <ele>70</ele>
        <time>2025-06-07T08:57:38Z</time>
      </trkpt>
      <trkpt lat="48.58831" lon="-2.82177">
        <ele>70</ele>
        <time>2025-06-07T08:57:39Z</time>
      </trkpt>
      <trkpt lat="48.58835" lon="-2.82182">
        <ele>70</ele>
        <time>2025-06-07T08:57:40Z</time>
      </trkpt>
      <trkpt lat="48.5884" lon="-2.8219">
        <ele>69</ele>
        <time>2025-06-07T08:57:41Z</time>
      </trkpt>
      <trkpt lat="48.58844" lon="-2.82195">
        <ele>69</ele>
        <time>2025-06-07T08:57:42Z</time>
      </trkpt>
      <trkpt lat="48.58849" lon="-2.82203">
        <ele>69</ele>
        <time>2025-06-07T08:57:43Z</time>
      </trkpt>
      <trkpt lat="48.58862" lon="-2.82218">
        <ele>68</ele>
        <time>2025-06-07T08:57:46Z</time>
      </trkpt>
      <trkpt lat="48.58885" lon="-2.8224">
        <ele>67</ele>
        <time>2025-06-07T08:57:51Z</time>
      </trkpt>
      <trkpt lat="48.58917" lon="-2.82263">
        <ele>66</ele>
        <time>2025-06-07T08:57:57Z</time>
      </trkpt>
      <trkpt lat="48.58931" lon="-2.82271">
        <ele>65</ele>
        <time>2025-06-07T08:58:00Z</time>
      </trkpt>
      <trkpt lat="48.58952" lon="-2.82279">
        <ele>64</ele>
        <time>2025-06-07T08:58:04Z</time>
      </trkpt>
      <trkpt lat="48.58969" lon="-2.82283">
        <ele>63</ele>
        <time>2025-06-07T08:58:07Z</time>
      </trkpt>
      <trkpt lat="48.59038" lon="-2.82277">
        <ele>60</ele>
        <time>2025-06-07T08:58:19Z</time>
      </trkpt>
      <trkpt lat="48.59058" lon="-2.82284">
        <ele>59</ele>
        <time>2025-06-07T08:58:23Z</time>
      </trkpt>
      <trkpt lat="48.59111" lon="-2.82334">
        <ele>55</ele>
        <time>2025-06-07T08:58:34Z</time>
      </trkpt>
      <trkpt lat="48.59128" lon="-2.82344">
        <ele>54</ele>
        <time>2025-06-07T08:58:37Z</time>
      </trkpt>
      <trkpt lat="48.59175" lon="-2.82377">
        <ele>52</ele>
        <time>2025-06-07T08:58:47Z</time>
      </trkpt>
      <trkpt lat="48.59177" lon="-2.82378">
        <ele>52</ele>
        <time>2025-06-07T08:58:47Z</time>
      </trkpt>
      <trkpt lat="48.59191" lon="-2.82397">
        <ele>51</ele>
        <time>2025-06-07T08:58:50Z</time>
      </trkpt>
      <trkpt lat="48.59266" lon="-2.82481">
        <ele>42</ele>
        <time>2025-06-07T08:59:07Z</time>
      </trkpt>
      <trkpt lat="48.59358" lon="-2.82573">
        <ele>28</ele>
        <time>2025-06-07T08:59:27Z</time>
      </trkpt>
      <trkpt lat="48.59369" lon="-2.8258">
        <ele>27</ele>
        <time>2025-06-07T08:59:29Z</time>
      </trkpt>
      <trkpt lat="48.59377" lon="-2.82584">
        <ele>26</ele>
        <time>2025-06-07T08:59:30Z</time>
      </trkpt>
      <trkpt lat="48.59385" lon="-2.82586">
        <ele>25</ele>
        <time>2025-06-07T08:59:32Z</time>
      </trkpt>
      <trkpt lat="48.59399" lon="-2.82588">
        <ele>24</ele>
        <time>2025-06-07T08:59:34Z</time>
      </trkpt>
      <trkpt lat="48.59405" lon="-2.8259">
        <ele>24</ele>
        <time>2025-06-07T08:59:35Z</time>
      </trkpt>
      <trkpt lat="48.59412" lon="-2.8259">
        <ele>23</ele>
        <time>2025-06-07T08:59:36Z</time>
      </trkpt>
      <trkpt lat="48.59419" lon="-2.82588">
        <ele>23</ele>
        <time>2025-06-07T08:59:38Z</time>
      </trkpt>
      <trkpt lat="48.59428" lon="-2.82585">
        <ele>23</ele>
        <time>2025-06-07T08:59:39Z</time>
      </trkpt>
      <trkpt lat="48.59512" lon="-2.82556">
        <ele>21</ele>
        <time>2025-06-07T08:59:55Z</time>
      </trkpt>
      <trkpt lat="48.59542" lon="-2.8254">
        <ele>19</ele>
        <time>2025-06-07T09:00:00Z</time>
      </trkpt>
      <trkpt lat="48.59546" lon="-2.82536">
        <ele>18</ele>
        <time>2025-06-07T09:00:01Z</time>
      </trkpt>
      <trkpt lat="48.59565" lon="-2.82516">
        <ele>16</ele>
        <time>2025-06-07T09:00:05Z</time>
      </trkpt>
      <trkpt lat="48.59597" lon="-2.82475">
        <ele>12</ele>
        <time>2025-06-07T09:00:13Z</time>
      </trkpt>
      <trkpt lat="48.59609" lon="-2.8246">
        <ele>12</ele>
        <time>2025-06-07T09:00:16Z</time>
      </trkpt>
      <trkpt lat="48.59638" lon="-2.82425">
        <ele>10</ele>
        <time>2025-06-07T09:00:22Z</time>
      </trkpt>
      <trkpt lat="48.59645" lon="-2.82416">
        <ele>10</ele>
        <time>2025-06-07T09:00:24Z</time>
      </trkpt>
      <trkpt lat="48.59661" lon="-2.82403">
        <ele>9</ele>
        <time>2025-06-07T09:00:27Z</time>
      </trkpt>
      <trkpt lat="48.59672" lon="-2.82398">
        <ele>8</ele>
        <time>2025-06-07T09:00:29Z</time>
      </trkpt>
      <trkpt lat="48.59684" lon="-2.82395">
        <ele>8</ele>
        <time>2025-06-07T09:00:31Z</time>
      </trkpt>
      <trkpt lat="48.59707" lon="-2.82399">
        <ele>7</ele>
        <time>2025-06-07T09:00:35Z</time>
      </trkpt>
      <trkpt lat="48.59718" lon="-2.82403">
        <ele>7</ele>
        <time>2025-06-07T09:00:37Z</time>
      </trkpt>
      <trkpt lat="48.59722" lon="-2.82386">
        <ele>6</ele>
        <time>2025-06-07T09:00:39Z</time>
      </trkpt>
      <trkpt lat="48.59725" lon="-2.82371">
        <ele>5</ele>
        <time>2025-06-07T09:00:41Z</time>
      </trkpt>
      <trkpt lat="48.59727" lon="-2.82373">
        <ele>5</ele>
        <time>2025-06-07T09:00:42Z</time>
      </trkpt>
      <trkpt lat="48.5976" lon="-2.82394">
        <ele>5</ele>
        <time>2025-06-07T09:00:48Z</time>
      </trkpt>
      <trkpt lat="48.59768" lon="-2.82395">
        <ele>5</ele>
        <time>2025-06-07T09:00:50Z</time>
      </trkpt>
      <trkpt lat="48.59772" lon="-2.82395">
        <ele>5</ele>
        <time>2025-06-07T09:00:50Z</time>
      </trkpt>
      <trkpt lat="48.59781" lon="-2.82396">
        <ele>5</ele>
        <time>2025-06-07T09:00:52Z</time>
      </trkpt>
      <trkpt lat="48.59783" lon="-2.82395">
        <ele>4</ele>
        <time>2025-06-07T09:00:52Z</time>
      </trkpt>
      <trkpt lat="48.59806" lon="-2.82396">
        <ele>4</ele>
        <time>2025-06-07T09:00:56Z</time>
      </trkpt>
      <trkpt lat="48.59815" lon="-2.82396">
        <ele>4</ele>
        <time>2025-06-07T09:00:58Z</time>
      </trkpt>
      <trkpt lat="48.5983" lon="-2.82399">
        <ele>3</ele>
        <time>2025-06-07T09:01:01Z</time>
      </trkpt>
      <trkpt lat="48.59842" lon="-2.82405">
        <ele>3</ele>
        <time>2025-06-07T09:01:03Z</time>
      </trkpt>
      <trkpt lat="48.59868" lon="-2.82418">
        <ele>3</ele>
        <time>2025-06-07T09:01:08Z</time>
      </trkpt>
      <trkpt lat="48.59879" lon="-2.82423">
        <ele>3</ele>
        <time>2025-06-07T09:01:10Z</time>
      </trkpt>
      <trkpt lat="48.59893" lon="-2.82429">
        <ele>2</ele>
        <time>2025-06-07T09:01:12Z</time>
      </trkpt>
      <trkpt lat="48.5992" lon="-2.82442">
        <ele>2</ele>
        <time>2025-06-07T09:01:17Z</time>
      </trkpt>
      <trkpt lat="48.59976" lon="-2.82469">
        <ele>4</ele>
        <time>2025-06-07T09:01:28Z</time>
      </trkpt>
      <trkpt lat="48.59999" lon="-2.82482">
        <ele>5</ele>
        <time>2025-06-07T09:01:32Z</time>
      </trkpt>
      <trkpt lat="48.60002" lon="-2.82484">
        <ele>5</ele>
        <time>2025-06-07T09:01:33Z</time>
      </trkpt>
      <trkpt lat="48.6" lon="-2.82503">
        <ele>5</ele>
        <time>2025-06-07T09:01:35Z</time>
      </trkpt>
      <trkpt lat="48.59999" lon="-2.82505">
        <ele>5</ele>
        <time>2025-06-07T09:01:35Z</time>
      </trkpt>
      <trkpt lat="48.59998" lon="-2.82515">
        <ele>5</ele>
        <time>2025-06-07T09:01:37Z</time>
      </trkpt>
      <trkpt lat="48.59996" lon="-2.8253">
        <ele>5</ele>
        <time>2025-06-07T09:01:38Z</time>
      </trkpt>
      <trkpt lat="48.60009" lon="-2.82536">
        <ele>5</ele>
        <time>2025-06-07T09:01:41Z</time>
      </trkpt>
      <trkpt lat="48.60016" lon="-2.82542">
        <ele>5</ele>
        <time>2025-06-07T09:01:42Z</time>
      </trkpt>
      <trkpt lat="48.60022" lon="-2.82553">
        <ele>5</ele>
        <time>2025-06-07T09:01:44Z</time>
      </trkpt>
      <trkpt lat="48.60023" lon="-2.82563">
        <ele>5</ele>
        <time>2025-06-07T09:01:45Z</time>
      </trkpt>
      <trkpt lat="48.60023" lon="-2.82575">
        <ele>5</ele>
        <time>2025-06-07T09:01:47Z</time>
      </trkpt>
      <trkpt lat="48.60023" lon="-2.82626">
        <ele>6</ele>
        <time>2025-06-07T09:01:53Z</time>
      </trkpt>
      <trkpt lat="48.60023" lon="-2.8264">
        <ele>6</ele>
        <time>2025-06-07T09:01:54Z</time>
      </trkpt>
      <trkpt lat="48.60031" lon="-2.82648">
        <ele>6</ele>
        <time>2025-06-07T09:01:56Z</time>
      </trkpt>
      <trkpt lat="48.60038" lon="-2.82659">
        <ele>6</ele>
        <time>2025-06-07T09:01:58Z</time>
      </trkpt>
      <trkpt lat="48.60049" lon="-2.82676">
        <ele>6</ele>
        <time>2025-06-07T09:02:00Z</time>
      </trkpt>
      <trkpt lat="48.6006" lon="-2.82697">
        <ele>6</ele>
        <time>2025-06-07T09:02:04Z</time>
      </trkpt>
      <trkpt lat="48.60073" lon="-2.82722">
        <ele>7</ele>
        <time>2025-06-07T09:02:07Z</time>
      </trkpt>
      <trkpt lat="48.60079" lon="-2.82733">
        <ele>7</ele>
        <time>2025-06-07T09:02:09Z</time>
      </trkpt>
      <trkpt lat="48.60085" lon="-2.82745">
        <ele>7</ele>
        <time>2025-06-07T09:02:11Z</time>
      </trkpt>
      <trkpt lat="48.60106" lon="-2.82782">
        <ele>8</ele>
        <time>2025-06-07T09:02:17Z</time>
      </trkpt>
      <trkpt lat="48.60123" lon="-2.82815">
        <ele>9</ele>
        <time>2025-06-07T09:02:21Z</time>
      </trkpt>
      <trkpt lat="48.60143" lon="-2.82851">
        <ele>8</ele>
        <time>2025-06-07T09:02:27Z</time>
      </trkpt>
      <trkpt lat="48.60153" lon="-2.8287">
        <ele>8</ele>
        <time>2025-06-07T09:02:30Z</time>
      </trkpt>
      <trkpt lat="48.60169" lon="-2.82898">
        <ele>7</ele>
        <time>2025-06-07T09:02:34Z</time>
      </trkpt>
      <trkpt lat="48.60174" lon="-2.82909">
        <ele>7</ele>
        <time>2025-06-07T09:02:36Z</time>
      </trkpt>
      <trkpt lat="48.60178" lon="-2.82918">
        <ele>8</ele>
        <time>2025-06-07T09:02:37Z</time>
      </trkpt>
      <trkpt lat="48.60189" lon="-2.82948">
        <ele>8</ele>
        <time>2025-06-07T09:02:41Z</time>
      </trkpt>
      <trkpt lat="48.60199" lon="-2.82987">
        <ele>8</ele>
        <time>2025-06-07T09:02:46Z</time>
      </trkpt>
      <trkpt lat="48.60203" lon="-2.83011">
        <ele>7</ele>
        <time>2025-06-07T09:02:49Z</time>
      </trkpt>
      <trkpt lat="48.60207" lon="-2.83035">
        <ele>7</ele>
        <time>2025-06-07T09:02:52Z</time>
      </trkpt>
      <trkpt lat="48.6021" lon="-2.83063">
        <ele>7</ele>
        <time>2025-06-07T09:02:55Z</time>
      </trkpt>
      <trkpt lat="48.60211" lon="-2.83102">
        <ele>6</ele>
        <time>2025-06-07T09:03:00Z</time>
      </trkpt>
      <trkpt lat="48.60211" lon="-2.83125">
        <ele>6</ele>
        <time>2025-06-07T09:03:02Z</time>
      </trkpt>
      <trkpt lat="48.60207" lon="-2.83162">
        <ele>6</ele>
        <time>2025-06-07T09:03:07Z</time>
      </trkpt>
      <trkpt lat="48.602" lon="-2.83201">
        <ele>7</ele>
        <time>2025-06-07T09:03:12Z</time>
      </trkpt>
      <trkpt lat="48.60183" lon="-2.83269">
        <ele>8</ele>
        <time>2025-06-07T09:03:20Z</time>
      </trkpt>
      <trkpt lat="48.60151" lon="-2.8338">
        <ele>8</ele>
        <time>2025-06-07T09:03:34Z</time>
      </trkpt>
      <trkpt lat="48.60146" lon="-2.83401">
        <ele>7</ele>
        <time>2025-06-07T09:03:37Z</time>
      </trkpt>
      <trkpt lat="48.60141" lon="-2.83423">
        <ele>7</ele>
        <time>2025-06-07T09:03:40Z</time>
      </trkpt>
      <trkpt lat="48.60137" lon="-2.83444">
        <ele>8</ele>
        <time>2025-06-07T09:03:42Z</time>
      </trkpt>
      <trkpt lat="48.60135" lon="-2.8346">
        <ele>9</ele>
        <time>2025-06-07T09:03:44Z</time>
      </trkpt>
      <trkpt lat="48.60134" lon="-2.83471">
        <ele>9</ele>
        <time>2025-06-07T09:03:46Z</time>
      </trkpt>
      <trkpt lat="48.60132" lon="-2.83489">
        <ele>10</ele>
        <time>2025-06-07T09:03:48Z</time>
      </trkpt>
      <trkpt lat="48.60133" lon="-2.83523">
        <ele>11</ele>
        <time>2025-06-07T09:03:52Z</time>
      </trkpt>
      <trkpt lat="48.60135" lon="-2.83558">
        <ele>13</ele>
        <time>2025-06-07T09:03:56Z</time>
      </trkpt>
      <trkpt lat="48.6013" lon="-2.83561">
        <ele>12</ele>
        <time>2025-06-07T09:03:57Z</time>
      </trkpt>
      <trkpt lat="48.60127" lon="-2.83567">
        <ele>12</ele>
        <time>2025-06-07T09:03:58Z</time>
      </trkpt>
      <trkpt lat="48.60124" lon="-2.83578">
        <ele>12</ele>
        <time>2025-06-07T09:03:59Z</time>
      </trkpt>
      <trkpt lat="48.60124" lon="-2.83598">
        <ele>12</ele>
        <time>2025-06-07T09:04:01Z</time>
      </trkpt>
      <trkpt lat="48.60127" lon="-2.83615">
        <ele>13</ele>
        <time>2025-06-07T09:04:04Z</time>
      </trkpt>
      <trkpt lat="48.60131" lon="-2.83634">
        <ele>13</ele>
        <time>2025-06-07T09:04:06Z</time>
      </trkpt>
      <trkpt lat="48.60139" lon="-2.83656">
        <ele>14</ele>
        <time>2025-06-07T09:04:09Z</time>
      </trkpt>
      <trkpt lat="48.60168" lon="-2.83719">
        <ele>13</ele>
        <time>2025-06-07T09:04:18Z</time>
      </trkpt>
      <trkpt lat="48.60183" lon="-2.83758">
        <ele>12</ele>
        <time>2025-06-07T09:04:23Z</time>
      </trkpt>
      <trkpt lat="48.60189" lon="-2.83775">
        <ele>12</ele>
        <time>2025-06-07T09:04:25Z</time>
      </trkpt>
      <trkpt lat="48.60199" lon="-2.83812">
        <ele>11</ele>
        <time>2025-06-07T09:04:30Z</time>
      </trkpt>
      <trkpt lat="48.60204" lon="-2.83838">
        <ele>10</ele>
        <time>2025-06-07T09:04:33Z</time>
      </trkpt>
      <trkpt lat="48.60212" lon="-2.83874">
        <ele>10</ele>
        <time>2025-06-07T09:04:38Z</time>
      </trkpt>
      <trkpt lat="48.60215" lon="-2.83887">
        <ele>11</ele>
        <time>2025-06-07T09:04:39Z</time>
      </trkpt>
      <trkpt lat="48.6022" lon="-2.83907">
        <ele>11</ele>
        <time>2025-06-07T09:04:42Z</time>
      </trkpt>
      <trkpt lat="48.60226" lon="-2.83933">
        <ele>11</ele>
        <time>2025-06-07T09:04:45Z</time>
      </trkpt>
      <trkpt lat="48.60234" lon="-2.83958">
        <ele>11</ele>
        <time>2025-06-07T09:04:48Z</time>
      </trkpt>
      <trkpt lat="48.60245" lon="-2.83991">
        <ele>11</ele>
        <time>2025-06-07T09:04:53Z</time>
      </trkpt>
      <trkpt lat="48.60253" lon="-2.84009">
        <ele>11</ele>
        <time>2025-06-07T09:04:55Z</time>
      </trkpt>
      <trkpt lat="48.60267" lon="-2.84036">
        <ele>11</ele>
        <time>2025-06-07T09:04:59Z</time>
      </trkpt>
      <trkpt lat="48.60296" lon="-2.84086">
        <ele>10</ele>
        <time>2025-06-07T09:05:07Z</time>
      </trkpt>
      <trkpt lat="48.60345" lon="-2.84174">
        <ele>12</ele>
        <time>2025-06-07T09:05:21Z</time>
      </trkpt>
      <trkpt lat="48.60361" lon="-2.84209">
        <ele>13</ele>
        <time>2025-06-07T09:05:26Z</time>
      </trkpt>
      <trkpt lat="48.60379" lon="-2.84253">
        <ele>13</ele>
        <time>2025-06-07T09:05:32Z</time>
      </trkpt>
      <trkpt lat="48.60397" lon="-2.84309">
        <ele>13</ele>
        <time>2025-06-07T09:05:39Z</time>
      </trkpt>
      <trkpt lat="48.60402" lon="-2.84331">
        <ele>12</ele>
        <time>2025-06-07T09:05:42Z</time>
      </trkpt>
      <trkpt lat="48.60408" lon="-2.84357">
        <ele>12</ele>
        <time>2025-06-07T09:05:45Z</time>
      </trkpt>
      <trkpt lat="48.60413" lon="-2.84388">
        <ele>11</ele>
        <time>2025-06-07T09:05:49Z</time>
      </trkpt>
      <trkpt lat="48.60419" lon="-2.84431">
        <ele>11</ele>
        <time>2025-06-07T09:05:54Z</time>
      </trkpt>
      <trkpt lat="48.60423" lon="-2.84467">
        <ele>12</ele>
        <time>2025-06-07T09:05:58Z</time>
      </trkpt>
      <trkpt lat="48.60428" lon="-2.84529">
        <ele>13</ele>
        <time>2025-06-07T09:06:06Z</time>
      </trkpt>
      <trkpt lat="48.60428" lon="-2.84543">
        <ele>13</ele>
        <time>2025-06-07T09:06:07Z</time>
      </trkpt>
      <trkpt lat="48.60429" lon="-2.84584">
        <ele>13</ele>
        <time>2025-06-07T09:06:12Z</time>
      </trkpt>
      <trkpt lat="48.60429" lon="-2.84639">
        <ele>13</ele>
        <time>2025-06-07T09:06:19Z</time>
      </trkpt>
      <trkpt lat="48.60426" lon="-2.84694">
        <ele>14</ele>
        <time>2025-06-07T09:06:25Z</time>
      </trkpt>
      <trkpt lat="48.60422" lon="-2.84742">
        <ele>16</ele>
        <time>2025-06-07T09:06:31Z</time>
      </trkpt>
      <trkpt lat="48.60416" lon="-2.84838">
        <ele>16</ele>
        <time>2025-06-07T09:06:42Z</time>
      </trkpt>
      <trkpt lat="48.60414" lon="-2.8487">
        <ele>19</ele>
        <time>2025-06-07T09:06:46Z</time>
      </trkpt>
      <trkpt lat="48.6041" lon="-2.84931">
        <ele>23</ele>
        <time>2025-06-07T09:06:53Z</time>
      </trkpt>
      <trkpt lat="48.60405" lon="-2.84962">
        <ele>24</ele>
        <time>2025-06-07T09:06:57Z</time>
      </trkpt>
      <trkpt lat="48.60397" lon="-2.84986">
        <ele>24</ele>
        <time>2025-06-07T09:07:00Z</time>
      </trkpt>
      <trkpt lat="48.60386" lon="-2.85009">
        <ele>24</ele>
        <time>2025-06-07T09:07:03Z</time>
      </trkpt>
      <trkpt lat="48.60361" lon="-2.85044">
        <ele>23</ele>
        <time>2025-06-07T09:07:10Z</time>
      </trkpt>
      <trkpt lat="48.60339" lon="-2.85073">
        <ele>22</ele>
        <time>2025-06-07T09:07:15Z</time>
      </trkpt>
      <trkpt lat="48.60321" lon="-2.85093">
        <ele>22</ele>
        <time>2025-06-07T09:07:19Z</time>
      </trkpt>
      <trkpt lat="48.60288" lon="-2.8513">
        <ele>23</ele>
        <time>2025-06-07T09:07:26Z</time>
      </trkpt>
      <trkpt lat="48.6025" lon="-2.85169">
        <ele>22</ele>
        <time>2025-06-07T09:07:34Z</time>
      </trkpt>
      <trkpt lat="48.60194" lon="-2.85227">
        <ele>20</ele>
        <time>2025-06-07T09:07:46Z</time>
      </trkpt>
      <trkpt lat="48.60176" lon="-2.85247">
        <ele>19</ele>
        <time>2025-06-07T09:07:50Z</time>
      </trkpt>
      <trkpt lat="48.60168" lon="-2.85261">
        <ele>18</ele>
        <time>2025-06-07T09:07:52Z</time>
      </trkpt>
      <trkpt lat="48.60163" lon="-2.85273">
        <ele>19</ele>
        <time>2025-06-07T09:07:54Z</time>
      </trkpt>
      <trkpt lat="48.60159" lon="-2.85285">
        <ele>20</ele>
        <time>2025-06-07T09:07:56Z</time>
      </trkpt>
      <trkpt lat="48.60154" lon="-2.85303">
        <ele>21</ele>
        <time>2025-06-07T09:07:58Z</time>
      </trkpt>
      <trkpt lat="48.60151" lon="-2.85318">
        <ele>22</ele>
        <time>2025-06-07T09:08:00Z</time>
      </trkpt>
      <trkpt lat="48.6015" lon="-2.85334">
        <ele>23</ele>
        <time>2025-06-07T09:08:02Z</time>
      </trkpt>
      <trkpt lat="48.60149" lon="-2.85361">
        <ele>23</ele>
        <time>2025-06-07T09:08:05Z</time>
      </trkpt>
      <trkpt lat="48.60152" lon="-2.85389">
        <ele>24</ele>
        <time>2025-06-07T09:08:08Z</time>
      </trkpt>
      <trkpt lat="48.60159" lon="-2.85428">
        <ele>25</ele>
        <time>2025-06-07T09:08:13Z</time>
      </trkpt>
      <trkpt lat="48.60174" lon="-2.85489">
        <ele>24</ele>
        <time>2025-06-07T09:08:21Z</time>
      </trkpt>
      <trkpt lat="48.60175" lon="-2.85501">
        <ele>23</ele>
        <time>2025-06-07T09:08:22Z</time>
      </trkpt>
      <trkpt lat="48.60176" lon="-2.8552">
        <ele>23</ele>
        <time>2025-06-07T09:08:24Z</time>
      </trkpt>
      <trkpt lat="48.60175" lon="-2.85598">
        <ele>22</ele>
        <time>2025-06-07T09:08:33Z</time>
      </trkpt>
      <trkpt lat="48.60173" lon="-2.85609">
        <ele>22</ele>
        <time>2025-06-07T09:08:35Z</time>
      </trkpt>
      <trkpt lat="48.60164" lon="-2.85639">
        <ele>21</ele>
        <time>2025-06-07T09:08:39Z</time>
      </trkpt>
      <trkpt lat="48.6016" lon="-2.85655">
        <ele>20</ele>
        <time>2025-06-07T09:08:41Z</time>
      </trkpt>
      <trkpt lat="48.60155" lon="-2.85758">
        <ele>22</ele>
        <time>2025-06-07T09:08:53Z</time>
      </trkpt>
      <trkpt lat="48.60151" lon="-2.85804">
        <ele>24</ele>
        <time>2025-06-07T09:08:58Z</time>
      </trkpt>
      <trkpt lat="48.60147" lon="-2.85874">
        <ele>26</ele>
        <time>2025-06-07T09:09:07Z</time>
      </trkpt>
      <trkpt lat="48.60147" lon="-2.859">
        <ele>26</ele>
        <time>2025-06-07T09:09:10Z</time>
      </trkpt>
      <trkpt lat="48.60148" lon="-2.85928">
        <ele>26</ele>
        <time>2025-06-07T09:09:13Z</time>
      </trkpt>
      <trkpt lat="48.60145" lon="-2.85948">
        <ele>27</ele>
        <time>2025-06-07T09:09:15Z</time>
      </trkpt>
      <trkpt lat="48.60138" lon="-2.85955">
        <ele>28</ele>
        <time>2025-06-07T09:09:17Z</time>
      </trkpt>
      <trkpt lat="48.60134" lon="-2.85967">
        <ele>29</ele>
        <time>2025-06-07T09:09:18Z</time>
      </trkpt>
      <trkpt lat="48.60138" lon="-2.85982">
        <ele>29</ele>
        <time>2025-06-07T09:09:20Z</time>
      </trkpt>
      <trkpt lat="48.60162" lon="-2.86036">
        <ele>28</ele>
        <time>2025-06-07T09:09:28Z</time>
      </trkpt>
      <trkpt lat="48.60166" lon="-2.86067">
        <ele>30</ele>
        <time>2025-06-07T09:09:32Z</time>
      </trkpt>
      <trkpt lat="48.60149" lon="-2.86154">
        <ele>36</ele>
        <time>2025-06-07T09:09:42Z</time>
      </trkpt>
      <trkpt lat="48.60147" lon="-2.86206">
        <ele>40</ele>
        <time>2025-06-07T09:09:48Z</time>
      </trkpt>
      <trkpt lat="48.60162" lon="-2.86277">
        <ele>43</ele>
        <time>2025-06-07T09:09:57Z</time>
      </trkpt>
      <trkpt lat="48.60161" lon="-2.86302">
        <ele>44</ele>
        <time>2025-06-07T09:10:00Z</time>
      </trkpt>
      <trkpt lat="48.60152" lon="-2.86361">
        <ele>45</ele>
        <time>2025-06-07T09:10:07Z</time>
      </trkpt>
      <trkpt lat="48.60145" lon="-2.8645">
        <ele>46</ele>
        <time>2025-06-07T09:10:18Z</time>
      </trkpt>
      <trkpt lat="48.60146" lon="-2.86533">
        <ele>46</ele>
        <time>2025-06-07T09:10:28Z</time>
      </trkpt>
      <trkpt lat="48.6015" lon="-2.86613">
        <ele>45</ele>
        <time>2025-06-07T09:10:37Z</time>
      </trkpt>
      <trkpt lat="48.60166" lon="-2.86698">
        <ele>44</ele>
        <time>2025-06-07T09:10:47Z</time>
      </trkpt>
      <trkpt lat="48.60174" lon="-2.86727">
        <ele>44</ele>
        <time>2025-06-07T09:10:51Z</time>
      </trkpt>
      <trkpt lat="48.60178" lon="-2.86754">
        <ele>45</ele>
        <time>2025-06-07T09:10:54Z</time>
      </trkpt>
      <trkpt lat="48.60172" lon="-2.86843">
        <ele>47</ele>
        <time>2025-06-07T09:11:05Z</time>
      </trkpt>
      <trkpt lat="48.60161" lon="-2.86888">
        <ele>48</ele>
        <time>2025-06-07T09:11:11Z</time>
      </trkpt>
      <trkpt lat="48.60143" lon="-2.86926">
        <ele>50</ele>
        <time>2025-06-07T09:11:16Z</time>
      </trkpt>
      <trkpt lat="48.60129" lon="-2.86955">
        <ele>51</ele>
        <time>2025-06-07T09:11:20Z</time>
      </trkpt>
      <trkpt lat="48.60103" lon="-2.87029">
        <ele>54</ele>
        <time>2025-06-07T09:11:30Z</time>
      </trkpt>
      <trkpt lat="48.60091" lon="-2.87059">
        <ele>55</ele>
        <time>2025-06-07T09:11:34Z</time>
      </trkpt>
      <trkpt lat="48.60083" lon="-2.87079">
        <ele>56</ele>
        <time>2025-06-07T09:11:37Z</time>
      </trkpt>
      <trkpt lat="48.60076" lon="-2.87104">
        <ele>57</ele>
        <time>2025-06-07T09:11:40Z</time>
      </trkpt>
      <trkpt lat="48.60062" lon="-2.87149">
        <ele>59</ele>
        <time>2025-06-07T09:11:46Z</time>
      </trkpt>
      <trkpt lat="48.60049" lon="-2.87182">
        <ele>61</ele>
        <time>2025-06-07T09:11:51Z</time>
      </trkpt>
      <trkpt lat="48.60024" lon="-2.87234">
        <ele>63</ele>
        <time>2025-06-07T09:11:58Z</time>
      </trkpt>
      <trkpt lat="48.59981" lon="-2.87331">
        <ele>67</ele>
        <time>2025-06-07T09:12:12Z</time>
      </trkpt>
      <trkpt lat="48.59947" lon="-2.87377">
        <ele>69</ele>
        <time>2025-06-07T09:12:20Z</time>
      </trkpt>
      <trkpt lat="48.59918" lon="-2.87386">
        <ele>69</ele>
        <time>2025-06-07T09:12:25Z</time>
      </trkpt>
      <trkpt lat="48.59885" lon="-2.87392">
        <ele>69</ele>
        <time>2025-06-07T09:12:31Z</time>
      </trkpt>
      <trkpt lat="48.59863" lon="-2.87499">
        <ele>71</ele>
        <time>2025-06-07T09:12:44Z</time>
      </trkpt>
      <trkpt lat="48.59845" lon="-2.87575">
        <ele>72</ele>
        <time>2025-06-07T09:12:54Z</time>
      </trkpt>
      <trkpt lat="48.59841" lon="-2.87599">
        <ele>72</ele>
        <time>2025-06-07T09:12:57Z</time>
      </trkpt>
      <trkpt lat="48.59838" lon="-2.87717">
        <ele>76</ele>
        <time>2025-06-07T09:13:11Z</time>
      </trkpt>
      <trkpt lat="48.59823" lon="-2.87875">
        <ele>78</ele>
        <time>2025-06-07T09:13:30Z</time>
      </trkpt>
      <trkpt lat="48.59802" lon="-2.87961">
        <ele>74</ele>
        <time>2025-06-07T09:13:40Z</time>
      </trkpt>
      <trkpt lat="48.59786" lon="-2.88052">
        <ele>70</ele>
        <time>2025-06-07T09:13:51Z</time>
      </trkpt>
      <trkpt lat="48.59778" lon="-2.88173">
        <ele>68</ele>
        <time>2025-06-07T09:14:06Z</time>
      </trkpt>
      <trkpt lat="48.59777" lon="-2.88181">
        <ele>68</ele>
        <time>2025-06-07T09:14:07Z</time>
      </trkpt>
      <trkpt lat="48.59773" lon="-2.88238">
        <ele>70</ele>
        <time>2025-06-07T09:14:13Z</time>
      </trkpt>
      <trkpt lat="48.59767" lon="-2.88331">
        <ele>71</ele>
        <time>2025-06-07T09:14:24Z</time>
      </trkpt>
      <trkpt lat="48.59764" lon="-2.88426">
        <ele>71</ele>
        <time>2025-06-07T09:14:36Z</time>
      </trkpt>
      <trkpt lat="48.59769" lon="-2.88436">
        <ele>72</ele>
        <time>2025-06-07T09:14:37Z</time>
      </trkpt>
      <trkpt lat="48.59836" lon="-2.88628">
        <ele>77</ele>
        <time>2025-06-07T09:15:03Z</time>
      </trkpt>
      <trkpt lat="48.59857" lon="-2.88695">
        <ele>80</ele>
        <time>2025-06-07T09:15:11Z</time>
      </trkpt>
      <trkpt lat="48.5988" lon="-2.88798">
        <ele>85</ele>
        <time>2025-06-07T09:15:24Z</time>
      </trkpt>
      <trkpt lat="48.59889" lon="-2.88829">
        <ele>86</ele>
        <time>2025-06-07T09:15:28Z</time>
      </trkpt>
      <trkpt lat="48.59896" lon="-2.88863">
        <ele>87</ele>
        <time>2025-06-07T09:15:32Z</time>
      </trkpt>
      <trkpt lat="48.599" lon="-2.88891">
        <ele>88</ele>
        <time>2025-06-07T09:15:36Z</time>
      </trkpt>
      <trkpt lat="48.59903" lon="-2.88894">
        <ele>88</ele>
        <time>2025-06-07T09:15:36Z</time>
      </trkpt>
      <trkpt lat="48.59903" lon="-2.88916">
        <ele>89</ele>
        <time>2025-06-07T09:15:39Z</time>
      </trkpt>
      <trkpt lat="48.59905" lon="-2.88981">
        <ele>90</ele>
        <time>2025-06-07T09:15:47Z</time>
      </trkpt>
      <trkpt lat="48.59905" lon="-2.88987">
        <ele>91</ele>
        <time>2025-06-07T09:15:47Z</time>
      </trkpt>
      <trkpt lat="48.59906" lon="-2.89052">
        <ele>92</ele>
        <time>2025-06-07T09:15:55Z</time>
      </trkpt>
      <trkpt lat="48.5991" lon="-2.89159">
        <ele>94</ele>
        <time>2025-06-07T09:16:08Z</time>
      </trkpt>
      <trkpt lat="48.59909" lon="-2.89187">
        <ele>94</ele>
        <time>2025-06-07T09:16:11Z</time>
      </trkpt>
      <trkpt lat="48.59907" lon="-2.89199">
        <ele>94</ele>
        <time>2025-06-07T09:16:12Z</time>
      </trkpt>
      <trkpt lat="48.59905" lon="-2.89212">
        <ele>95</ele>
        <time>2025-06-07T09:16:14Z</time>
      </trkpt>
      <trkpt lat="48.59899" lon="-2.89237">
        <ele>95</ele>
        <time>2025-06-07T09:16:17Z</time>
      </trkpt>
      <trkpt lat="48.5989" lon="-2.89278">
        <ele>95</ele>
        <time>2025-06-07T09:16:22Z</time>
      </trkpt>
      <trkpt lat="48.59885" lon="-2.89309">
        <ele>95</ele>
        <time>2025-06-07T09:16:26Z</time>
      </trkpt>
      <trkpt lat="48.59884" lon="-2.89321">
        <ele>94</ele>
        <time>2025-06-07T09:16:27Z</time>
      </trkpt>
      <trkpt lat="48.59883" lon="-2.89351">
        <ele>95</ele>
        <time>2025-06-07T09:16:31Z</time>
      </trkpt>
      <trkpt lat="48.59882" lon="-2.8936">
        <ele>95</ele>
        <time>2025-06-07T09:16:32Z</time>
      </trkpt>
      <trkpt lat="48.59882" lon="-2.89438">
        <ele>96</ele>
        <time>2025-06-07T09:16:41Z</time>
      </trkpt>
      <trkpt lat="48.5988" lon="-2.89472">
        <ele>95</ele>
        <time>2025-06-07T09:16:45Z</time>
      </trkpt>
      <trkpt lat="48.59874" lon="-2.89517">
        <ele>95</ele>
        <time>2025-06-07T09:16:50Z</time>
      </trkpt>
      <trkpt lat="48.59859" lon="-2.89615">
        <ele>95</ele>
        <time>2025-06-07T09:17:02Z</time>
      </trkpt>
      <trkpt lat="48.59896" lon="-2.89627">
        <ele>96</ele>
        <time>2025-06-07T09:17:09Z</time>
      </trkpt>
      <trkpt lat="48.599" lon="-2.89628">
        <ele>96</ele>
        <time>2025-06-07T09:17:10Z</time>
      </trkpt>
      <trkpt lat="48.59903" lon="-2.89621">
        <ele>96</ele>
        <time>2025-06-07T09:17:11Z</time>
      </trkpt>
      <trkpt lat="48.59908" lon="-2.89618">
        <ele>96</ele>
        <time>2025-06-07T09:17:12Z</time>
      </trkpt>
      <trkpt lat="48.59913" lon="-2.89619">
        <ele>96</ele>
        <time>2025-06-07T09:17:13Z</time>
      </trkpt>
      <trkpt lat="48.59917" lon="-2.89624">
        <ele>96</ele>
        <time>2025-06-07T09:17:13Z</time>
      </trkpt>
      <trkpt lat="48.59918" lon="-2.89631">
        <ele>96</ele>
        <time>2025-06-07T09:17:14Z</time>
      </trkpt>
      <trkpt lat="48.59917" lon="-2.89636">
        <ele>96</ele>
        <time>2025-06-07T09:17:15Z</time>
      </trkpt>
      <trkpt lat="48.60003" lon="-2.89671">
        <ele>97</ele>
        <time>2025-06-07T09:17:31Z</time>
      </trkpt>
      <trkpt lat="48.60059" lon="-2.89695">
        <ele>97</ele>
        <time>2025-06-07T09:17:41Z</time>
      </trkpt>
      <trkpt lat="48.60213" lon="-2.89756">
        <ele>98</ele>
        <time>2025-06-07T09:18:09Z</time>
      </trkpt>
      <trkpt lat="48.6027" lon="-2.89785">
        <ele>97</ele>
        <time>2025-06-07T09:18:20Z</time>
      </trkpt>
      <trkpt lat="48.60295" lon="-2.89798">
        <ele>96</ele>
        <time>2025-06-07T09:18:25Z</time>
      </trkpt>
      <trkpt lat="48.60369" lon="-2.89843">
        <ele>95</ele>
        <time>2025-06-07T09:18:39Z</time>
      </trkpt>
      <trkpt lat="48.60473" lon="-2.89924">
        <ele>95</ele>
        <time>2025-06-07T09:19:00Z</time>
      </trkpt>
      <trkpt lat="48.60494" lon="-2.89941">
        <ele>95</ele>
        <time>2025-06-07T09:19:04Z</time>
      </trkpt>
      <trkpt lat="48.60526" lon="-2.89973">
        <ele>94</ele>
        <time>2025-06-07T09:19:11Z</time>
      </trkpt>
      <trkpt lat="48.60621" lon="-2.90056">
        <ele>95</ele>
        <time>2025-06-07T09:19:30Z</time>
      </trkpt>
      <trkpt lat="48.60655" lon="-2.90083">
        <ele>96</ele>
        <time>2025-06-07T09:19:37Z</time>
      </trkpt>
      <trkpt lat="48.60692" lon="-2.90108">
        <ele>95</ele>
        <time>2025-06-07T09:19:45Z</time>
      </trkpt>
      <trkpt lat="48.60722" lon="-2.90125">
        <ele>95</ele>
        <time>2025-06-07T09:19:50Z</time>
      </trkpt>
      <trkpt lat="48.60752" lon="-2.90139">
        <ele>95</ele>
        <time>2025-06-07T09:19:56Z</time>
      </trkpt>
      <trkpt lat="48.60787" lon="-2.9015">
        <ele>94</ele>
        <time>2025-06-07T09:20:02Z</time>
      </trkpt>
      <trkpt lat="48.60824" lon="-2.90159">
        <ele>93</ele>
        <time>2025-06-07T09:20:09Z</time>
      </trkpt>
      <trkpt lat="48.60867" lon="-2.90165">
        <ele>93</ele>
        <time>2025-06-07T09:20:17Z</time>
      </trkpt>
      <trkpt lat="48.60907" lon="-2.90166">
        <ele>94</ele>
        <time>2025-06-07T09:20:24Z</time>
      </trkpt>
      <trkpt lat="48.60951" lon="-2.90161">
        <ele>95</ele>
        <time>2025-06-07T09:20:31Z</time>
      </trkpt>
      <trkpt lat="48.60971" lon="-2.90157">
        <ele>96</ele>
        <time>2025-06-07T09:20:35Z</time>
      </trkpt>
      <trkpt lat="48.61001" lon="-2.90148">
        <ele>97</ele>
        <time>2025-06-07T09:20:41Z</time>
      </trkpt>
      <trkpt lat="48.61027" lon="-2.9014">
        <ele>97</ele>
        <time>2025-06-07T09:20:45Z</time>
      </trkpt>
      <trkpt lat="48.6105" lon="-2.9013">
        <ele>96</ele>
        <time>2025-06-07T09:20:49Z</time>
      </trkpt>
      <trkpt lat="48.61085" lon="-2.90112">
        <ele>96</ele>
        <time>2025-06-07T09:20:56Z</time>
      </trkpt>
      <trkpt lat="48.61103" lon="-2.90102">
        <ele>95</ele>
        <time>2025-06-07T09:20:59Z</time>
      </trkpt>
      <trkpt lat="48.61138" lon="-2.90076">
        <ele>95</ele>
        <time>2025-06-07T09:21:06Z</time>
      </trkpt>
      <trkpt lat="48.6119" lon="-2.90032">
        <ele>95</ele>
        <time>2025-06-07T09:21:17Z</time>
      </trkpt>
      <trkpt lat="48.61226" lon="-2.89999">
        <ele>95</ele>
        <time>2025-06-07T09:21:25Z</time>
      </trkpt>
      <trkpt lat="48.61312" lon="-2.89925">
        <ele>96</ele>
        <time>2025-06-07T09:21:42Z</time>
      </trkpt>
      <trkpt lat="48.61354" lon="-2.89893">
        <ele>96</ele>
        <time>2025-06-07T09:21:50Z</time>
      </trkpt>
      <trkpt lat="48.61381" lon="-2.89876">
        <ele>97</ele>
        <time>2025-06-07T09:21:56Z</time>
      </trkpt>
      <trkpt lat="48.61409" lon="-2.8986">
        <ele>97</ele>
        <time>2025-06-07T09:22:01Z</time>
      </trkpt>
      <trkpt lat="48.6144" lon="-2.89844">
        <ele>97</ele>
        <time>2025-06-07T09:22:07Z</time>
      </trkpt>
      <trkpt lat="48.6173" lon="-2.8971">
        <ele>98</ele>
        <time>2025-06-07T09:23:01Z</time>
      </trkpt>
      <trkpt lat="48.61813" lon="-2.89671">
        <ele>99</ele>
        <time>2025-06-07T09:23:16Z</time>
      </trkpt>
      <trkpt lat="48.61879" lon="-2.89643">
        <ele>100</ele>
        <time>2025-06-07T09:23:28Z</time>
      </trkpt>
      <trkpt lat="48.61909" lon="-2.89632">
        <ele>101</ele>
        <time>2025-06-07T09:23:34Z</time>
      </trkpt>
      <trkpt lat="48.61961" lon="-2.89619">
        <ele>100</ele>
        <time>2025-06-07T09:23:43Z</time>
      </trkpt>
      <trkpt lat="48.61981" lon="-2.89615">
        <ele>100</ele>
        <time>2025-06-07T09:23:47Z</time>
      </trkpt>
      <trkpt lat="48.62023" lon="-2.89611">
        <ele>101</ele>
        <time>2025-06-07T09:23:54Z</time>
      </trkpt>
      <trkpt lat="48.62057" lon="-2.89609">
        <ele>102</ele>
        <time>2025-06-07T09:24:00Z</time>
      </trkpt>
      <trkpt lat="48.62091" lon="-2.89611">
        <ele>103</ele>
        <time>2025-06-07T09:24:07Z</time>
      </trkpt>
      <trkpt lat="48.62127" lon="-2.89614">
        <ele>102</ele>
        <time>2025-06-07T09:24:13Z</time>
      </trkpt>
      <trkpt lat="48.62192" lon="-2.89624">
        <ele>102</ele>
        <time>2025-06-07T09:24:25Z</time>
      </trkpt>
      <trkpt lat="48.62241" lon="-2.8963">
        <ele>102</ele>
        <time>2025-06-07T09:24:33Z</time>
      </trkpt>
      <trkpt lat="48.62338" lon="-2.89642">
        <ele>101</ele>
        <time>2025-06-07T09:24:51Z</time>
      </trkpt>
      <trkpt lat="48.62385" lon="-2.8965">
        <ele>101</ele>
        <time>2025-06-07T09:24:59Z</time>
      </trkpt>
      <trkpt lat="48.62409" lon="-2.89657">
        <ele>101</ele>
        <time>2025-06-07T09:25:03Z</time>
      </trkpt>
      <trkpt lat="48.62433" lon="-2.89668">
        <ele>101</ele>
        <time>2025-06-07T09:25:08Z</time>
      </trkpt>
      <trkpt lat="48.62452" lon="-2.8968">
        <ele>101</ele>
        <time>2025-06-07T09:25:11Z</time>
      </trkpt>
      <trkpt lat="48.62469" lon="-2.89692">
        <ele>101</ele>
        <time>2025-06-07T09:25:15Z</time>
      </trkpt>
      <trkpt lat="48.62503" lon="-2.89724">
        <ele>101</ele>
        <time>2025-06-07T09:25:22Z</time>
      </trkpt>
      <trkpt lat="48.62666" lon="-2.89882">
        <ele>101</ele>
        <time>2025-06-07T09:25:56Z</time>
      </trkpt>
      <trkpt lat="48.62763" lon="-2.89976">
        <ele>101</ele>
        <time>2025-06-07T09:26:17Z</time>
      </trkpt>
      <trkpt lat="48.62867" lon="-2.90074">
        <ele>102</ele>
        <time>2025-06-07T09:26:39Z</time>
      </trkpt>
      <trkpt lat="48.62902" lon="-2.90109">
        <ele>101</ele>
        <time>2025-06-07T09:26:46Z</time>
      </trkpt>
      <trkpt lat="48.6295" lon="-2.90177">
        <ele>101</ele>
        <time>2025-06-07T09:26:58Z</time>
      </trkpt>
      <trkpt lat="48.63005" lon="-2.90289">
        <ele>100</ele>
        <time>2025-06-07T09:27:14Z</time>
      </trkpt>
      <trkpt lat="48.63048" lon="-2.90366">
        <ele>98</ele>
        <time>2025-06-07T09:27:26Z</time>
      </trkpt>
      <trkpt lat="48.63086" lon="-2.90416">
        <ele>97</ele>
        <time>2025-06-07T09:27:35Z</time>
      </trkpt>
      <trkpt lat="48.63371" lon="-2.90726">
        <ele>98</ele>
        <time>2025-06-07T09:28:38Z</time>
      </trkpt>
      <trkpt lat="48.63404" lon="-2.90754">
        <ele>99</ele>
        <time>2025-06-07T09:28:44Z</time>
      </trkpt>
      <trkpt lat="48.63413" lon="-2.9076">
        <ele>99</ele>
        <time>2025-06-07T09:28:46Z</time>
      </trkpt>
      <trkpt lat="48.63418" lon="-2.90763">
        <ele>99</ele>
        <time>2025-06-07T09:28:47Z</time>
      </trkpt>
      <trkpt lat="48.63432" lon="-2.90771">
        <ele>99</ele>
        <time>2025-06-07T09:28:50Z</time>
      </trkpt>
      <trkpt lat="48.63464" lon="-2.90783">
        <ele>99</ele>
        <time>2025-06-07T09:28:56Z</time>
      </trkpt>
      <trkpt lat="48.63478" lon="-2.90785">
        <ele>99</ele>
        <time>2025-06-07T09:28:58Z</time>
      </trkpt>
      <trkpt lat="48.63496" lon="-2.90785">
        <ele>99</ele>
        <time>2025-06-07T09:29:01Z</time>
      </trkpt>
      <trkpt lat="48.63509" lon="-2.90785">
        <ele>99</ele>
        <time>2025-06-07T09:29:04Z</time>
      </trkpt>
      <trkpt lat="48.63521" lon="-2.90784">
        <ele>100</ele>
        <time>2025-06-07T09:29:06Z</time>
      </trkpt>
      <trkpt lat="48.63527" lon="-2.9078">
        <ele>100</ele>
        <time>2025-06-07T09:29:07Z</time>
      </trkpt>
      <trkpt lat="48.63532" lon="-2.90783">
        <ele>100</ele>
        <time>2025-06-07T09:29:08Z</time>
      </trkpt>
      <trkpt lat="48.63537" lon="-2.9078">
        <ele>100</ele>
        <time>2025-06-07T09:29:09Z</time>
      </trkpt>
      <trkpt lat="48.63542" lon="-2.90783">
        <ele>100</ele>
        <time>2025-06-07T09:29:10Z</time>
      </trkpt>
      <trkpt lat="48.63549" lon="-2.90779">
        <ele>101</ele>
        <time>2025-06-07T09:29:11Z</time>
      </trkpt>
      <trkpt lat="48.63577" lon="-2.90756">
        <ele>102</ele>
        <time>2025-06-07T09:29:17Z</time>
      </trkpt>
      <trkpt lat="48.63598" lon="-2.9073">
        <ele>102</ele>
        <time>2025-06-07T09:29:22Z</time>
      </trkpt>
      <trkpt lat="48.63603" lon="-2.90726">
        <ele>102</ele>
        <time>2025-06-07T09:29:23Z</time>
      </trkpt>
      <trkpt lat="48.63612" lon="-2.90722">
        <ele>102</ele>
        <time>2025-06-07T09:29:24Z</time>
      </trkpt>
      <trkpt lat="48.63618" lon="-2.90721">
        <ele>102</ele>
        <time>2025-06-07T09:29:25Z</time>
      </trkpt>
      <trkpt lat="48.63624" lon="-2.90721">
        <ele>102</ele>
        <time>2025-06-07T09:29:26Z</time>
      </trkpt>
      <trkpt lat="48.63636" lon="-2.90724">
        <ele>102</ele>
        <time>2025-06-07T09:29:29Z</time>
      </trkpt>
      <trkpt lat="48.6366" lon="-2.90733">
        <ele>103</ele>
        <time>2025-06-07T09:29:33Z</time>
      </trkpt>
      <trkpt lat="48.63685" lon="-2.90744">
        <ele>103</ele>
        <time>2025-06-07T09:29:38Z</time>
      </trkpt>
      <trkpt lat="48.6371" lon="-2.90758">
        <ele>102</ele>
        <time>2025-06-07T09:29:42Z</time>
      </trkpt>
      <trkpt lat="48.63726" lon="-2.9077">
        <ele>102</ele>
        <time>2025-06-07T09:29:45Z</time>
      </trkpt>
      <trkpt lat="48.63763" lon="-2.90792">
        <ele>102</ele>
        <time>2025-06-07T09:29:53Z</time>
      </trkpt>
      <trkpt lat="48.63824" lon="-2.90835">
        <ele>103</ele>
        <time>2025-06-07T09:30:05Z</time>
      </trkpt>
      <trkpt lat="48.63848" lon="-2.90855">
        <ele>103</ele>
        <time>2025-06-07T09:30:09Z</time>
      </trkpt>
      <trkpt lat="48.63893" lon="-2.90912">
        <ele>103</ele>
        <time>2025-06-07T09:30:20Z</time>
      </trkpt>
      <trkpt lat="48.63916" lon="-2.90945">
        <ele>104</ele>
        <time>2025-06-07T09:30:25Z</time>
      </trkpt>
      <trkpt lat="48.63949" lon="-2.90985">
        <ele>104</ele>
        <time>2025-06-07T09:30:33Z</time>
      </trkpt>
      <trkpt lat="48.63975" lon="-2.91022">
        <ele>105</ele>
        <time>2025-06-07T09:30:39Z</time>
      </trkpt>
      <trkpt lat="48.63995" lon="-2.91067">
        <ele>105</ele>
        <time>2025-06-07T09:30:46Z</time>
      </trkpt>
      <trkpt lat="48.64057" lon="-2.91218">
        <ele>105</ele>
        <time>2025-06-07T09:31:07Z</time>
      </trkpt>
      <trkpt lat="48.64095" lon="-2.91323">
        <ele>104</ele>
        <time>2025-06-07T09:31:21Z</time>
      </trkpt>
      <trkpt lat="48.64105" lon="-2.91349">
        <ele>105</ele>
        <time>2025-06-07T09:31:24Z</time>
      </trkpt>
      <trkpt lat="48.64113" lon="-2.91384">
        <ele>105</ele>
        <time>2025-06-07T09:31:29Z</time>
      </trkpt>
      <trkpt lat="48.64121" lon="-2.91421">
        <ele>106</ele>
        <time>2025-06-07T09:31:33Z</time>
      </trkpt>
      <trkpt lat="48.64125" lon="-2.91451">
        <ele>105</ele>
        <time>2025-06-07T09:31:37Z</time>
      </trkpt>
      <trkpt lat="48.64127" lon="-2.9148">
        <ele>105</ele>
        <time>2025-06-07T09:31:40Z</time>
      </trkpt>
      <trkpt lat="48.64127" lon="-2.91507">
        <ele>105</ele>
        <time>2025-06-07T09:31:43Z</time>
      </trkpt>
      <trkpt lat="48.64117" lon="-2.91621">
        <ele>105</ele>
        <time>2025-06-07T09:31:57Z</time>
      </trkpt>
      <trkpt lat="48.64105" lon="-2.91702">
        <ele>105</ele>
        <time>2025-06-07T09:32:07Z</time>
      </trkpt>
      <trkpt lat="48.64085" lon="-2.91809">
        <ele>106</ele>
        <time>2025-06-07T09:32:20Z</time>
      </trkpt>
      <trkpt lat="48.64082" lon="-2.91827">
        <ele>106</ele>
        <time>2025-06-07T09:32:22Z</time>
      </trkpt>
      <trkpt lat="48.64045" lon="-2.92029">
        <ele>105</ele>
        <time>2025-06-07T09:32:47Z</time>
      </trkpt>
      <trkpt lat="48.64004" lon="-2.92252">
        <ele>102</ele>
        <time>2025-06-07T09:33:14Z</time>
      </trkpt>
      <trkpt lat="48.63993" lon="-2.92291">
        <ele>102</ele>
        <time>2025-06-07T09:33:19Z</time>
      </trkpt>
      <trkpt lat="48.6399" lon="-2.92297">
        <ele>102</ele>
        <time>2025-06-07T09:33:20Z</time>
      </trkpt>
      <trkpt lat="48.63988" lon="-2.92306">
        <ele>101</ele>
        <time>2025-06-07T09:33:21Z</time>
      </trkpt>
      <trkpt lat="48.63982" lon="-2.92334">
        <ele>101</ele>
        <time>2025-06-07T09:33:24Z</time>
      </trkpt>
      <trkpt lat="48.63964" lon="-2.92454">
        <ele>101</ele>
        <time>2025-06-07T09:33:39Z</time>
      </trkpt>
      <trkpt lat="48.63953" lon="-2.9252">
        <ele>101</ele>
        <time>2025-06-07T09:33:47Z</time>
      </trkpt>
      <trkpt lat="48.63949" lon="-2.9255">
        <ele>101</ele>
        <time>2025-06-07T09:33:50Z</time>
      </trkpt>
      <trkpt lat="48.63936" lon="-2.92661">
        <ele>101</ele>
        <time>2025-06-07T09:34:04Z</time>
      </trkpt>
      <trkpt lat="48.63925" lon="-2.92754">
        <ele>99</ele>
        <time>2025-06-07T09:34:15Z</time>
      </trkpt>
      <trkpt lat="48.63926" lon="-2.9278">
        <ele>99</ele>
        <time>2025-06-07T09:34:18Z</time>
      </trkpt>
      <trkpt lat="48.63929" lon="-2.9283">
        <ele>99</ele>
        <time>2025-06-07T09:34:24Z</time>
      </trkpt>
      <trkpt lat="48.63933" lon="-2.92873">
        <ele>98</ele>
        <time>2025-06-07T09:34:29Z</time>
      </trkpt>
      <trkpt lat="48.63938" lon="-2.92921">
        <ele>97</ele>
        <time>2025-06-07T09:34:34Z</time>
      </trkpt>
      <trkpt lat="48.63931" lon="-2.92997">
        <ele>98</ele>
        <time>2025-06-07T09:34:43Z</time>
      </trkpt>
      <trkpt lat="48.63922" lon="-2.93062">
        <ele>97</ele>
        <time>2025-06-07T09:34:51Z</time>
      </trkpt>
      <trkpt lat="48.63913" lon="-2.93101">
        <ele>96</ele>
        <time>2025-06-07T09:34:56Z</time>
      </trkpt>
      <trkpt lat="48.63906" lon="-2.93139">
        <ele>95</ele>
        <time>2025-06-07T09:35:01Z</time>
      </trkpt>
      <trkpt lat="48.63891" lon="-2.93176">
        <ele>94</ele>
        <time>2025-06-07T09:35:06Z</time>
      </trkpt>
      <trkpt lat="48.63862" lon="-2.9321">
        <ele>94</ele>
        <time>2025-06-07T09:35:12Z</time>
      </trkpt>
      <trkpt lat="48.63838" lon="-2.93261">
        <ele>93</ele>
        <time>2025-06-07T09:35:20Z</time>
      </trkpt>
      <trkpt lat="48.63825" lon="-2.93319">
        <ele>93</ele>
        <time>2025-06-07T09:35:27Z</time>
      </trkpt>
      <trkpt lat="48.63822" lon="-2.93345">
        <ele>93</ele>
        <time>2025-06-07T09:35:30Z</time>
      </trkpt>
      <trkpt lat="48.63815" lon="-2.93383">
        <ele>92</ele>
        <time>2025-06-07T09:35:35Z</time>
      </trkpt>
      <trkpt lat="48.63798" lon="-2.93444">
        <ele>91</ele>
        <time>2025-06-07T09:35:42Z</time>
      </trkpt>
      <trkpt lat="48.63783" lon="-2.93484">
        <ele>91</ele>
        <time>2025-06-07T09:35:48Z</time>
      </trkpt>
      <trkpt lat="48.63768" lon="-2.93539">
        <ele>89</ele>
        <time>2025-06-07T09:35:55Z</time>
      </trkpt>
      <trkpt lat="48.63764" lon="-2.93567">
        <ele>88</ele>
        <time>2025-06-07T09:35:58Z</time>
      </trkpt>
      <trkpt lat="48.63761" lon="-2.93665">
        <ele>86</ele>
        <time>2025-06-07T09:36:10Z</time>
      </trkpt>
      <trkpt lat="48.63755" lon="-2.93751">
        <ele>86</ele>
        <time>2025-06-07T09:36:20Z</time>
      </trkpt>
      <trkpt lat="48.6375" lon="-2.93778">
        <ele>86</ele>
        <time>2025-06-07T09:36:23Z</time>
      </trkpt>
      <trkpt lat="48.63745" lon="-2.93798">
        <ele>86</ele>
        <time>2025-06-07T09:36:26Z</time>
      </trkpt>
      <trkpt lat="48.6373" lon="-2.93838">
        <ele>86</ele>
        <time>2025-06-07T09:36:31Z</time>
      </trkpt>
      <trkpt lat="48.63674" lon="-2.93926">
        <ele>85</ele>
        <time>2025-06-07T09:36:46Z</time>
      </trkpt>
      <trkpt lat="48.63667" lon="-2.93942">
        <ele>85</ele>
        <time>2025-06-07T09:36:48Z</time>
      </trkpt>
      <trkpt lat="48.63673" lon="-2.93943">
        <ele>85</ele>
        <time>2025-06-07T09:36:49Z</time>
      </trkpt>
      <trkpt lat="48.63687" lon="-2.93952">
        <ele>85</ele>
        <time>2025-06-07T09:36:52Z</time>
      </trkpt>
      <trkpt lat="48.63704" lon="-2.93965">
        <ele>86</ele>
        <time>2025-06-07T09:36:55Z</time>
      </trkpt>
      <trkpt lat="48.63722" lon="-2.93973">
        <ele>86</ele>
        <time>2025-06-07T09:36:58Z</time>
      </trkpt>
      <trkpt lat="48.63735" lon="-2.93971">
        <ele>87</ele>
        <time>2025-06-07T09:37:01Z</time>
      </trkpt>
      <trkpt lat="48.63833" lon="-2.9395">
        <ele>87</ele>
        <time>2025-06-07T09:37:18Z</time>
      </trkpt>
      <trkpt lat="48.63926" lon="-2.93951">
        <ele>88</ele>
        <time>2025-06-07T09:37:35Z</time>
      </trkpt>
      <trkpt lat="48.63956" lon="-2.93957">
        <ele>87</ele>
        <time>2025-06-07T09:37:40Z</time>
      </trkpt>
      <trkpt lat="48.64088" lon="-2.93991">
        <ele>86</ele>
        <time>2025-06-07T09:38:04Z</time>
      </trkpt>
      <trkpt lat="48.64119" lon="-2.93998">
        <ele>88</ele>
        <time>2025-06-07T09:38:10Z</time>
      </trkpt>
      <trkpt lat="48.6414" lon="-2.93998">
        <ele>89</ele>
        <time>2025-06-07T09:38:13Z</time>
      </trkpt>
      <trkpt lat="48.64187" lon="-2.93994">
        <ele>90</ele>
        <time>2025-06-07T09:38:22Z</time>
      </trkpt>
      <trkpt lat="48.64263" lon="-2.93978">
        <ele>91</ele>
        <time>2025-06-07T09:38:35Z</time>
      </trkpt>
      <trkpt lat="48.64322" lon="-2.93987">
        <ele>91</ele>
        <time>2025-06-07T09:38:46Z</time>
      </trkpt>
      <trkpt lat="48.64362" lon="-2.93975">
        <ele>91</ele>
        <time>2025-06-07T09:38:53Z</time>
      </trkpt>
      <trkpt lat="48.64507" lon="-2.93924">
        <ele>92</ele>
        <time>2025-06-07T09:39:20Z</time>
      </trkpt>
      <trkpt lat="48.64568" lon="-2.93898">
        <ele>91</ele>
        <time>2025-06-07T09:39:31Z</time>
      </trkpt>
      <trkpt lat="48.64608" lon="-2.93896">
        <ele>90</ele>
        <time>2025-06-07T09:39:38Z</time>
      </trkpt>
      <trkpt lat="48.64617" lon="-2.93894">
        <ele>90</ele>
        <time>2025-06-07T09:39:40Z</time>
      </trkpt>
      <trkpt lat="48.64722" lon="-2.93877">
        <ele>90</ele>
        <time>2025-06-07T09:39:58Z</time>
      </trkpt>
      <trkpt lat="48.6477" lon="-2.93858">
        <ele>90</ele>
        <time>2025-06-07T09:40:07Z</time>
      </trkpt>
      <trkpt lat="48.64837" lon="-2.93877">
        <ele>89</ele>
        <time>2025-06-07T09:40:19Z</time>
      </trkpt>
      <trkpt lat="48.64924" lon="-2.93905">
        <ele>88</ele>
        <time>2025-06-07T09:40:35Z</time>
      </trkpt>
      <trkpt lat="48.64948" lon="-2.93913">
        <ele>88</ele>
        <time>2025-06-07T09:40:40Z</time>
      </trkpt>
      <trkpt lat="48.65059" lon="-2.93925">
        <ele>90</ele>
        <time>2025-06-07T09:40:59Z</time>
      </trkpt>
      <trkpt lat="48.65119" lon="-2.93938">
        <ele>91</ele>
        <time>2025-06-07T09:41:10Z</time>
      </trkpt>
      <trkpt lat="48.65135" lon="-2.93936">
        <ele>91</ele>
        <time>2025-06-07T09:41:13Z</time>
      </trkpt>
      <trkpt lat="48.65144" lon="-2.93932">
        <ele>91</ele>
        <time>2025-06-07T09:41:15Z</time>
      </trkpt>
      <trkpt lat="48.65156" lon="-2.9392">
        <ele>92</ele>
        <time>2025-06-07T09:41:17Z</time>
      </trkpt>
      <trkpt lat="48.65165" lon="-2.93906">
        <ele>92</ele>
        <time>2025-06-07T09:41:20Z</time>
      </trkpt>
      <trkpt lat="48.65172" lon="-2.93883">
        <ele>93</ele>
        <time>2025-06-07T09:41:23Z</time>
      </trkpt>
      <trkpt lat="48.65176" lon="-2.93572">
        <ele>95</ele>
        <time>2025-06-07T09:41:59Z</time>
      </trkpt>
      <trkpt lat="48.65178" lon="-2.93536">
        <ele>95</ele>
        <time>2025-06-07T09:42:03Z</time>
      </trkpt>
      <trkpt lat="48.65187" lon="-2.93507">
        <ele>96</ele>
        <time>2025-06-07T09:42:07Z</time>
      </trkpt>
      <trkpt lat="48.65204" lon="-2.93495">
        <ele>96</ele>
        <time>2025-06-07T09:42:10Z</time>
      </trkpt>
      <trkpt lat="48.65578" lon="-2.93386">
        <ele>87</ele>
        <time>2025-06-07T09:43:18Z</time>
      </trkpt>
      <trkpt lat="48.65613" lon="-2.93376">
        <ele>86</ele>
        <time>2025-06-07T09:43:25Z</time>
      </trkpt>
      <trkpt lat="48.65715" lon="-2.93387">
        <ele>84</ele>
        <time>2025-06-07T09:43:43Z</time>
      </trkpt>
      <trkpt lat="48.65836" lon="-2.9339">
        <ele>83</ele>
        <time>2025-06-07T09:44:04Z</time>
      </trkpt>
      <trkpt lat="48.65839" lon="-2.9339">
        <ele>83</ele>
        <time>2025-06-07T09:44:05Z</time>
      </trkpt>
      <trkpt lat="48.65894" lon="-2.93388">
        <ele>83</ele>
        <time>2025-06-07T09:44:15Z</time>
      </trkpt>
      <trkpt lat="48.65924" lon="-2.93383">
        <ele>83</ele>
        <time>2025-06-07T09:44:20Z</time>
      </trkpt>
      <trkpt lat="48.65971" lon="-2.93362">
        <ele>81</ele>
        <time>2025-06-07T09:44:29Z</time>
      </trkpt>
      <trkpt lat="48.65986" lon="-2.93358">
        <ele>81</ele>
        <time>2025-06-07T09:44:31Z</time>
      </trkpt>
      <trkpt lat="48.66001" lon="-2.93355">
        <ele>80</ele>
        <time>2025-06-07T09:44:34Z</time>
      </trkpt>
      <trkpt lat="48.66016" lon="-2.93353">
        <ele>80</ele>
        <time>2025-06-07T09:44:37Z</time>
      </trkpt>
      <trkpt lat="48.66054" lon="-2.93356">
        <ele>79</ele>
        <time>2025-06-07T09:44:44Z</time>
      </trkpt>
      <trkpt lat="48.66072" lon="-2.93356">
        <ele>78</ele>
        <time>2025-06-07T09:44:47Z</time>
      </trkpt>
      <trkpt lat="48.66108" lon="-2.93346">
        <ele>77</ele>
        <time>2025-06-07T09:44:53Z</time>
      </trkpt>
      <trkpt lat="48.66127" lon="-2.93342">
        <ele>76</ele>
        <time>2025-06-07T09:44:57Z</time>
      </trkpt>
      <trkpt lat="48.66186" lon="-2.9333">
        <ele>74</ele>
        <time>2025-06-07T09:45:07Z</time>
      </trkpt>
      <trkpt lat="48.66211" lon="-2.93326">
        <ele>72</ele>
        <time>2025-06-07T09:45:12Z</time>
      </trkpt>
      <trkpt lat="48.66214" lon="-2.93325">
        <ele>72</ele>
        <time>2025-06-07T09:45:12Z</time>
      </trkpt>
      <trkpt lat="48.66258" lon="-2.93307">
        <ele>69</ele>
        <time>2025-06-07T09:45:20Z</time>
      </trkpt>
      <trkpt lat="48.66264" lon="-2.93305">
        <ele>69</ele>
        <time>2025-06-07T09:45:21Z</time>
      </trkpt>
      <trkpt lat="48.66271" lon="-2.93306">
        <ele>68</ele>
        <time>2025-06-07T09:45:23Z</time>
      </trkpt>
      <trkpt lat="48.66297" lon="-2.9331">
        <ele>67</ele>
        <time>2025-06-07T09:45:27Z</time>
      </trkpt>
      <trkpt lat="48.66308" lon="-2.9331">
        <ele>67</ele>
        <time>2025-06-07T09:45:29Z</time>
      </trkpt>
      <trkpt lat="48.66323" lon="-2.93307">
        <ele>66</ele>
        <time>2025-06-07T09:45:32Z</time>
      </trkpt>
      <trkpt lat="48.66333" lon="-2.93303">
        <ele>65</ele>
        <time>2025-06-07T09:45:34Z</time>
      </trkpt>
      <trkpt lat="48.66344" lon="-2.93297">
        <ele>65</ele>
        <time>2025-06-07T09:45:36Z</time>
      </trkpt>
      <trkpt lat="48.66402" lon="-2.93247">
        <ele>63</ele>
        <time>2025-06-07T09:45:48Z</time>
      </trkpt>
      <trkpt lat="48.66424" lon="-2.93226">
        <ele>64</ele>
        <time>2025-06-07T09:45:52Z</time>
      </trkpt>
      <trkpt lat="48.66436" lon="-2.93215">
        <ele>64</ele>
        <time>2025-06-07T09:45:55Z</time>
      </trkpt>
      <trkpt lat="48.66445" lon="-2.93204">
        <ele>65</ele>
        <time>2025-06-07T09:45:57Z</time>
      </trkpt>
      <trkpt lat="48.6648" lon="-2.93151">
        <ele>66</ele>
        <time>2025-06-07T09:46:06Z</time>
      </trkpt>
      <trkpt lat="48.66491" lon="-2.93135">
        <ele>66</ele>
        <time>2025-06-07T09:46:09Z</time>
      </trkpt>
      <trkpt lat="48.665" lon="-2.93125">
        <ele>66</ele>
        <time>2025-06-07T09:46:11Z</time>
      </trkpt>
      <trkpt lat="48.66508" lon="-2.93117">
        <ele>67</ele>
        <time>2025-06-07T09:46:12Z</time>
      </trkpt>
      <trkpt lat="48.66514" lon="-2.93114">
        <ele>67</ele>
        <time>2025-06-07T09:46:13Z</time>
      </trkpt>
      <trkpt lat="48.66519" lon="-2.93113">
        <ele>67</ele>
        <time>2025-06-07T09:46:14Z</time>
      </trkpt>
      <trkpt lat="48.6653" lon="-2.93114">
        <ele>68</ele>
        <time>2025-06-07T09:46:16Z</time>
      </trkpt>
      <trkpt lat="48.6657" lon="-2.93121">
        <ele>69</ele>
        <time>2025-06-07T09:46:23Z</time>
      </trkpt>
      <trkpt lat="48.66628" lon="-2.93128">
        <ele>70</ele>
        <time>2025-06-07T09:46:34Z</time>
      </trkpt>
      <trkpt lat="48.6665" lon="-2.93134">
        <ele>70</ele>
        <time>2025-06-07T09:46:38Z</time>
      </trkpt>
      <trkpt lat="48.66688" lon="-2.93147">
        <ele>70</ele>
        <time>2025-06-07T09:46:45Z</time>
      </trkpt>
      <trkpt lat="48.66719" lon="-2.93154">
        <ele>69</ele>
        <time>2025-06-07T09:46:50Z</time>
      </trkpt>
      <trkpt lat="48.66735" lon="-2.93154">
        <ele>69</ele>
        <time>2025-06-07T09:46:53Z</time>
      </trkpt>
      <trkpt lat="48.66744" lon="-2.93154">
        <ele>69</ele>
        <time>2025-06-07T09:46:55Z</time>
      </trkpt>
      <trkpt lat="48.66789" lon="-2.93137">
        <ele>69</ele>
        <time>2025-06-07T09:47:03Z</time>
      </trkpt>
      <trkpt lat="48.66844" lon="-2.93124">
        <ele>68</ele>
        <time>2025-06-07T09:47:13Z</time>
      </trkpt>
      <trkpt lat="48.66861" lon="-2.93118">
        <ele>68</ele>
        <time>2025-06-07T09:47:16Z</time>
      </trkpt>
      <trkpt lat="48.66862" lon="-2.93132">
        <ele>68</ele>
        <time>2025-06-07T09:47:18Z</time>
      </trkpt>
      <trkpt lat="48.66858" lon="-2.9315">
        <ele>69</ele>
        <time>2025-06-07T09:47:20Z</time>
      </trkpt>
      <trkpt lat="48.66849" lon="-2.93178">
        <ele>69</ele>
        <time>2025-06-07T09:47:23Z</time>
      </trkpt>
      <trkpt lat="48.66836" lon="-2.93209">
        <ele>70</ele>
        <time>2025-06-07T09:47:28Z</time>
      </trkpt>
      <trkpt lat="48.66823" lon="-2.93245">
        <ele>70</ele>
        <time>2025-06-07T09:47:33Z</time>
      </trkpt>
      <trkpt lat="48.66816" lon="-2.93267">
        <ele>70</ele>
        <time>2025-06-07T09:47:35Z</time>
      </trkpt>
      <trkpt lat="48.66812" lon="-2.93288">
        <ele>69</ele>
        <time>2025-06-07T09:47:38Z</time>
      </trkpt>
      <trkpt lat="48.66789" lon="-2.93405">
        <ele>69</ele>
        <time>2025-06-07T09:47:52Z</time>
      </trkpt>
      <trkpt lat="48.6678" lon="-2.93436">
        <ele>69</ele>
        <time>2025-06-07T09:47:56Z</time>
      </trkpt>
      <trkpt lat="48.66753" lon="-2.93522">
        <ele>70</ele>
        <time>2025-06-07T09:48:08Z</time>
      </trkpt>
      <trkpt lat="48.66741" lon="-2.93553">
        <ele>71</ele>
        <time>2025-06-07T09:48:12Z</time>
      </trkpt>
      <trkpt lat="48.66726" lon="-2.93583">
        <ele>71</ele>
        <time>2025-06-07T09:48:16Z</time>
      </trkpt>
      <trkpt lat="48.66707" lon="-2.93626">
        <ele>71</ele>
        <time>2025-06-07T09:48:22Z</time>
      </trkpt>
      <trkpt lat="48.66692" lon="-2.93661">
        <ele>71</ele>
        <time>2025-06-07T09:48:27Z</time>
      </trkpt>
      <trkpt lat="48.6669" lon="-2.93669">
        <ele>71</ele>
        <time>2025-06-07T09:48:28Z</time>
      </trkpt>
      <trkpt lat="48.6669" lon="-2.93687">
        <ele>71</ele>
        <time>2025-06-07T09:48:30Z</time>
      </trkpt>
      <trkpt lat="48.66691" lon="-2.93694">
        <ele>71</ele>
        <time>2025-06-07T09:48:31Z</time>
      </trkpt>
      <trkpt lat="48.66693" lon="-2.93713">
        <ele>70</ele>
        <time>2025-06-07T09:48:33Z</time>
      </trkpt>
      <trkpt lat="48.66693" lon="-2.9373">
        <ele>70</ele>
        <time>2025-06-07T09:48:35Z</time>
      </trkpt>
      <trkpt lat="48.66692" lon="-2.93737">
        <ele>70</ele>
        <time>2025-06-07T09:48:36Z</time>
      </trkpt>
      <trkpt lat="48.66689" lon="-2.93744">
        <ele>70</ele>
        <time>2025-06-07T09:48:37Z</time>
      </trkpt>
      <trkpt lat="48.66679" lon="-2.93767">
        <ele>69</ele>
        <time>2025-06-07T09:48:40Z</time>
      </trkpt>
      <trkpt lat="48.66644" lon="-2.93844">
        <ele>66</ele>
        <time>2025-06-07T09:48:51Z</time>
      </trkpt>
      <trkpt lat="48.6664" lon="-2.93853">
        <ele>67</ele>
        <time>2025-06-07T09:48:53Z</time>
      </trkpt>
      <trkpt lat="48.66637" lon="-2.93861">
        <ele>67</ele>
        <time>2025-06-07T09:48:54Z</time>
      </trkpt>
      <trkpt lat="48.66636" lon="-2.93868">
        <ele>67</ele>
        <time>2025-06-07T09:48:55Z</time>
      </trkpt>
      <trkpt lat="48.66637" lon="-2.93884">
        <ele>67</ele>
        <time>2025-06-07T09:48:57Z</time>
      </trkpt>
      <trkpt lat="48.6664" lon="-2.93896">
        <ele>68</ele>
        <time>2025-06-07T09:48:58Z</time>
      </trkpt>
      <trkpt lat="48.66658" lon="-2.93956">
        <ele>68</ele>
        <time>2025-06-07T09:49:06Z</time>
      </trkpt>
      <trkpt lat="48.66666" lon="-2.93991">
        <ele>68</ele>
        <time>2025-06-07T09:49:10Z</time>
      </trkpt>
      <trkpt lat="48.6667" lon="-2.94017">
        <ele>68</ele>
        <time>2025-06-07T09:49:13Z</time>
      </trkpt>
      <trkpt lat="48.66674" lon="-2.94075">
        <ele>70</ele>
        <time>2025-06-07T09:49:20Z</time>
      </trkpt>
      <trkpt lat="48.66676" lon="-2.94093">
        <ele>70</ele>
        <time>2025-06-07T09:49:22Z</time>
      </trkpt>
      <trkpt lat="48.66676" lon="-2.94105">
        <ele>70</ele>
        <time>2025-06-07T09:49:24Z</time>
      </trkpt>
      <trkpt lat="48.66674" lon="-2.94121">
        <ele>70</ele>
        <time>2025-06-07T09:49:26Z</time>
      </trkpt>
      <trkpt lat="48.66667" lon="-2.94139">
        <ele>70</ele>
        <time>2025-06-07T09:49:28Z</time>
      </trkpt>
      <trkpt lat="48.66664" lon="-2.94145">
        <ele>70</ele>
        <time>2025-06-07T09:49:29Z</time>
      </trkpt>
      <trkpt lat="48.66644" lon="-2.94182">
        <ele>71</ele>
        <time>2025-06-07T09:49:35Z</time>
      </trkpt>
      <trkpt lat="48.6664" lon="-2.94193">
        <ele>71</ele>
        <time>2025-06-07T09:49:36Z</time>
      </trkpt>
      <trkpt lat="48.66638" lon="-2.94203">
        <ele>72</ele>
        <time>2025-06-07T09:49:37Z</time>
      </trkpt>
      <trkpt lat="48.66636" lon="-2.94221">
        <ele>72</ele>
        <time>2025-06-07T09:49:39Z</time>
      </trkpt>
      <trkpt lat="48.66634" lon="-2.94266">
        <ele>73</ele>
        <time>2025-06-07T09:49:45Z</time>
      </trkpt>
      <trkpt lat="48.66627" lon="-2.94335">
        <ele>75</ele>
        <time>2025-06-07T09:49:53Z</time>
      </trkpt>
      <trkpt lat="48.66626" lon="-2.94349">
        <ele>76</ele>
        <time>2025-06-07T09:49:55Z</time>
      </trkpt>
      <trkpt lat="48.66629" lon="-2.94376">
        <ele>76</ele>
        <time>2025-06-07T09:49:58Z</time>
      </trkpt>
      <trkpt lat="48.66643" lon="-2.94458">
        <ele>77</ele>
        <time>2025-06-07T09:50:08Z</time>
      </trkpt>
      <trkpt lat="48.66648" lon="-2.94481">
        <ele>77</ele>
        <time>2025-06-07T09:50:11Z</time>
      </trkpt>
      <trkpt lat="48.66677" lon="-2.94549">
        <ele>79</ele>
        <time>2025-06-07T09:50:20Z</time>
      </trkpt>
      <trkpt lat="48.66686" lon="-2.94573">
        <ele>79</ele>
        <time>2025-06-07T09:50:23Z</time>
      </trkpt>
      <trkpt lat="48.66712" lon="-2.9467">
        <ele>83</ele>
        <time>2025-06-07T09:50:36Z</time>
      </trkpt>
      <trkpt lat="48.66717" lon="-2.94682">
        <ele>83</ele>
        <time>2025-06-07T09:50:37Z</time>
      </trkpt>
      <trkpt lat="48.66718" lon="-2.94688">
        <ele>83</ele>
        <time>2025-06-07T09:50:38Z</time>
      </trkpt>
      <trkpt lat="48.66722" lon="-2.94696">
        <ele>83</ele>
        <time>2025-06-07T09:50:39Z</time>
      </trkpt>
      <trkpt lat="48.66724" lon="-2.94707">
        <ele>83</ele>
        <time>2025-06-07T09:50:41Z</time>
      </trkpt>
      <trkpt lat="48.66723" lon="-2.94714">
        <ele>83</ele>
        <time>2025-06-07T09:50:41Z</time>
      </trkpt>
      <trkpt lat="48.66718" lon="-2.94729">
        <ele>83</ele>
        <time>2025-06-07T09:50:43Z</time>
      </trkpt>
      <trkpt lat="48.66707" lon="-2.94753">
        <ele>83</ele>
        <time>2025-06-07T09:50:47Z</time>
      </trkpt>
      <trkpt lat="48.66699" lon="-2.94772">
        <ele>83</ele>
        <time>2025-06-07T09:50:49Z</time>
      </trkpt>
      <trkpt lat="48.66697" lon="-2.94782">
        <ele>83</ele>
        <time>2025-06-07T09:50:51Z</time>
      </trkpt>
      <trkpt lat="48.66704" lon="-2.94839">
        <ele>83</ele>
        <time>2025-06-07T09:50:57Z</time>
      </trkpt>
      <trkpt lat="48.66716" lon="-2.94908">
        <ele>83</ele>
        <time>2025-06-07T09:51:06Z</time>
      </trkpt>
      <trkpt lat="48.66719" lon="-2.94944">
        <ele>83</ele>
        <time>2025-06-07T09:51:10Z</time>
      </trkpt>
      <trkpt lat="48.66719" lon="-2.94966">
        <ele>84</ele>
        <time>2025-06-07T09:51:13Z</time>
      </trkpt>
      <trkpt lat="48.66716" lon="-2.95002">
        <ele>84</ele>
        <time>2025-06-07T09:51:17Z</time>
      </trkpt>
      <trkpt lat="48.66711" lon="-2.95051">
        <ele>85</ele>
        <time>2025-06-07T09:51:23Z</time>
      </trkpt>
      <trkpt lat="48.66701" lon="-2.95109">
        <ele>85</ele>
        <time>2025-06-07T09:51:30Z</time>
      </trkpt>
      <trkpt lat="48.66698" lon="-2.95131">
        <ele>85</ele>
        <time>2025-06-07T09:51:32Z</time>
      </trkpt>
      <trkpt lat="48.66698" lon="-2.95148">
        <ele>85</ele>
        <time>2025-06-07T09:51:34Z</time>
      </trkpt>
      <trkpt lat="48.66699" lon="-2.95161">
        <ele>85</ele>
        <time>2025-06-07T09:51:36Z</time>
      </trkpt>
      <trkpt lat="48.66702" lon="-2.95172">
        <ele>86</ele>
        <time>2025-06-07T09:51:37Z</time>
      </trkpt>
      <trkpt lat="48.66706" lon="-2.95184">
        <ele>86</ele>
        <time>2025-06-07T09:51:39Z</time>
      </trkpt>
      <trkpt lat="48.6671" lon="-2.95192">
        <ele>86</ele>
        <time>2025-06-07T09:51:40Z</time>
      </trkpt>
      <trkpt lat="48.66716" lon="-2.95204">
        <ele>86</ele>
        <time>2025-06-07T09:51:42Z</time>
      </trkpt>
      <trkpt lat="48.66727" lon="-2.95219">
        <ele>87</ele>
        <time>2025-06-07T09:51:45Z</time>
      </trkpt>
      <trkpt lat="48.66776" lon="-2.95263">
        <ele>88</ele>
        <time>2025-06-07T09:51:55Z</time>
      </trkpt>
      <trkpt lat="48.66791" lon="-2.95279">
        <ele>88</ele>
        <time>2025-06-07T09:51:58Z</time>
      </trkpt>
      <trkpt lat="48.66797" lon="-2.9529">
        <ele>88</ele>
        <time>2025-06-07T09:52:00Z</time>
      </trkpt>
      <trkpt lat="48.668" lon="-2.95297">
        <ele>88</ele>
        <time>2025-06-07T09:52:01Z</time>
      </trkpt>
      <trkpt lat="48.668" lon="-2.95305">
        <ele>88</ele>
        <time>2025-06-07T09:52:02Z</time>
      </trkpt>
      <trkpt lat="48.668" lon="-2.95314">
        <ele>88</ele>
        <time>2025-06-07T09:52:03Z</time>
      </trkpt>
      <trkpt lat="48.66798" lon="-2.95341">
        <ele>88</ele>
        <time>2025-06-07T09:52:06Z</time>
      </trkpt>
      <trkpt lat="48.66799" lon="-2.95361">
        <ele>88</ele>
        <time>2025-06-07T09:52:08Z</time>
      </trkpt>
      <trkpt lat="48.66803" lon="-2.9541">
        <ele>88</ele>
        <time>2025-06-07T09:52:14Z</time>
      </trkpt>
      <trkpt lat="48.66803" lon="-2.95429">
        <ele>88</ele>
        <time>2025-06-07T09:52:16Z</time>
      </trkpt>
      <trkpt lat="48.66802" lon="-2.9545">
        <ele>87</ele>
        <time>2025-06-07T09:52:19Z</time>
      </trkpt>
      <trkpt lat="48.66799" lon="-2.95468">
        <ele>87</ele>
        <time>2025-06-07T09:52:21Z</time>
      </trkpt>
      <trkpt lat="48.66797" lon="-2.9548">
        <ele>87</ele>
        <time>2025-06-07T09:52:22Z</time>
      </trkpt>
      <trkpt lat="48.66793" lon="-2.95496">
        <ele>87</ele>
        <time>2025-06-07T09:52:24Z</time>
      </trkpt>
      <trkpt lat="48.66786" lon="-2.9552">
        <ele>87</ele>
        <time>2025-06-07T09:52:27Z</time>
      </trkpt>
      <trkpt lat="48.66776" lon="-2.95587">
        <ele>86</ele>
        <time>2025-06-07T09:52:35Z</time>
      </trkpt>
      <trkpt lat="48.66772" lon="-2.95621">
        <ele>86</ele>
        <time>2025-06-07T09:52:40Z</time>
      </trkpt>
      <trkpt lat="48.6677" lon="-2.95637">
        <ele>86</ele>
        <time>2025-06-07T09:52:41Z</time>
      </trkpt>
      <trkpt lat="48.66771" lon="-2.95651">
        <ele>86</ele>
        <time>2025-06-07T09:52:43Z</time>
      </trkpt>
      <trkpt lat="48.66773" lon="-2.95671">
        <ele>86</ele>
        <time>2025-06-07T09:52:45Z</time>
      </trkpt>
      <trkpt lat="48.6678" lon="-2.95713">
        <ele>87</ele>
        <time>2025-06-07T09:52:51Z</time>
      </trkpt>
      <trkpt lat="48.66803" lon="-2.95807">
        <ele>88</ele>
        <time>2025-06-07T09:53:02Z</time>
      </trkpt>
      <trkpt lat="48.66806" lon="-2.95818">
        <ele>88</ele>
        <time>2025-06-07T09:53:04Z</time>
      </trkpt>
      <trkpt lat="48.66816" lon="-2.95839">
        <ele>89</ele>
        <time>2025-06-07T09:53:07Z</time>
      </trkpt>
      <trkpt lat="48.66827" lon="-2.95862">
        <ele>89</ele>
        <time>2025-06-07T09:53:10Z</time>
      </trkpt>
      <trkpt lat="48.66845" lon="-2.95891">
        <ele>89</ele>
        <time>2025-06-07T09:53:15Z</time>
      </trkpt>
      <trkpt lat="48.66865" lon="-2.95919">
        <ele>90</ele>
        <time>2025-06-07T09:53:20Z</time>
      </trkpt>
      <trkpt lat="48.66886" lon="-2.95942">
        <ele>90</ele>
        <time>2025-06-07T09:53:24Z</time>
      </trkpt>
      <trkpt lat="48.66947" lon="-2.95996">
        <ele>93</ele>
        <time>2025-06-07T09:53:37Z</time>
      </trkpt>
      <trkpt lat="48.66961" lon="-2.96011">
        <ele>93</ele>
        <time>2025-06-07T09:53:40Z</time>
      </trkpt>
      <trkpt lat="48.6697" lon="-2.96023">
        <ele>94</ele>
        <time>2025-06-07T09:53:42Z</time>
      </trkpt>
      <trkpt lat="48.66978" lon="-2.96034">
        <ele>94</ele>
        <time>2025-06-07T09:53:44Z</time>
      </trkpt>
      <trkpt lat="48.66984" lon="-2.96047">
        <ele>94</ele>
        <time>2025-06-07T09:53:46Z</time>
      </trkpt>
      <trkpt lat="48.66993" lon="-2.96068">
        <ele>94</ele>
        <time>2025-06-07T09:53:49Z</time>
      </trkpt>
      <trkpt lat="48.66999" lon="-2.96086">
        <ele>94</ele>
        <time>2025-06-07T09:53:51Z</time>
      </trkpt>
      <trkpt lat="48.67018" lon="-2.9617">
        <ele>93</ele>
        <time>2025-06-07T09:54:02Z</time>
      </trkpt>
      <trkpt lat="48.67021" lon="-2.96172">
        <ele>93</ele>
        <time>2025-06-07T09:54:02Z</time>
      </trkpt>
      <trkpt lat="48.67055" lon="-2.96193">
        <ele>94</ele>
        <time>2025-06-07T09:54:09Z</time>
      </trkpt>
      <trkpt lat="48.67061" lon="-2.96204">
        <ele>94</ele>
        <time>2025-06-07T09:54:10Z</time>
      </trkpt>
      <trkpt lat="48.67082" lon="-2.96241">
        <ele>94</ele>
        <time>2025-06-07T09:54:16Z</time>
      </trkpt>
      <trkpt lat="48.67092" lon="-2.96259">
        <ele>95</ele>
        <time>2025-06-07T09:54:19Z</time>
      </trkpt>
      <trkpt lat="48.67095" lon="-2.96268">
        <ele>95</ele>
        <time>2025-06-07T09:54:20Z</time>
      </trkpt>
      <trkpt lat="48.67097" lon="-2.96276">
        <ele>95</ele>
        <time>2025-06-07T09:54:21Z</time>
      </trkpt>
      <trkpt lat="48.67111" lon="-2.96344">
        <ele>96</ele>
        <time>2025-06-07T09:54:29Z</time>
      </trkpt>
      <trkpt lat="48.67121" lon="-2.9638">
        <ele>96</ele>
        <time>2025-06-07T09:54:34Z</time>
      </trkpt>
      <trkpt lat="48.67133" lon="-2.96415">
        <ele>96</ele>
        <time>2025-06-07T09:54:39Z</time>
      </trkpt>
      <trkpt lat="48.67135" lon="-2.96421">
        <ele>96</ele>
        <time>2025-06-07T09:54:39Z</time>
      </trkpt>
      <trkpt lat="48.6715" lon="-2.96462">
        <ele>97</ele>
        <time>2025-06-07T09:54:45Z</time>
      </trkpt>
      <trkpt lat="48.67153" lon="-2.96475">
        <ele>98</ele>
        <time>2025-06-07T09:54:47Z</time>
      </trkpt>
      <trkpt lat="48.67154" lon="-2.96489">
        <ele>98</ele>
        <time>2025-06-07T09:54:48Z</time>
      </trkpt>
      <trkpt lat="48.67154" lon="-2.96517">
        <ele>98</ele>
        <time>2025-06-07T09:54:51Z</time>
      </trkpt>
      <trkpt lat="48.67147" lon="-2.96599">
        <ele>98</ele>
        <time>2025-06-07T09:55:01Z</time>
      </trkpt>
      <trkpt lat="48.67142" lon="-2.96646">
        <ele>97</ele>
        <time>2025-06-07T09:55:07Z</time>
      </trkpt>
      <trkpt lat="48.67127" lon="-2.96743">
        <ele>95</ele>
        <time>2025-06-07T09:55:19Z</time>
      </trkpt>
      <trkpt lat="48.67117" lon="-2.9683">
        <ele>93</ele>
        <time>2025-06-07T09:55:29Z</time>
      </trkpt>
      <trkpt lat="48.67114" lon="-2.96851">
        <ele>93</ele>
        <time>2025-06-07T09:55:31Z</time>
      </trkpt>
      <trkpt lat="48.6711" lon="-2.96868">
        <ele>93</ele>
        <time>2025-06-07T09:55:34Z</time>
      </trkpt>
      <trkpt lat="48.67105" lon="-2.96886">
        <ele>92</ele>
        <time>2025-06-07T09:55:36Z</time>
      </trkpt>
      <trkpt lat="48.67084" lon="-2.96933">
        <ele>91</ele>
        <time>2025-06-07T09:55:42Z</time>
      </trkpt>
      <trkpt lat="48.67078" lon="-2.96949">
        <ele>90</ele>
        <time>2025-06-07T09:55:45Z</time>
      </trkpt>
      <trkpt lat="48.67074" lon="-2.96966">
        <ele>90</ele>
        <time>2025-06-07T09:55:47Z</time>
      </trkpt>
      <trkpt lat="48.67071" lon="-2.97001">
        <ele>90</ele>
        <time>2025-06-07T09:55:51Z</time>
      </trkpt>
      <trkpt lat="48.6707" lon="-2.97026">
        <ele>89</ele>
        <time>2025-06-07T09:55:54Z</time>
      </trkpt>
      <trkpt lat="48.6707" lon="-2.97092">
        <ele>88</ele>
        <time>2025-06-07T09:56:02Z</time>
      </trkpt>
      <trkpt lat="48.6707" lon="-2.97127">
        <ele>87</ele>
        <time>2025-06-07T09:56:06Z</time>
      </trkpt>
      <trkpt lat="48.67068" lon="-2.9714">
        <ele>87</ele>
        <time>2025-06-07T09:56:07Z</time>
      </trkpt>
      <trkpt lat="48.67065" lon="-2.97158">
        <ele>87</ele>
        <time>2025-06-07T09:56:09Z</time>
      </trkpt>
      <trkpt lat="48.67061" lon="-2.97172">
        <ele>86</ele>
        <time>2025-06-07T09:56:11Z</time>
      </trkpt>
      <trkpt lat="48.67042" lon="-2.97235">
        <ele>86</ele>
        <time>2025-06-07T09:56:19Z</time>
      </trkpt>
      <trkpt lat="48.67028" lon="-2.97285">
        <ele>85</ele>
        <time>2025-06-07T09:56:26Z</time>
      </trkpt>
      <trkpt lat="48.67021" lon="-2.97306">
        <ele>85</ele>
        <time>2025-06-07T09:56:29Z</time>
      </trkpt>
      <trkpt lat="48.67012" lon="-2.97323">
        <ele>85</ele>
        <time>2025-06-07T09:56:31Z</time>
      </trkpt>
      <trkpt lat="48.67" lon="-2.97342">
        <ele>85</ele>
        <time>2025-06-07T09:56:34Z</time>
      </trkpt>
      <trkpt lat="48.66992" lon="-2.97356">
        <ele>84</ele>
        <time>2025-06-07T09:56:36Z</time>
      </trkpt>
      <trkpt lat="48.66988" lon="-2.97367">
        <ele>83</ele>
        <time>2025-06-07T09:56:38Z</time>
      </trkpt>
      <trkpt lat="48.66977" lon="-2.974">
        <ele>82</ele>
        <time>2025-06-07T09:56:42Z</time>
      </trkpt>
      <trkpt lat="48.66968" lon="-2.97442">
        <ele>81</ele>
        <time>2025-06-07T09:56:47Z</time>
      </trkpt>
      <trkpt lat="48.66963" lon="-2.97462">
        <ele>81</ele>
        <time>2025-06-07T09:56:50Z</time>
      </trkpt>
      <trkpt lat="48.66955" lon="-2.97494">
        <ele>81</ele>
        <time>2025-06-07T09:56:54Z</time>
      </trkpt>
      <trkpt lat="48.66945" lon="-2.97518">
        <ele>80</ele>
        <time>2025-06-07T09:56:57Z</time>
      </trkpt>
      <trkpt lat="48.66893" lon="-2.9761">
        <ele>76</ele>
        <time>2025-06-07T09:57:11Z</time>
      </trkpt>
      <trkpt lat="48.66876" lon="-2.97667">
        <ele>74</ele>
        <time>2025-06-07T09:57:19Z</time>
      </trkpt>
      <trkpt lat="48.66873" lon="-2.97776">
        <ele>72</ele>
        <time>2025-06-07T09:57:32Z</time>
      </trkpt>
      <trkpt lat="48.6686" lon="-2.97879">
        <ele>69</ele>
        <time>2025-06-07T09:57:44Z</time>
      </trkpt>
      <trkpt lat="48.6685" lon="-2.98029">
        <ele>68</ele>
        <time>2025-06-07T09:58:02Z</time>
      </trkpt>
      <trkpt lat="48.66829" lon="-2.98087">
        <ele>67</ele>
        <time>2025-06-07T09:58:09Z</time>
      </trkpt>
      <trkpt lat="48.66811" lon="-2.98114">
        <ele>65</ele>
        <time>2025-06-07T09:58:14Z</time>
      </trkpt>
      <trkpt lat="48.668" lon="-2.98128">
        <ele>65</ele>
        <time>2025-06-07T09:58:17Z</time>
      </trkpt>
      <trkpt lat="48.66766" lon="-2.98158">
        <ele>64</ele>
        <time>2025-06-07T09:58:24Z</time>
      </trkpt>
      <trkpt lat="48.66682" lon="-2.9824">
        <ele>65</ele>
        <time>2025-06-07T09:58:41Z</time>
      </trkpt>
      <trkpt lat="48.66598" lon="-2.98323">
        <ele>64</ele>
        <time>2025-06-07T09:58:59Z</time>
      </trkpt>
      <trkpt lat="48.66563" lon="-2.98349">
        <ele>63</ele>
        <time>2025-06-07T09:59:06Z</time>
      </trkpt>
      <trkpt lat="48.66557" lon="-2.98356">
        <ele>63</ele>
        <time>2025-06-07T09:59:07Z</time>
      </trkpt>
      <trkpt lat="48.66553" lon="-2.98366">
        <ele>63</ele>
        <time>2025-06-07T09:59:09Z</time>
      </trkpt>
      <trkpt lat="48.66534" lon="-2.98417">
        <ele>61</ele>
        <time>2025-06-07T09:59:16Z</time>
      </trkpt>
      <trkpt lat="48.66525" lon="-2.98426">
        <ele>61</ele>
        <time>2025-06-07T09:59:18Z</time>
      </trkpt>
      <trkpt lat="48.66505" lon="-2.98441">
        <ele>60</ele>
        <time>2025-06-07T09:59:22Z</time>
      </trkpt>
      <trkpt lat="48.66427" lon="-2.9849">
        <ele>58</ele>
        <time>2025-06-07T09:59:37Z</time>
      </trkpt>
      <trkpt lat="48.66406" lon="-2.9851">
        <ele>58</ele>
        <time>2025-06-07T09:59:41Z</time>
      </trkpt>
      <trkpt lat="48.66325" lon="-2.986">
        <ele>58</ele>
        <time>2025-06-07T09:59:59Z</time>
      </trkpt>
      <trkpt lat="48.66301" lon="-2.98624">
        <ele>58</ele>
        <time>2025-06-07T10:00:04Z</time>
      </trkpt>
      <trkpt lat="48.66287" lon="-2.98634">
        <ele>57</ele>
        <time>2025-06-07T10:00:07Z</time>
      </trkpt>
      <trkpt lat="48.66283" lon="-2.98644">
        <ele>57</ele>
        <time>2025-06-07T10:00:08Z</time>
      </trkpt>
      <trkpt lat="48.66284" lon="-2.98648">
        <ele>57</ele>
        <time>2025-06-07T10:00:09Z</time>
      </trkpt>
      <trkpt lat="48.66236" lon="-2.98658">
        <ele>57</ele>
        <time>2025-06-07T10:00:17Z</time>
      </trkpt>
      <trkpt lat="48.66241" lon="-2.98714">
        <ele>59</ele>
        <time>2025-06-07T10:00:24Z</time>
      </trkpt>
      <trkpt lat="48.66244" lon="-2.98745">
        <ele>60</ele>
        <time>2025-06-07T10:00:28Z</time>
      </trkpt>
      <trkpt lat="48.66261" lon="-2.98817">
        <ele>62</ele>
        <time>2025-06-07T10:00:37Z</time>
      </trkpt>
      <trkpt lat="48.66267" lon="-2.98865">
        <ele>62</ele>
        <time>2025-06-07T10:00:42Z</time>
      </trkpt>
      <trkpt lat="48.66268" lon="-2.98898">
        <ele>63</ele>
        <time>2025-06-07T10:00:46Z</time>
      </trkpt>
      <trkpt lat="48.6626" lon="-2.98946">
        <ele>63</ele>
        <time>2025-06-07T10:00:52Z</time>
      </trkpt>
      <trkpt lat="48.66253" lon="-2.98963">
        <ele>63</ele>
        <time>2025-06-07T10:00:54Z</time>
      </trkpt>
      <trkpt lat="48.66241" lon="-2.98983">
        <ele>63</ele>
        <time>2025-06-07T10:00:58Z</time>
      </trkpt>
      <trkpt lat="48.66227" lon="-2.98999">
        <ele>63</ele>
        <time>2025-06-07T10:01:01Z</time>
      </trkpt>
      <trkpt lat="48.66209" lon="-2.99008">
        <ele>63</ele>
        <time>2025-06-07T10:01:04Z</time>
      </trkpt>
      <trkpt lat="48.66196" lon="-2.99017">
        <ele>62</ele>
        <time>2025-06-07T10:01:07Z</time>
      </trkpt>
      <trkpt lat="48.66156" lon="-2.99059">
        <ele>61</ele>
        <time>2025-06-07T10:01:15Z</time>
      </trkpt>
      <trkpt lat="48.66128" lon="-2.99081">
        <ele>60</ele>
        <time>2025-06-07T10:01:21Z</time>
      </trkpt>
      <trkpt lat="48.66105" lon="-2.99091">
        <ele>59</ele>
        <time>2025-06-07T10:01:25Z</time>
      </trkpt>
      <trkpt lat="48.6607" lon="-2.99099">
        <ele>58</ele>
        <time>2025-06-07T10:01:31Z</time>
      </trkpt>
      <trkpt lat="48.66008" lon="-2.99115">
        <ele>58</ele>
        <time>2025-06-07T10:01:43Z</time>
      </trkpt>
      <trkpt lat="48.65957" lon="-2.99138">
        <ele>55</ele>
        <time>2025-06-07T10:01:52Z</time>
      </trkpt>
      <trkpt lat="48.65939" lon="-2.99148">
        <ele>54</ele>
        <time>2025-06-07T10:01:55Z</time>
      </trkpt>
      <trkpt lat="48.65931" lon="-2.9916">
        <ele>53</ele>
        <time>2025-06-07T10:01:57Z</time>
      </trkpt>
      <trkpt lat="48.65923" lon="-2.99177">
        <ele>53</ele>
        <time>2025-06-07T10:02:00Z</time>
      </trkpt>
      <trkpt lat="48.65908" lon="-2.99246">
        <ele>53</ele>
        <time>2025-06-07T10:02:08Z</time>
      </trkpt>
      <trkpt lat="48.65897" lon="-2.99274">
        <ele>52</ele>
        <time>2025-06-07T10:02:12Z</time>
      </trkpt>
      <trkpt lat="48.65885" lon="-2.99289">
        <ele>51</ele>
        <time>2025-06-07T10:02:15Z</time>
      </trkpt>
      <trkpt lat="48.65869" lon="-2.99311">
        <ele>50</ele>
        <time>2025-06-07T10:02:19Z</time>
      </trkpt>
      <trkpt lat="48.65856" lon="-2.99328">
        <ele>50</ele>
        <time>2025-06-07T10:02:22Z</time>
      </trkpt>
      <trkpt lat="48.6584" lon="-2.99363">
        <ele>50</ele>
        <time>2025-06-07T10:02:27Z</time>
      </trkpt>
      <trkpt lat="48.65828" lon="-2.99405">
        <ele>52</ele>
        <time>2025-06-07T10:02:32Z</time>
      </trkpt>
      <trkpt lat="48.65822" lon="-2.99448">
        <ele>53</ele>
        <time>2025-06-07T10:02:38Z</time>
      </trkpt>
      <trkpt lat="48.65817" lon="-2.99538">
        <ele>53</ele>
        <time>2025-06-07T10:02:48Z</time>
      </trkpt>
      <trkpt lat="48.65814" lon="-2.99568">
        <ele>53</ele>
        <time>2025-06-07T10:02:52Z</time>
      </trkpt>
      <trkpt lat="48.65804" lon="-2.99603">
        <ele>53</ele>
        <time>2025-06-07T10:02:56Z</time>
      </trkpt>
      <trkpt lat="48.65786" lon="-2.99654">
        <ele>54</ele>
        <time>2025-06-07T10:03:03Z</time>
      </trkpt>
      <trkpt lat="48.6578" lon="-2.99679">
        <ele>54</ele>
        <time>2025-06-07T10:03:06Z</time>
      </trkpt>
      <trkpt lat="48.65775" lon="-2.99711">
        <ele>55</ele>
        <time>2025-06-07T10:03:10Z</time>
      </trkpt>
      <trkpt lat="48.65774" lon="-2.99733">
        <ele>55</ele>
        <time>2025-06-07T10:03:13Z</time>
      </trkpt>
      <trkpt lat="48.65775" lon="-2.99774">
        <ele>55</ele>
        <time>2025-06-07T10:03:17Z</time>
      </trkpt>
      <trkpt lat="48.65789" lon="-2.99869">
        <ele>54</ele>
        <time>2025-06-07T10:03:29Z</time>
      </trkpt>
      <trkpt lat="48.65813" lon="-3.00024">
        <ele>53</ele>
        <time>2025-06-07T10:03:48Z</time>
      </trkpt>
      <trkpt lat="48.65829" lon="-3.00109">
        <ele>53</ele>
        <time>2025-06-07T10:03:58Z</time>
      </trkpt>
      <trkpt lat="48.6584" lon="-3.00156">
        <ele>55</ele>
        <time>2025-06-07T10:04:04Z</time>
      </trkpt>
      <trkpt lat="48.65845" lon="-3.00194">
        <ele>56</ele>
        <time>2025-06-07T10:04:08Z</time>
      </trkpt>
      <trkpt lat="48.65849" lon="-3.00242">
        <ele>56</ele>
        <time>2025-06-07T10:04:14Z</time>
      </trkpt>
      <trkpt lat="48.65859" lon="-3.00297">
        <ele>57</ele>
        <time>2025-06-07T10:04:21Z</time>
      </trkpt>
      <trkpt lat="48.65875" lon="-3.00373">
        <ele>58</ele>
        <time>2025-06-07T10:04:30Z</time>
      </trkpt>
      <trkpt lat="48.65896" lon="-3.00452">
        <ele>60</ele>
        <time>2025-06-07T10:04:40Z</time>
      </trkpt>
      <trkpt lat="48.65899" lon="-3.00477">
        <ele>61</ele>
        <time>2025-06-07T10:04:43Z</time>
      </trkpt>
      <trkpt lat="48.659" lon="-3.00486">
        <ele>61</ele>
        <time>2025-06-07T10:04:44Z</time>
      </trkpt>
      <trkpt lat="48.659" lon="-3.00515">
        <ele>62</ele>
        <time>2025-06-07T10:04:48Z</time>
      </trkpt>
      <trkpt lat="48.65875" lon="-3.0067">
        <ele>66</ele>
        <time>2025-06-07T10:05:06Z</time>
      </trkpt>
      <trkpt lat="48.65869" lon="-3.00705">
        <ele>66</ele>
        <time>2025-06-07T10:05:11Z</time>
      </trkpt>
      <trkpt lat="48.65855" lon="-3.00766">
        <ele>67</ele>
        <time>2025-06-07T10:05:18Z</time>
      </trkpt>
      <trkpt lat="48.65853" lon="-3.00794">
        <ele>68</ele>
        <time>2025-06-07T10:05:21Z</time>
      </trkpt>
      <trkpt lat="48.65851" lon="-3.00817">
        <ele>68</ele>
        <time>2025-06-07T10:05:24Z</time>
      </trkpt>
      <trkpt lat="48.65851" lon="-3.00876">
        <ele>71</ele>
        <time>2025-06-07T10:05:31Z</time>
      </trkpt>
      <trkpt lat="48.65836" lon="-3.00879">
        <ele>71</ele>
        <time>2025-06-07T10:05:34Z</time>
      </trkpt>
      <trkpt lat="48.65828" lon="-3.00881">
        <ele>71</ele>
        <time>2025-06-07T10:05:35Z</time>
      </trkpt>
      <trkpt lat="48.65801" lon="-3.00854">
        <ele>70</ele>
        <time>2025-06-07T10:05:41Z</time>
      </trkpt>
      <trkpt lat="48.65796" lon="-3.00851">
        <ele>69</ele>
        <time>2025-06-07T10:05:42Z</time>
      </trkpt>
      <trkpt lat="48.65776" lon="-3.00841">
        <ele>69</ele>
        <time>2025-06-07T10:05:46Z</time>
      </trkpt>
      <trkpt lat="48.65748" lon="-3.00822">
        <ele>69</ele>
        <time>2025-06-07T10:05:51Z</time>
      </trkpt>
      <trkpt lat="48.65732" lon="-3.00815">
        <ele>69</ele>
        <time>2025-06-07T10:05:54Z</time>
      </trkpt>
      <trkpt lat="48.65705" lon="-3.00807">
        <ele>69</ele>
        <time>2025-06-07T10:05:59Z</time>
      </trkpt>
      <trkpt lat="48.65689" lon="-3.008">
        <ele>69</ele>
        <time>2025-06-07T10:06:02Z</time>
      </trkpt>
      <trkpt lat="48.65662" lon="-3.00781">
        <ele>69</ele>
        <time>2025-06-07T10:06:07Z</time>
      </trkpt>
      <trkpt lat="48.6563" lon="-3.00756">
        <ele>68</ele>
        <time>2025-06-07T10:06:14Z</time>
      </trkpt>
      <trkpt lat="48.65544" lon="-3.00715">
        <ele>69</ele>
        <time>2025-06-07T10:06:30Z</time>
      </trkpt>
      <trkpt lat="48.65531" lon="-3.00711">
        <ele>70</ele>
        <time>2025-06-07T10:06:32Z</time>
      </trkpt>
      <trkpt lat="48.65498" lon="-3.00687">
        <ele>70</ele>
        <time>2025-06-07T10:06:39Z</time>
      </trkpt>
      <trkpt lat="48.65472" lon="-3.00672">
        <ele>71</ele>
        <time>2025-06-07T10:06:44Z</time>
      </trkpt>
      <trkpt lat="48.65462" lon="-3.00659">
        <ele>71</ele>
        <time>2025-06-07T10:06:46Z</time>
      </trkpt>
      <trkpt lat="48.65428" lon="-3.00614">
        <ele>73</ele>
        <time>2025-06-07T10:06:54Z</time>
      </trkpt>
      <trkpt lat="48.65388" lon="-3.00578">
        <ele>74</ele>
        <time>2025-06-07T10:07:02Z</time>
      </trkpt>
      <trkpt lat="48.65352" lon="-3.00555">
        <ele>75</ele>
        <time>2025-06-07T10:07:09Z</time>
      </trkpt>
      <trkpt lat="48.65331" lon="-3.00535">
        <ele>76</ele>
        <time>2025-06-07T10:07:14Z</time>
      </trkpt>
      <trkpt lat="48.65287" lon="-3.00459">
        <ele>76</ele>
        <time>2025-06-07T10:07:26Z</time>
      </trkpt>
      <trkpt lat="48.65248" lon="-3.00359">
        <ele>75</ele>
        <time>2025-06-07T10:07:39Z</time>
      </trkpt>
      <trkpt lat="48.65107" lon="-3.0017">
        <ele>73</ele>
        <time>2025-06-07T10:08:13Z</time>
      </trkpt>
      <trkpt lat="48.65055" lon="-3.0009">
        <ele>74</ele>
        <time>2025-06-07T10:08:26Z</time>
      </trkpt>
      <trkpt lat="48.65025" lon="-3.00044">
        <ele>76</ele>
        <time>2025-06-07T10:08:33Z</time>
      </trkpt>
      <trkpt lat="48.64971" lon="-2.99926">
        <ele>75</ele>
        <time>2025-06-07T10:08:50Z</time>
      </trkpt>
      <trkpt lat="48.64924" lon="-2.99848">
        <ele>73</ele>
        <time>2025-06-07T10:09:03Z</time>
      </trkpt>
      <trkpt lat="48.64908" lon="-2.99823">
        <ele>72</ele>
        <time>2025-06-07T10:09:07Z</time>
      </trkpt>
      <trkpt lat="48.64898" lon="-2.99806">
        <ele>72</ele>
        <time>2025-06-07T10:09:10Z</time>
      </trkpt>
      <trkpt lat="48.64848" lon="-2.99711">
        <ele>72</ele>
        <time>2025-06-07T10:09:24Z</time>
      </trkpt>
      <trkpt lat="48.64836" lon="-2.99685">
        <ele>72</ele>
        <time>2025-06-07T10:09:28Z</time>
      </trkpt>
      <trkpt lat="48.64828" lon="-2.99656">
        <ele>72</ele>
        <time>2025-06-07T10:09:31Z</time>
      </trkpt>
      <trkpt lat="48.64777" lon="-2.99675">
        <ele>75</ele>
        <time>2025-06-07T10:09:41Z</time>
      </trkpt>
      <trkpt lat="48.64707" lon="-2.99682">
        <ele>79</ele>
        <time>2025-06-07T10:09:53Z</time>
      </trkpt>
      <trkpt lat="48.6457" lon="-2.99635">
        <ele>83</ele>
        <time>2025-06-07T10:10:18Z</time>
      </trkpt>
      <trkpt lat="48.6452" lon="-2.99615">
        <ele>84</ele>
        <time>2025-06-07T10:10:27Z</time>
      </trkpt>
      <trkpt lat="48.64501" lon="-2.99598">
        <ele>85</ele>
        <time>2025-06-07T10:10:31Z</time>
      </trkpt>
      <trkpt lat="48.64481" lon="-2.99573">
        <ele>86</ele>
        <time>2025-06-07T10:10:36Z</time>
      </trkpt>
      <trkpt lat="48.64466" lon="-2.99566">
        <ele>86</ele>
        <time>2025-06-07T10:10:39Z</time>
      </trkpt>
      <trkpt lat="48.64444" lon="-2.99566">
        <ele>87</ele>
        <time>2025-06-07T10:10:42Z</time>
      </trkpt>
      <trkpt lat="48.64417" lon="-2.99562">
        <ele>88</ele>
        <time>2025-06-07T10:10:47Z</time>
      </trkpt>
      <trkpt lat="48.64395" lon="-2.99556">
        <ele>88</ele>
        <time>2025-06-07T10:10:51Z</time>
      </trkpt>
      <trkpt lat="48.64366" lon="-2.99535">
        <ele>89</ele>
        <time>2025-06-07T10:10:57Z</time>
      </trkpt>
      <trkpt lat="48.64312" lon="-2.99482">
        <ele>89</ele>
        <time>2025-06-07T10:11:08Z</time>
      </trkpt>
      <trkpt lat="48.64274" lon="-2.99455">
        <ele>90</ele>
        <time>2025-06-07T10:11:16Z</time>
      </trkpt>
      <trkpt lat="48.64202" lon="-2.99394">
        <ele>90</ele>
        <time>2025-06-07T10:11:31Z</time>
      </trkpt>
      <trkpt lat="48.64162" lon="-2.99352">
        <ele>90</ele>
        <time>2025-06-07T10:11:39Z</time>
      </trkpt>
      <trkpt lat="48.6413" lon="-2.99312">
        <ele>91</ele>
        <time>2025-06-07T10:11:47Z</time>
      </trkpt>
      <trkpt lat="48.64103" lon="-2.99283">
        <ele>92</ele>
        <time>2025-06-07T10:11:53Z</time>
      </trkpt>
      <trkpt lat="48.64094" lon="-2.9927">
        <ele>92</ele>
        <time>2025-06-07T10:11:55Z</time>
      </trkpt>
      <trkpt lat="48.64085" lon="-2.99251">
        <ele>93</ele>
        <time>2025-06-07T10:11:58Z</time>
      </trkpt>
      <trkpt lat="48.64039" lon="-2.99117">
        <ele>91</ele>
        <time>2025-06-07T10:12:15Z</time>
      </trkpt>
      <trkpt lat="48.64033" lon="-2.9909">
        <ele>90</ele>
        <time>2025-06-07T10:12:19Z</time>
      </trkpt>
      <trkpt lat="48.6406" lon="-2.99101">
        <ele>91</ele>
        <time>2025-06-07T10:12:24Z</time>
      </trkpt>
      <trkpt lat="48.64089" lon="-2.99109">
        <ele>91</ele>
        <time>2025-06-07T10:12:29Z</time>
      </trkpt>
      <trkpt lat="48.64081" lon="-2.99024">
        <ele>89</ele>
        <time>2025-06-07T10:12:39Z</time>
      </trkpt>
      <trkpt lat="48.64075" lon="-2.98979">
        <ele>88</ele>
        <time>2025-06-07T10:12:44Z</time>
      </trkpt>
      <trkpt lat="48.64063" lon="-2.98931">
        <ele>87</ele>
        <time>2025-06-07T10:12:50Z</time>
      </trkpt>
      <trkpt lat="48.64039" lon="-2.98851">
        <ele>87</ele>
        <time>2025-06-07T10:13:01Z</time>
      </trkpt>
      <trkpt lat="48.64034" lon="-2.98829">
        <ele>87</ele>
        <time>2025-06-07T10:13:03Z</time>
      </trkpt>
      <trkpt lat="48.64026" lon="-2.98797">
        <ele>86</ele>
        <time>2025-06-07T10:13:07Z</time>
      </trkpt>
      <trkpt lat="48.64018" lon="-2.98698">
        <ele>85</ele>
        <time>2025-06-07T10:13:19Z</time>
      </trkpt>
      <trkpt lat="48.63955" lon="-2.98705">
        <ele>87</ele>
        <time>2025-06-07T10:13:30Z</time>
      </trkpt>
      <trkpt lat="48.63938" lon="-2.98706">
        <ele>88</ele>
        <time>2025-06-07T10:13:33Z</time>
      </trkpt>
      <trkpt lat="48.63931" lon="-2.98709">
        <ele>88</ele>
        <time>2025-06-07T10:13:35Z</time>
      </trkpt>
      <trkpt lat="48.63915" lon="-2.98731">
        <ele>89</ele>
        <time>2025-06-07T10:13:39Z</time>
      </trkpt>
      <trkpt lat="48.63914" lon="-2.98737">
        <ele>89</ele>
        <time>2025-06-07T10:13:39Z</time>
      </trkpt>
      <trkpt lat="48.63912" lon="-2.98743">
        <ele>89</ele>
        <time>2025-06-07T10:13:40Z</time>
      </trkpt>
      <trkpt lat="48.63909" lon="-2.98749">
        <ele>89</ele>
        <time>2025-06-07T10:13:41Z</time>
      </trkpt>
      <trkpt lat="48.63906" lon="-2.98753">
        <ele>89</ele>
        <time>2025-06-07T10:13:42Z</time>
      </trkpt>
      <trkpt lat="48.63902" lon="-2.98756">
        <ele>90</ele>
        <time>2025-06-07T10:13:42Z</time>
      </trkpt>
      <trkpt lat="48.63897" lon="-2.98757">
        <ele>90</ele>
        <time>2025-06-07T10:13:43Z</time>
      </trkpt>
      <trkpt lat="48.63891" lon="-2.98755">
        <ele>90</ele>
        <time>2025-06-07T10:13:44Z</time>
      </trkpt>
      <trkpt lat="48.63887" lon="-2.98752">
        <ele>90</ele>
        <time>2025-06-07T10:13:45Z</time>
      </trkpt>
      <trkpt lat="48.63883" lon="-2.98747">
        <ele>90</ele>
        <time>2025-06-07T10:13:46Z</time>
      </trkpt>
      <trkpt lat="48.6388" lon="-2.9874">
        <ele>90</ele>
        <time>2025-06-07T10:13:47Z</time>
      </trkpt>
      <trkpt lat="48.63879" lon="-2.98732">
        <ele>90</ele>
        <time>2025-06-07T10:13:48Z</time>
      </trkpt>
      <trkpt lat="48.63868" lon="-2.9872">
        <ele>91</ele>
        <time>2025-06-07T10:13:51Z</time>
      </trkpt>
      <trkpt lat="48.63862" lon="-2.98718">
        <ele>91</ele>
        <time>2025-06-07T10:13:52Z</time>
      </trkpt>
      <trkpt lat="48.6383" lon="-2.98723">
        <ele>92</ele>
        <time>2025-06-07T10:13:57Z</time>
      </trkpt>
      <trkpt lat="48.638" lon="-2.98725">
        <ele>92</ele>
        <time>2025-06-07T10:14:03Z</time>
      </trkpt>
      <trkpt lat="48.63745" lon="-2.98723">
        <ele>93</ele>
        <time>2025-06-07T10:14:12Z</time>
      </trkpt>
      <trkpt lat="48.63728" lon="-2.98721">
        <ele>93</ele>
        <time>2025-06-07T10:14:16Z</time>
      </trkpt>
      <trkpt lat="48.6368" lon="-2.98711">
        <ele>93</ele>
        <time>2025-06-07T10:14:24Z</time>
      </trkpt>
      <trkpt lat="48.63665" lon="-2.9871">
        <ele>93</ele>
        <time>2025-06-07T10:14:27Z</time>
      </trkpt>
      <trkpt lat="48.63643" lon="-2.98704">
        <ele>93</ele>
        <time>2025-06-07T10:14:31Z</time>
      </trkpt>
      <trkpt lat="48.63622" lon="-2.98704">
        <ele>93</ele>
        <time>2025-06-07T10:14:35Z</time>
      </trkpt>
      <trkpt lat="48.6361" lon="-2.98699">
        <ele>93</ele>
        <time>2025-06-07T10:14:37Z</time>
      </trkpt>
      <trkpt lat="48.63554" lon="-2.98691">
        <ele>93</ele>
        <time>2025-06-07T10:14:47Z</time>
      </trkpt>
      <trkpt lat="48.63543" lon="-2.98691">
        <ele>93</ele>
        <time>2025-06-07T10:14:49Z</time>
      </trkpt>
      <trkpt lat="48.6354" lon="-2.98691">
        <ele>93</ele>
        <time>2025-06-07T10:14:49Z</time>
      </trkpt>
      <trkpt lat="48.63527" lon="-2.98693">
        <ele>93</ele>
        <time>2025-06-07T10:14:52Z</time>
      </trkpt>
      <trkpt lat="48.6344" lon="-2.98697">
        <ele>93</ele>
        <time>2025-06-07T10:15:07Z</time>
      </trkpt>
      <trkpt lat="48.6343" lon="-2.98697">
        <ele>94</ele>
        <time>2025-06-07T10:15:09Z</time>
      </trkpt>
      <trkpt lat="48.6342" lon="-2.98697">
        <ele>94</ele>
        <time>2025-06-07T10:15:11Z</time>
      </trkpt>
      <trkpt lat="48.63415" lon="-2.98698">
        <ele>94</ele>
        <time>2025-06-07T10:15:12Z</time>
      </trkpt>
      <trkpt lat="48.63412" lon="-2.98697">
        <ele>94</ele>
        <time>2025-06-07T10:15:12Z</time>
      </trkpt>
      <trkpt lat="48.6338" lon="-2.98696">
        <ele>94</ele>
        <time>2025-06-07T10:15:18Z</time>
      </trkpt>
      <trkpt lat="48.63372" lon="-2.98693">
        <ele>94</ele>
        <time>2025-06-07T10:15:19Z</time>
      </trkpt>
      <trkpt lat="48.63355" lon="-2.9869">
        <ele>94</ele>
        <time>2025-06-07T10:15:22Z</time>
      </trkpt>
      <trkpt lat="48.63338" lon="-2.98686">
        <ele>94</ele>
        <time>2025-06-07T10:15:25Z</time>
      </trkpt>
      <trkpt lat="48.63326" lon="-2.98681">
        <ele>94</ele>
        <time>2025-06-07T10:15:28Z</time>
      </trkpt>
      <trkpt lat="48.633" lon="-2.98667">
        <ele>94</ele>
        <time>2025-06-07T10:15:32Z</time>
      </trkpt>
      <trkpt lat="48.6329" lon="-2.9866">
        <ele>95</ele>
        <time>2025-06-07T10:15:34Z</time>
      </trkpt>
      <trkpt lat="48.63279" lon="-2.98649">
        <ele>95</ele>
        <time>2025-06-07T10:15:37Z</time>
      </trkpt>
      <trkpt lat="48.63273" lon="-2.98647">
        <ele>95</ele>
        <time>2025-06-07T10:15:38Z</time>
      </trkpt>
      <trkpt lat="48.63253" lon="-2.9865">
        <ele>95</ele>
        <time>2025-06-07T10:15:41Z</time>
      </trkpt>
      <trkpt lat="48.63252" lon="-2.98657">
        <ele>95</ele>
        <time>2025-06-07T10:15:42Z</time>
      </trkpt>
      <trkpt lat="48.6322" lon="-2.98744">
        <ele>94</ele>
        <time>2025-06-07T10:15:54Z</time>
      </trkpt>
      <trkpt lat="48.6322" lon="-2.98756">
        <ele>94</ele>
        <time>2025-06-07T10:15:55Z</time>
      </trkpt>
      <trkpt lat="48.63219" lon="-2.98767">
        <ele>93</ele>
        <time>2025-06-07T10:15:57Z</time>
      </trkpt>
      <trkpt lat="48.63213" lon="-2.98798">
        <ele>93</ele>
        <time>2025-06-07T10:16:01Z</time>
      </trkpt>
      <trkpt lat="48.63207" lon="-2.9881">
        <ele>93</ele>
        <time>2025-06-07T10:16:02Z</time>
      </trkpt>
      <trkpt lat="48.63204" lon="-2.98824">
        <ele>93</ele>
        <time>2025-06-07T10:16:04Z</time>
      </trkpt>
      <trkpt lat="48.63195" lon="-2.98856">
        <ele>92</ele>
        <time>2025-06-07T10:16:08Z</time>
      </trkpt>
      <trkpt lat="48.63155" lon="-2.98942">
        <ele>92</ele>
        <time>2025-06-07T10:16:20Z</time>
      </trkpt>
      <trkpt lat="48.63141" lon="-2.98985">
        <ele>91</ele>
        <time>2025-06-07T10:16:26Z</time>
      </trkpt>
      <trkpt lat="48.63119" lon="-2.99054">
        <ele>90</ele>
        <time>2025-06-07T10:16:35Z</time>
      </trkpt>
      <trkpt lat="48.63098" lon="-2.99127">
        <ele>90</ele>
        <time>2025-06-07T10:16:44Z</time>
      </trkpt>
      <trkpt lat="48.63086" lon="-2.99182">
        <ele>90</ele>
        <time>2025-06-07T10:16:51Z</time>
      </trkpt>
      <trkpt lat="48.63081" lon="-2.99215">
        <ele>89</ele>
        <time>2025-06-07T10:16:55Z</time>
      </trkpt>
      <trkpt lat="48.6308" lon="-2.99236">
        <ele>89</ele>
        <time>2025-06-07T10:16:58Z</time>
      </trkpt>
      <trkpt lat="48.63082" lon="-2.99253">
        <ele>89</ele>
        <time>2025-06-07T10:17:00Z</time>
      </trkpt>
      <trkpt lat="48.63083" lon="-2.99285">
        <ele>88</ele>
        <time>2025-06-07T10:17:04Z</time>
      </trkpt>
      <trkpt lat="48.63086" lon="-2.99324">
        <ele>87</ele>
        <time>2025-06-07T10:17:08Z</time>
      </trkpt>
      <trkpt lat="48.63087" lon="-2.99346">
        <ele>87</ele>
        <time>2025-06-07T10:17:11Z</time>
      </trkpt>
      <trkpt lat="48.63089" lon="-2.9938">
        <ele>87</ele>
        <time>2025-06-07T10:17:15Z</time>
      </trkpt>
      <trkpt lat="48.63087" lon="-2.99409">
        <ele>86</ele>
        <time>2025-06-07T10:17:18Z</time>
      </trkpt>
      <trkpt lat="48.63082" lon="-2.99448">
        <ele>86</ele>
        <time>2025-06-07T10:17:23Z</time>
      </trkpt>
      <trkpt lat="48.63066" lon="-2.99525">
        <ele>87</ele>
        <time>2025-06-07T10:17:32Z</time>
      </trkpt>
      <trkpt lat="48.6306" lon="-2.99545">
        <ele>87</ele>
        <time>2025-06-07T10:17:35Z</time>
      </trkpt>
      <trkpt lat="48.6305" lon="-2.99561">
        <ele>86</ele>
        <time>2025-06-07T10:17:38Z</time>
      </trkpt>
      <trkpt lat="48.63038" lon="-2.99587">
        <ele>86</ele>
        <time>2025-06-07T10:17:41Z</time>
      </trkpt>
      <trkpt lat="48.6297" lon="-2.99719">
        <ele>80</ele>
        <time>2025-06-07T10:18:01Z</time>
      </trkpt>
      <trkpt lat="48.62948" lon="-2.99754">
        <ele>78</ele>
        <time>2025-06-07T10:18:07Z</time>
      </trkpt>
      <trkpt lat="48.62909" lon="-2.99801">
        <ele>77</ele>
        <time>2025-06-07T10:18:15Z</time>
      </trkpt>
      <trkpt lat="48.62829" lon="-2.999">
        <ele>75</ele>
        <time>2025-06-07T10:18:34Z</time>
      </trkpt>
      <trkpt lat="48.62797" lon="-2.99937">
        <ele>71</ele>
        <time>2025-06-07T10:18:41Z</time>
      </trkpt>
      <trkpt lat="48.62767" lon="-2.99979">
        <ele>68</ele>
        <time>2025-06-07T10:18:48Z</time>
      </trkpt>
      <trkpt lat="48.62754" lon="-3.00008">
        <ele>67</ele>
        <time>2025-06-07T10:18:52Z</time>
      </trkpt>
      <trkpt lat="48.62752" lon="-3.00018">
        <ele>67</ele>
        <time>2025-06-07T10:18:54Z</time>
      </trkpt>
      <trkpt lat="48.62747" lon="-3.00051">
        <ele>66</ele>
        <time>2025-06-07T10:18:58Z</time>
      </trkpt>
      <trkpt lat="48.62745" lon="-3.00078">
        <ele>66</ele>
        <time>2025-06-07T10:19:01Z</time>
      </trkpt>
      <trkpt lat="48.62748" lon="-3.00169">
        <ele>65</ele>
        <time>2025-06-07T10:19:12Z</time>
      </trkpt>
      <trkpt lat="48.62749" lon="-3.00246">
        <ele>63</ele>
        <time>2025-06-07T10:19:21Z</time>
      </trkpt>
      <trkpt lat="48.62748" lon="-3.0027">
        <ele>63</ele>
        <time>2025-06-07T10:19:23Z</time>
      </trkpt>
      <trkpt lat="48.62735" lon="-3.00336">
        <ele>61</ele>
        <time>2025-06-07T10:19:32Z</time>
      </trkpt>
      <trkpt lat="48.62724" lon="-3.00399">
        <ele>61</ele>
        <time>2025-06-07T10:19:39Z</time>
      </trkpt>
      <trkpt lat="48.62714" lon="-3.00496">
        <ele>60</ele>
        <time>2025-06-07T10:19:51Z</time>
      </trkpt>
      <trkpt lat="48.62689" lon="-3.0065">
        <ele>52</ele>
        <time>2025-06-07T10:20:09Z</time>
      </trkpt>
      <trkpt lat="48.62695" lon="-3.00672">
        <ele>52</ele>
        <time>2025-06-07T10:20:12Z</time>
      </trkpt>
      <trkpt lat="48.6271" lon="-3.00713">
        <ele>52</ele>
        <time>2025-06-07T10:20:18Z</time>
      </trkpt>
      <trkpt lat="48.62743" lon="-3.00768">
        <ele>50</ele>
        <time>2025-06-07T10:20:26Z</time>
      </trkpt>
      <trkpt lat="48.62765" lon="-3.00815">
        <ele>47</ele>
        <time>2025-06-07T10:20:33Z</time>
      </trkpt>
      <trkpt lat="48.62772" lon="-3.00866">
        <ele>44</ele>
        <time>2025-06-07T10:20:39Z</time>
      </trkpt>
      <trkpt lat="48.62773" lon="-3.00881">
        <ele>44</ele>
        <time>2025-06-07T10:20:41Z</time>
      </trkpt>
      <trkpt lat="48.62773" lon="-3.00898">
        <ele>43</ele>
        <time>2025-06-07T10:20:43Z</time>
      </trkpt>
      <trkpt lat="48.62772" lon="-3.00912">
        <ele>43</ele>
        <time>2025-06-07T10:20:45Z</time>
      </trkpt>
      <trkpt lat="48.62757" lon="-3.00971">
        <ele>44</ele>
        <time>2025-06-07T10:20:52Z</time>
      </trkpt>
      <trkpt lat="48.62741" lon="-3.01026">
        <ele>46</ele>
        <time>2025-06-07T10:20:59Z</time>
      </trkpt>
      <trkpt lat="48.62734" lon="-3.01051">
        <ele>47</ele>
        <time>2025-06-07T10:21:02Z</time>
      </trkpt>
      <trkpt lat="48.62725" lon="-3.01078">
        <ele>49</ele>
        <time>2025-06-07T10:21:06Z</time>
      </trkpt>
      <trkpt lat="48.6272" lon="-3.01089">
        <ele>50</ele>
        <time>2025-06-07T10:21:08Z</time>
      </trkpt>
      <trkpt lat="48.62711" lon="-3.01107">
        <ele>52</ele>
        <time>2025-06-07T10:21:10Z</time>
      </trkpt>
      <trkpt lat="48.627" lon="-3.01121">
        <ele>53</ele>
        <time>2025-06-07T10:21:13Z</time>
      </trkpt>
      <trkpt lat="48.62687" lon="-3.01132">
        <ele>54</ele>
        <time>2025-06-07T10:21:15Z</time>
      </trkpt>
      <trkpt lat="48.62657" lon="-3.01151">
        <ele>56</ele>
        <time>2025-06-07T10:21:21Z</time>
      </trkpt>
      <trkpt lat="48.62633" lon="-3.0117">
        <ele>57</ele>
        <time>2025-06-07T10:21:26Z</time>
      </trkpt>
      <trkpt lat="48.62621" lon="-3.01188">
        <ele>57</ele>
        <time>2025-06-07T10:21:29Z</time>
      </trkpt>
      <trkpt lat="48.62612" lon="-3.01211">
        <ele>57</ele>
        <time>2025-06-07T10:21:32Z</time>
      </trkpt>
      <trkpt lat="48.62605" lon="-3.01244">
        <ele>57</ele>
        <time>2025-06-07T10:21:36Z</time>
      </trkpt>
      <trkpt lat="48.6259" lon="-3.01314">
        <ele>59</ele>
        <time>2025-06-07T10:21:45Z</time>
      </trkpt>
      <trkpt lat="48.62581" lon="-3.01371">
        <ele>60</ele>
        <time>2025-06-07T10:21:52Z</time>
      </trkpt>
      <trkpt lat="48.62583" lon="-3.01399">
        <ele>61</ele>
        <time>2025-06-07T10:21:55Z</time>
      </trkpt>
      <trkpt lat="48.62593" lon="-3.01446">
        <ele>61</ele>
        <time>2025-06-07T10:22:01Z</time>
      </trkpt>
      <trkpt lat="48.62623" lon="-3.01557">
        <ele>63</ele>
        <time>2025-06-07T10:22:15Z</time>
      </trkpt>
      <trkpt lat="48.62629" lon="-3.01596">
        <ele>64</ele>
        <time>2025-06-07T10:22:20Z</time>
      </trkpt>
      <trkpt lat="48.62623" lon="-3.01651">
        <ele>64</ele>
        <time>2025-06-07T10:22:26Z</time>
      </trkpt>
      <trkpt lat="48.62613" lon="-3.01691">
        <ele>64</ele>
        <time>2025-06-07T10:22:31Z</time>
      </trkpt>
      <trkpt lat="48.62611" lon="-3.01698">
        <ele>64</ele>
        <time>2025-06-07T10:22:32Z</time>
      </trkpt>
      <trkpt lat="48.62607" lon="-3.01706">
        <ele>64</ele>
        <time>2025-06-07T10:22:33Z</time>
      </trkpt>
      <trkpt lat="48.62594" lon="-3.01732">
        <ele>65</ele>
        <time>2025-06-07T10:22:37Z</time>
      </trkpt>
      <trkpt lat="48.62566" lon="-3.01771">
        <ele>65</ele>
        <time>2025-06-07T10:22:44Z</time>
      </trkpt>
      <trkpt lat="48.62529" lon="-3.01816">
        <ele>65</ele>
        <time>2025-06-07T10:22:52Z</time>
      </trkpt>
      <trkpt lat="48.62487" lon="-3.01842">
        <ele>65</ele>
        <time>2025-06-07T10:23:01Z</time>
      </trkpt>
      <trkpt lat="48.62429" lon="-3.01864">
        <ele>66</ele>
        <time>2025-06-07T10:23:11Z</time>
      </trkpt>
      <trkpt lat="48.62377" lon="-3.01883">
        <ele>67</ele>
        <time>2025-06-07T10:23:21Z</time>
      </trkpt>
      <trkpt lat="48.62328" lon="-3.01913">
        <ele>69</ele>
        <time>2025-06-07T10:23:30Z</time>
      </trkpt>
      <trkpt lat="48.62253" lon="-3.01969">
        <ele>70</ele>
        <time>2025-06-07T10:23:45Z</time>
      </trkpt>
      <trkpt lat="48.62235" lon="-3.01966">
        <ele>70</ele>
        <time>2025-06-07T10:23:48Z</time>
      </trkpt>
      <trkpt lat="48.62199" lon="-3.0196">
        <ele>70</ele>
        <time>2025-06-07T10:23:55Z</time>
      </trkpt>
      <trkpt lat="48.62115" lon="-3.01936">
        <ele>70</ele>
        <time>2025-06-07T10:24:10Z</time>
      </trkpt>
      <trkpt lat="48.62084" lon="-3.01917">
        <ele>71</ele>
        <time>2025-06-07T10:24:16Z</time>
      </trkpt>
      <trkpt lat="48.62048" lon="-3.01926">
        <ele>72</ele>
        <time>2025-06-07T10:24:22Z</time>
      </trkpt>
      <trkpt lat="48.6197" lon="-3.01935">
        <ele>73</ele>
        <time>2025-06-07T10:24:36Z</time>
      </trkpt>
      <trkpt lat="48.61896" lon="-3.01944">
        <ele>73</ele>
        <time>2025-06-07T10:24:49Z</time>
      </trkpt>
      <trkpt lat="48.61834" lon="-3.01942">
        <ele>73</ele>
        <time>2025-06-07T10:25:00Z</time>
      </trkpt>
      <trkpt lat="48.61762" lon="-3.01905">
        <ele>75</ele>
        <time>2025-06-07T10:25:14Z</time>
      </trkpt>
      <trkpt lat="48.61719" lon="-3.01887">
        <ele>76</ele>
        <time>2025-06-07T10:25:22Z</time>
      </trkpt>
      <trkpt lat="48.61534" lon="-3.01888">
        <ele>80</ele>
        <time>2025-06-07T10:25:55Z</time>
      </trkpt>
      <trkpt lat="48.615" lon="-3.01905">
        <ele>80</ele>
        <time>2025-06-07T10:26:01Z</time>
      </trkpt>
      <trkpt lat="48.61456" lon="-3.01935">
        <ele>80</ele>
        <time>2025-06-07T10:26:10Z</time>
      </trkpt>
      <trkpt lat="48.61429" lon="-3.01952">
        <ele>81</ele>
        <time>2025-06-07T10:26:15Z</time>
      </trkpt>
      <trkpt lat="48.61407" lon="-3.01962">
        <ele>81</ele>
        <time>2025-06-07T10:26:19Z</time>
      </trkpt>
      <trkpt lat="48.61309" lon="-3.01998">
        <ele>81</ele>
        <time>2025-06-07T10:26:37Z</time>
      </trkpt>
      <trkpt lat="48.61271" lon="-3.02009">
        <ele>81</ele>
        <time>2025-06-07T10:26:44Z</time>
      </trkpt>
      <trkpt lat="48.6123" lon="-3.02015">
        <ele>80</ele>
        <time>2025-06-07T10:26:51Z</time>
      </trkpt>
      <trkpt lat="48.61165" lon="-3.02013">
        <ele>79</ele>
        <time>2025-06-07T10:27:03Z</time>
      </trkpt>
      <trkpt lat="48.61142" lon="-3.02014">
        <ele>78</ele>
        <time>2025-06-07T10:27:07Z</time>
      </trkpt>
      <trkpt lat="48.61036" lon="-3.01998">
        <ele>74</ele>
        <time>2025-06-07T10:27:26Z</time>
      </trkpt>
      <trkpt lat="48.60989" lon="-3.01979">
        <ele>73</ele>
        <time>2025-06-07T10:27:35Z</time>
      </trkpt>
      <trkpt lat="48.60918" lon="-3.0192">
        <ele>74</ele>
        <time>2025-06-07T10:27:49Z</time>
      </trkpt>
      <trkpt lat="48.60861" lon="-3.01873">
        <ele>76</ele>
        <time>2025-06-07T10:28:01Z</time>
      </trkpt>
      <trkpt lat="48.60843" lon="-3.01862">
        <ele>77</ele>
        <time>2025-06-07T10:28:04Z</time>
      </trkpt>
      <trkpt lat="48.60838" lon="-3.0186">
        <ele>77</ele>
        <time>2025-06-07T10:28:05Z</time>
      </trkpt>
      <trkpt lat="48.60833" lon="-3.01858">
        <ele>77</ele>
        <time>2025-06-07T10:28:06Z</time>
      </trkpt>
      <trkpt lat="48.60798" lon="-3.01847">
        <ele>77</ele>
        <time>2025-06-07T10:28:12Z</time>
      </trkpt>
      <trkpt lat="48.60779" lon="-3.01845">
        <ele>78</ele>
        <time>2025-06-07T10:28:16Z</time>
      </trkpt>
      <trkpt lat="48.60716" lon="-3.01849">
        <ele>79</ele>
        <time>2025-06-07T10:28:27Z</time>
      </trkpt>
      <trkpt lat="48.6071" lon="-3.01843">
        <ele>80</ele>
        <time>2025-06-07T10:28:28Z</time>
      </trkpt>
      <trkpt lat="48.60649" lon="-3.018">
        <ele>84</ele>
        <time>2025-06-07T10:28:40Z</time>
      </trkpt>
      <trkpt lat="48.60616" lon="-3.01774">
        <ele>86</ele>
        <time>2025-06-07T10:28:47Z</time>
      </trkpt>
      <trkpt lat="48.6059" lon="-3.01758">
        <ele>88</ele>
        <time>2025-06-07T10:28:52Z</time>
      </trkpt>
      <trkpt lat="48.60561" lon="-3.01746">
        <ele>90</ele>
        <time>2025-06-07T10:28:57Z</time>
      </trkpt>
      <trkpt lat="48.60554" lon="-3.01739">
        <ele>90</ele>
        <time>2025-06-07T10:28:58Z</time>
      </trkpt>
      <trkpt lat="48.60519" lon="-3.01692">
        <ele>92</ele>
        <time>2025-06-07T10:29:07Z</time>
      </trkpt>
      <trkpt lat="48.60474" lon="-3.01765">
        <ele>91</ele>
        <time>2025-06-07T10:29:19Z</time>
      </trkpt>
      <trkpt lat="48.60468" lon="-3.01774">
        <ele>91</ele>
        <time>2025-06-07T10:29:20Z</time>
      </trkpt>
      <trkpt lat="48.60457" lon="-3.01787">
        <ele>91</ele>
        <time>2025-06-07T10:29:23Z</time>
      </trkpt>
      <trkpt lat="48.60451" lon="-3.01792">
        <ele>91</ele>
        <time>2025-06-07T10:29:24Z</time>
      </trkpt>
      <trkpt lat="48.60435" lon="-3.01801">
        <ele>91</ele>
        <time>2025-06-07T10:29:27Z</time>
      </trkpt>
      <trkpt lat="48.60431" lon="-3.01804">
        <ele>91</ele>
        <time>2025-06-07T10:29:28Z</time>
      </trkpt>
    </trkseg>
  </trk>
</gpx>